[[{"header":{"parameterUnit":"m.s-1","parameterCategory":1,"la1":30.6,"la2":28.766,"lo1":-90.7593,"lo2":-88.6598,"dx":0.0162,"dy":0.0183,"nx":116,"ny":114,"refTime":"2022-11-18T18:00:00:Z","depth":0,"parameterNumber":2,"parameterNumberName":"U-component_of_WINDS"},"data":[0.0,0.0,0.0,0.0,0.0,0.0,0.0,0.0,0.0,0.0,0.0,0.0,0.0,0.0,0.0,0.0,0.0,0.0,0.0,0.0,0.0,0.0,0.0,0.0,0.0,0.0,0.0,0.0,0.0,0.0,0.0,0.0,0.0,0.0,0.0,0.0,0.0,0.0,0.0,0.0,0.0,0.0,0.0,0.0,0.0,0.0,0.0,0.0,0.0,0.0,0.0,0.0,0.0,0.0,0.0,0.0,0.0,0.0,0.0,0.0,0.0,0.0,0.0,0.0,0.0,0.0,0.0,0.0,0.0,0.0,0.0,0.0,0.0,0.0,0.0,0.0,0.0,0.0,0.0,0.0,0.0,0.0,0.0,0.0,0.0,0.0,0.0,0.0,0.0,0.0,0.0,0.0,0.0,0.0,0.0,0.0,0.0,0.0,0.0,0.0,0.0,0.0,0.0,0.0,0.0,0.0,0.0,0.0,0.0,0.0,0.0,0.0,0.0,0.0,0.0,0.0,0.0,0.0,0.0,0.0,0.0,0.0,0.0,0.0,0.0,0.0,0.0,0.0,0.0,0.0,0.0,0.0,0.0,0.0,0.0,0.0,0.0,0.0,0.0,0.0,0.0,0.0,0.0,0.0,0.0,0.0,0.0,0.0,0.0,0.0,0.0,0.0,0.0,0.0,0.0,0.0,0.0,0.0,0.0,0.0,0.0,0.0,0.0,0.0,0.0,0.0,0.0,0.0,0.0,0.0,0.0,0.0,0.0,0.0,0.0,0.0,0.0,0.0,0.0,0.0,0.0,0.0,0.0,0.0,0.0,0.0,0.0,0.0,0.0,0.0,0.0,0.0,0.0,0.0,0.0,0.0,0.0,0.0,0.0,0.0,0.0,0.0,0.0,0.0,0.0,0.0,0.0,0.0,0.0,0.0,0.0,0.0,0.0,0.0,0.0,0.0,0.0,0.0,0.0,0.0,0.0,0.0,0.0,0.0,0.0,0.0,0.0,0.0,0.0,0.0,0.0,0.0,0.0,0.0,0.0,0.0,0.0,0.0,0.0,0.0,0.0,0.0,0.0,0.0,0.0,0.0,0.0,0.0,0.0,0.0,0.0,0.0,0.0,0.0,0.0,0.0,0.0,0.0,0.0,0.0,0.0,0.0,0.0,0.0,0.0,0.0,0.0,0.0,0.0,0.0,0.0,0.0,0.0,0.0,0.0,0.0,0.0,0.0,0.0,0.0,0.0,0.0,0.0,0.0,0.0,0.0,0.0,0.0,0.0,0.0,0.0,0.0,0.0,0.0,0.0,0.0,0.0,0.0,0.0,0.0,0.0,0.0,0.0,0.0,0.0,0.0,0.0,0.0,0.0,0.0,0.0,0.0,0.0,0.0,0.0,0.0,0.0,0.0,0.0,0.0,0.0,0.0,0.0,0.0,0.0,0.0,0.0,0.0,0.0,0.0,0.0,0.0,0.0,0.0,0.0,0.0,0.0,0.0,0.0,0.0,0.0,0.0,0.0,0.0,0.0,0.0,0.0,0.0,0.0,0.0,0.0,0.0,0.0,0.0,0.0,0.0,0.0,0.0,0.0,0.0,0.0,0.0,0.0,0.0,0.0,0.0,0.0,0.0,0.0,0.0,0.0,0.0,0.0,0.0,0.0,0.0,0.0,0.0,0.0,0.0,0.0,0.0,0.0,0.0,0.0,0.0,0.0,0.0,0.0,0.0,0.0,0.0,0.0,0.0,0.0,0.0,0.0,0.0,0.0,0.0,0.0,0.0,0.0,0.0,0.0,0.0,0.0,0.0,0.0,0.0,0.0,0.0,0.0,0.0,0.0,0.0,0.0,0.0,0.0,0.0,0.0,0.0,0.0,0.0,0.0,0.0,0.0,0.0,0.0,0.0,0.0,0.0,0.0,0.0,0.0,0.0,0.0,0.0,0.0,0.0,0.0,0.0,0.0,0.0,0.0,0.0,0.0,0.0,0.0,0.0,0.0,0.0,0.0,0.0,0.0,0.0,0.0,0.0,0.0,0.0,0.0,0.0,0.0,0.0,0.0,0.0,0.0,0.0,0.0,0.0,0.0,0.0,0.0,0.0,0.0,0.0,0.0,0.0,0.0,0.0,0.0,0.0,0.0,0.0,0.0,0.0,0.0,0.0,0.0,0.0,0.0,0.0,0.0,0.0,0.0,0.0,0.0,0.0,0.0,0.0,0.0,0.0,0.0,0.0,0.0,0.0,0.0,0.0,0.0,0.0,0.0,0.0,0.0,0.0,0.0,0.0,0.0,0.0,0.0,0.0,0.0,0.0,0.0,0.0,0.0,0.0,0.0,0.0,0.0,0.0,0.0,0.0,0.0,0.0,0.0,0.0,0.0,0.0,0.0,0.0,0.0,0.0,0.0,0.0,0.0,0.0,0.0,0.0,0.0,0.0,0.0,0.0,0.0,0.0,0.0,0.0,0.0,0.0,0.0,0.0,0.0,0.0,0.0,0.0,0.0,0.0,0.0,0.0,0.0,0.0,0.0,0.0,0.0,0.0,0.0,0.0,0.0,0.0,0.0,0.0,0.0,0.0,0.0,0.0,0.0,0.0,0.0,0.0,0.0,0.0,0.0,0.0,0.0,0.0,0.0,0.0,0.0,0.0,0.0,0.0,0.0,0.0,0.0,0.0,0.0,0.0,0.0,0.0,0.0,0.0,0.0,0.0,0.0,0.0,0.0,0.0,0.0,0.0,0.0,0.0,0.0,0.0,0.0,0.0,0.0,0.0,0.0,0.0,0.0,0.0,0.0,0.0,0.0,0.0,0.0,0.0,0.0,0.0,0.0,0.0,0.0,0.0,0.0,0.0,0.0,0.0,0.0,0.0,0.0,0.0,0.0,0.0,0.0,0.0,0.0,0.0,0.0,0.0,0.0,0.0,0.0,0.0,0.0,0.0,0.0,0.0,0.0,0.0,0.0,0.0,0.0,0.0,0.0,0.0,0.0,0.0,0.0,0.0,0.0,0.0,0.0,0.0,0.0,0.0,0.0,0.0,0.0,0.0,0.0,0.0,0.0,0.0,0.0,0.0,0.0,0.0,0.0,0.0,0.0,0.0,0.0,0.0,0.0,0.0,0.0,0.0,0.0,0.0,0.0,0.0,0.0,0.0,0.0,0.0,0.0,0.0,0.0,0.0,0.0,0.0,0.0,0.0,0.0,0.0,0.0,0.0,0.0,0.0,0.0,0.0,0.0,0.0,0.0,0.0,0.0,0.0,0.0,0.0,0.0,0.0,0.0,0.0,0.0,0.0,0.0,0.0,0.0,0.0,0.0,0.0,0.0,0.0,0.0,0.0,0.0,0.0,0.0,0.0,0.0,0.0,0.0,0.0,0.0,0.0,0.0,0.0,0.0,0.0,0.0,0.0,0.0,0.0,0.0,0.0,0.0,0.0,0.0,0.0,0.0,0.0,0.0,0.0,0.0,0.0,0.0,0.0,0.0,0.0,0.0,0.0,0.0,0.0,0.0,0.0,0.0,0.0,0.0,0.0,0.0,0.0,0.0,0.0,0.0,0.0,0.0,0.0,0.0,0.0,0.0,0.0,0.0,0.0,0.0,0.0,0.0,0.0,0.0,0.0,0.0,0.0,0.0,0.0,0.0,0.0,0.0,0.0,0.0,0.0,0.0,0.0,0.0,0.0,0.0,0.0,0.0,0.0,0.0,0.0,0.0,0.0,0.0,0.0,0.0,0.0,0.0,0.0,0.0,0.0,0.0,0.0,0.0,0.0,0.0,0.0,0.0,0.0,0.0,0.0,0.0,0.0,0.0,0.0,0.0,0.0,0.0,0.0,0.0,0.0,0.0,0.0,0.0,0.0,0.0,0.0,0.0,0.0,0.0,0.0,0.0,0.0,0.0,0.0,0.0,0.0,0.0,0.0,0.0,0.0,0.0,0.0,0.0,0.0,0.0,0.0,0.0,0.0,0.0,0.0,0.0,0.0,0.0,0.0,0.0,0.0,0.0,0.0,0.0,0.0,0.0,0.0,0.0,0.0,0.0,0.0,0.0,0.0,0.0,0.0,0.0,0.0,0.0,0.0,0.0,0.0,0.0,0.0,0.0,0.0,0.0,0.0,0.0,0.0,0.0,0.0,0.0,0.0,0.0,0.0,0.0,0.0,0.0,0.0,0.0,0.0,0.0,0.0,0.0,0.0,0.0,0.0,0.0,0.0,0.0,0.0,0.0,0.0,0.0,0.0,0.0,0.0,0.0,0.0,0.0,0.0,0.0,0.0,0.0,0.0,0.0,0.0,0.0,0.0,0.0,0.0,0.0,0.0,0.0,0.0,0.0,0.0,0.0,0.0,0.0,0.0,0.0,0.0,0.0,0.0,0.0,0.0,0.0,0.0,0.0,0.0,0.0,0.0,0.0,0.0,0.0,0.0,0.0,0.0,0.0,0.0,0.0,0.0,0.0,0.0,0.0,0.0,0.0,0.0,0.0,0.0,0.0,0.0,0.0,0.0,0.0,0.0,0.0,0.0,0.0,0.0,0.0,0.0,0.0,0.0,0.0,0.0,0.0,0.0,0.0,0.0,0.0,0.0,0.0,0.0,0.0,0.0,0.0,0.0,0.0,0.0,0.0,0.0,0.0,0.0,0.0,0.0,0.0,0.0,0.0,0.0,0.0,0.0,0.0,0.0,0.0,0.0,0.0,0.0,0.0,0.0,0.0,0.0,0.0,0.0,0.0,0.0,0.0,0.0,0.0,0.0,0.0,0.0,0.0,0.0,0.0,0.0,0.0,0.0,0.0,0.0,0.0,0.0,0.0,0.0,0.0,0.0,0.0,0.0,0.0,0.0,0.0,0.0,0.0,0.0,0.0,0.0,0.0,0.0,0.0,0.0,0.0,0.0,0.0,0.0,0.0,0.0,0.0,0.0,0.0,0.0,0.0,0.0,0.0,0.0,0.0,0.0,0.0,0.0,0.0,0.0,0.0,0.0,0.0,0.0,0.0,0.0,0.0,0.0,0.0,0.0,0.0,0.0,0.0,0.0,0.0,0.0,0.0,0.0,0.0,0.0,0.0,0.0,0.0,0.0,0.0,0.0,0.0,0.0,0.0,0.0,0.0,0.0,0.0,0.0,0.0,0.0,0.0,0.0,0.0,0.0,0.0,0.0,0.0,0.0,0.0,0.0,0.0,0.0,0.0,0.0,0.0,0.0,0.0,0.0,0.0,0.0,0.0,0.0,0.0,0.0,0.0,0.0,0.0,0.0,0.0,0.0,0.0,0.0,0.0,0.0,0.0,0.0,0.0,0.0,0.0,0.0,0.0,0.0,0.0,0.0,0.0,0.0,0.0,0.0,0.0,0.0,0.0,0.0,0.0,0.0,0.0,0.0,0.0,0.0,0.0,0.0,0.0,0.0,0.0,0.0,0.0,0.0,0.0,0.0,0.0,0.0,0.0,0.0,0.0,0.0,0.0,0.0,0.0,0.0,0.0,0.0,0.0,0.0,0.0,0.0,0.0,0.0,0.0,0.0,0.0,0.0,0.0,0.0,0.0,0.0,0.0,0.0,0.0,0.0,0.0,0.0,0.0,0.0,0.0,0.0,0.0,0.0,0.0,0.0,0.0,0.0,0.0,0.0,0.0,0.0,0.0,0.0,0.0,0.0,0.0,0.0,0.0,0.0,0.0,0.0,0.0,0.0,0.0,0.0,0.0,0.0,0.0,0.0,0.0,0.0,0.0,0.0,0.0,0.0,0.0,0.0,0.0,0.0,0.0,0.0,0.0,0.0,0.0,0.0,0.0,0.0,0.0,0.0,0.0,0.0,0.0,0.0,0.0,0.0,0.0,0.0,0.0,0.0,0.0,0.0,0.0,0.0,0.0,0.0,0.0,0.0,0.0,0.0,0.0,0.0,0.0,0.0,0.0,0.0,0.0,0.0,0.0,0.0,0.0,0.0,0.0,0.0,0.0,0.0,0.0,0.0,0.0,0.0,0.0,0.0,0.0,0.0,0.0,0.0,0.0,0.0,0.0,0.0,0.0,0.0,0.0,0.0,0.0,0.0,0.0,0.0,0.0,0.0,0.0,0.0,0.0,0.0,0.0,0.0,0.0,0.0,3.1782,0.0,0.0,0.0,0.0,0.0,0.0,0.0,0.0,0.0,0.0,0.0,0.0,0.0,0.0,0.0,0.0,0.0,0.0,0.0,0.0,0.0,0.0,0.0,0.0,2.0628,2.1156,2.255,2.2499,0.0,0.0,0.0,0.0,0.0,0.0,0.0,0.0,0.0,2.3545,2.3876,2.5372,2.7004,2.8764,2.801,2.6017,2.312,0.0,0.0,0.0,0.0,0.0,0.0,0.0,0.0,0.0,0.0,0.0,0.0,0.0,0.0,0.0,0.0,0.0,0.0,0.0,0.0,0.0,0.0,0.0,0.0,0.0,0.0,0.0,0.0,0.0,0.0,0.0,0.0,0.0,0.0,0.0,0.0,0.0,0.0,0.0,0.0,0.0,0.0,0.0,0.0,0.0,0.0,0.0,0.0,0.0,0.0,0.0,0.0,0.0,0.0,0.0,0.0,0.0,0.0,0.0,0.0,0.0,0.0,0.0,0.0,0.0,0.0,0.0,0.0,0.0,0.0,0.0,3.2758,0.0,0.0,0.0,0.0,0.0,0.0,0.0,0.0,0.0,0.0,0.0,0.0,0.0,0.0,0.0,0.0,0.0,0.0,0.0,0.0,0.0,2.0148,2.0787,2.1271,2.2024,2.3263,2.3641,2.3804,2.3801,2.4265,0.0,0.0,0.0,0.0,2.3467,2.4174,2.5041,2.6059,2.9056,3.1877,3.437,3.4418,3.1725,2.682,2.5214,0.0,0.0,0.0,0.0,0.0,0.0,0.0,0.0,0.0,0.0,0.0,0.0,0.0,0.0,0.0,0.0,0.0,0.0,0.0,0.0,0.0,0.0,0.0,0.0,0.0,0.0,0.0,0.0,0.0,0.0,0.0,0.0,0.0,0.0,0.0,0.0,0.0,0.0,0.0,0.0,0.0,0.0,0.0,0.0,0.0,0.0,0.0,0.0,0.0,0.0,0.0,0.0,0.0,0.0,0.0,0.0,0.0,0.0,0.0,0.0,0.0,0.0,0.0,3.7931,3.8667,3.8769,3.8689,3.8988,3.9535,3.8548,3.6435,3.365,0.0,0.0,0.0,0.0,0.0,0.0,0.0,0.0,0.0,0.0,0.0,0.0,0.0,0.0,0.0,0.0,0.0,0.0,0.0,0.0,2.0817,2.1485,2.1644,2.2395,2.4234,2.3774,2.3629,2.4191,2.4517,0.0,0.0,0.0,0.0,2.3679,2.4329,2.5715,2.786,3.3804,3.7246,3.8261,3.8447,3.7353,3.5069,3.1823,2.8705,2.584,0.0,0.0,0.0,0.0,0.0,0.0,0.0,0.0,0.0,0.0,0.0,0.0,0.0,0.0,0.0,0.0,0.0,0.0,0.0,0.0,0.0,0.0,0.0,0.0,0.0,0.0,0.0,0.0,0.0,0.0,0.0,0.0,0.0,0.0,0.0,0.0,0.0,0.0,0.0,0.0,0.0,2.9972,2.7703,0.0,0.0,0.0,0.0,0.0,0.0,0.0,0.0,0.0,0.0,0.0,0.0,0.0,3.7682,3.8275,3.9836,4.0897,4.1486,4.2781,4.3679,4.4234,4.3716,4.3769,4.4161,4.1931,0.0,3.71,3.4306,0.0,0.0,0.0,0.0,0.0,0.0,0.0,0.0,0.0,0.0,0.0,0.0,0.0,0.0,0.0,0.0,0.0,0.0,0.0,0.0,0.0,2.4061,2.5521,2.7108,2.8197,2.833,2.7184,2.7494,0.0,0.0,0.0,2.5715,2.5019,2.7153,3.0807,3.5959,4.0191,4.2804,4.3776,4.3866,4.2923,4.11,3.9155,3.4979,2.9252,2.7547,0.0,0.0,0.0,0.0,0.0,0.0,0.0,0.0,0.0,0.0,0.0,0.0,0.0,0.0,0.0,0.0,0.0,0.0,0.0,0.0,0.0,0.0,0.0,0.0,0.0,0.0,0.0,0.0,0.0,0.0,0.0,0.0,0.0,0.0,0.0,0.0,0.0,0.0,0.0,2.8833,3.0545,2.8014,2.9379,2.9366,0.0,0.0,0.0,0.0,0.0,0.0,0.0,0.0,0.0,3.6884,3.9996,4.1715,4.1802,4.3725,4.5052,4.5705,4.629,4.644,4.6248,4.5961,4.5534,4.4893,4.3834,4.2772,4.1524,3.7596,3.5605,3.4994,0.0,0.0,0.0,0.0,3.6722,3.7804,0.0,0.0,0.0,0.0,0.0,0.0,0.0,0.0,0.0,0.0,0.0,0.0,2.4208,2.6957,2.9146,3.0269,3.2276,3.2454,3.002,3.0211,2.9041,0.0,0.0,2.6936,2.6367,3.045,3.5727,4.2198,4.498,4.6761,4.7659,4.7872,4.6949,4.5132,4.4606,4.0327,3.3394,3.1256,2.8923,2.6398,0.0,0.0,0.0,0.0,0.0,0.0,0.0,0.0,0.0,0.0,0.0,0.0,0.0,0.0,0.0,0.0,0.0,0.0,0.0,0.0,0.0,0.0,0.0,0.0,0.0,0.0,0.0,0.0,0.0,0.0,0.0,0.0,0.0,0.0,0.0,0.0,0.0,3.0024,3.2133,2.8747,3.1093,3.1809,0.0,0.0,0.0,0.0,0.0,0.0,3.7717,4.0325,4.1992,4.239,4.4962,4.6205,4.6029,4.77,4.8706,4.8982,4.8834,4.8288,4.7463,4.6939,4.6182,4.5258,4.4603,4.4414,4.4238,4.0334,3.8318,3.7563,3.6836,3.7782,3.9604,3.9868,4.0742,4.1824,0.0,0.0,0.0,0.0,0.0,0.0,0.0,0.0,0.0,0.0,0.0,2.6345,2.6435,2.9921,3.2542,3.3231,3.3981,3.3561,3.1524,3.13,3.0063,2.7396,2.7228,2.724,2.733,3.3364,3.8589,4.2776,4.6258,4.7992,4.8083,4.8861,4.8251,4.6593,4.6562,4.3754,3.8823,3.6251,3.3978,3.1704,2.7218,0.0,0.0,0.0,0.0,0.0,0.0,0.0,0.0,0.0,0.0,0.0,0.0,0.0,0.0,0.0,0.0,0.0,0.0,0.0,0.0,0.0,0.0,0.0,0.0,0.0,0.0,0.0,0.0,0.0,0.0,0.0,0.0,0.0,0.0,0.0,0.0,0.0,0.0,3.1842,3.4275,0.0,0.0,0.0,0.0,3.9257,4.0193,4.1163,4.2503,4.4481,4.5883,4.6484,4.9943,5.181,5.177,5.1877,5.1573,5.0866,5.0236,4.9481,4.866,4.6821,4.6205,4.6467,4.4119,4.3389,4.368,4.1422,4.0443,4.0133,3.7464,3.7268,3.8607,3.9548,4.1141,4.2947,0.0,0.0,0.0,1.8308,1.9296,2.0112,2.0311,2.0917,2.1635,2.2473,2.4926,2.7243,2.8936,3.3036,3.6101,3.7208,3.9032,3.9331,3.7357,3.5202,3.32,3.1401,2.9659,3.0542,3.4408,3.9022,4.2892,4.6009,4.8415,4.9228,4.8545,4.8835,4.8304,4.708,4.6626,4.5484,4.3609,4.0127,3.7494,3.5324,3.1555,2.8637,0.0,0.0,0.0,0.0,0.0,0.0,0.0,0.0,0.0,0.0,0.0,0.0,0.0,0.0,0.0,0.0,0.0,0.0,0.0,0.0,0.0,0.0,0.0,0.0,0.0,0.0,0.0,0.0,0.0,0.0,0.0,0.0,0.0,0.0,0.0,0.0,0.0,3.6801,3.9766,0.0,3.7932,3.8135,3.9167,4.089,4.2935,4.4663,4.5986,4.8521,5.0242,5.0894,5.1571,5.1936,5.1936,5.133,5.111,5.1248,5.1016,5.0476,4.967,4.8993,4.8253,4.7413,4.6522,4.6271,4.633,4.5242,4.4226,4.3289,4.2268,4.2447,4.3322,4.3704,4.4038,4.4368,0.0,0.0,0.0,1.8897,1.9807,2.0566,2.0977,2.1784,2.2892,2.4418,2.7333,3.0177,3.2587,3.6956,4.0079,4.0976,4.2831,4.2861,4.0229,3.7614,3.516,3.2901,3.1823,3.4009,3.9918,4.2662,4.5432,4.8293,4.947,4.9667,4.8967,4.8967,4.8471,4.7608,4.7189,4.6839,4.645,4.3579,4.1354,3.9421,3.6161,3.2856,2.9741,0.0,0.0,0.0,0.0,0.0,0.0,0.0,0.0,0.0,0.0,0.0,0.0,0.0,0.0,0.0,0.0,0.0,0.0,0.0,0.0,0.0,0.0,0.0,0.0,0.0,0.0,0.0,0.0,0.0,0.0,0.0,0.0,0.0,0.0,0.0,4.0626,4.0232,4.3185,4.4555,4.2813,4.2826,4.3576,4.4982,4.7329,4.8951,4.9462,5.1532,5.2824,5.293,5.2323,5.202,5.2007,5.1374,5.1037,5.1007,5.1018,5.0435,4.941,4.941,4.8871,4.791,4.791,4.791,4.7853,4.7517,4.6804,4.5889,4.5511,4.5968,4.6813,4.6813,4.6848,4.682,0.0,0.0,1.8146,2.0489,2.0394,2.038,2.1535,2.2802,2.4388,2.6465,3.1254,3.5266,3.7315,4.1605,4.4326,4.4316,4.4913,4.3658,3.9719,3.8155,3.5709,3.1855,3.3694,0.0,4.326,4.4047,4.5989,4.9262,4.9186,4.9186,4.9262,4.9262,4.8925,4.8349,4.8349,4.7945,4.7244,4.6595,4.5529,4.4016,4.0782,3.7528,3.4303,0.0,0.0,0.0,0.0,0.0,0.0,0.0,0.0,0.0,0.0,0.0,0.0,0.0,0.0,0.0,0.0,0.0,0.0,0.0,0.0,0.0,0.0,0.0,0.0,0.0,0.0,0.0,0.0,0.0,0.0,0.0,0.0,0.0,3.4848,4.0612,4.4209,4.2094,4.4371,4.6297,4.6889,4.7513,4.905,5.197,5.3356,5.3711,5.2832,5.3391,5.3332,5.2409,5.2371,5.2344,5.2371,5.2339,5.1589,5.0196,5.0196,4.9418,4.7952,4.7952,4.7952,4.7952,4.7952,4.7952,4.7952,4.7952,4.7952,4.7868,4.6778,4.7182,4.8352,4.8362,4.916,5.0071,1.8747,1.9451,2.0113,2.0785,2.1477,2.2031,2.2383,2.352,2.5543,2.8996,3.2392,3.5985,3.9876,4.312,4.4831,4.4421,4.4989,4.3986,4.078,3.8629,3.6984,3.5829,0.0,0.0,4.5433,4.6094,4.705,4.8362,4.6965,4.6989,4.8362,4.7968,4.8211,4.9037,4.9037,4.837,4.7213,4.7038,4.593,4.4127,4.2315,3.9648,3.656,0.0,0.0,0.0,0.0,0.0,0.0,0.0,0.0,0.0,0.0,0.0,0.0,0.0,0.0,0.0,0.0,0.0,0.0,0.0,0.0,0.0,0.0,0.0,0.0,0.0,0.0,0.0,0.0,0.0,0.0,0.0,0.0,4.2925,4.275,4.5178,4.7566,4.9092,4.9822,5.0224,5.0402,4.9986,5.0211,5.1546,5.1944,5.2292,5.2518,5.2686,5.2686,5.2405,5.174,5.1383,5.1387,5.0701,5.0164,4.9762,4.9762,4.9533,4.9132,4.9132,4.9132,4.9132,4.9132,4.9132,4.9132,4.9132,4.9132,4.9025,4.7909,4.746,4.7442,4.7471,4.7445,4.7358,1.968,2.0429,2.1141,2.1896,2.2623,2.3171,2.346,2.4837,2.738,3.1599,3.4488,3.7901,4.2541,4.4392,4.5193,4.4835,4.4059,4.2467,3.992,3.7645,3.7192,3.8935,0.0,4.4483,4.6893,4.747,4.8176,4.9,4.7664,4.7579,4.8658,4.8114,4.8162,4.8692,4.8692,4.806,4.7042,4.7042,4.5937,4.4157,4.3423,4.1209,3.83,3.7533,3.6239,3.4722,3.4005,3.3755,3.3517,3.1919,0.0,0.0,0.0,0.0,0.0,0.0,0.0,0.0,0.0,0.0,0.0,0.0,0.0,0.0,0.0,0.0,0.0,0.0,0.0,0.0,0.0,0.0,0.0,0.0,4.2012,4.6338,4.796,4.8411,4.9376,5.1597,5.1719,5.1744,5.2005,5.1572,5.1395,5.1788,5.2061,5.2109,5.1837,5.2078,5.1903,5.1258,5.0684,5.0426,5.0426,4.9894,4.959,4.959,4.959,4.959,4.959,4.959,4.959,0.0,4.959,4.959,4.959,4.959,4.959,0.0,0.0,0.0,0.0,0.0,4.7952,4.7692,2.0982,2.1289,2.1844,2.3534,2.3819,2.4025,2.4581,2.6271,2.9188,3.4063,3.6658,3.991,4.4769,4.5244,4.5138,4.4978,4.2463,4.004,3.8093,3.6518,3.7437,4.1423,4.2351,4.4414,4.8018,4.8407,4.9146,5.0265,4.9553,4.9336,4.9556,4.9009,4.8514,4.81,4.8073,4.7665,4.6988,4.6906,4.5818,4.4148,4.4096,4.2317,3.9685,3.9685,3.8674,3.7257,3.7257,3.692,3.6465,3.6356,0.0,0.0,0.0,0.0,0.0,0.0,0.0,0.0,0.0,0.0,0.0,0.0,0.0,0.0,0.0,0.0,0.0,0.0,0.0,0.0,0.0,0.0,0.0,0.0,4.4415,4.7552,5.0663,5.0178,5.0019,5.1342,5.1394,5.16,5.2182,5.2158,5.2061,5.2061,5.2624,5.2341,5.0939,0.0,0.0,0.0,0.0,4.959,4.959,4.959,4.9615,4.969,4.969,4.9723,4.9794,4.9794,4.9794,4.9794,4.9794,4.9794,4.9794,4.9794,4.9794,4.9762,4.9647,4.959,4.959,4.959,4.9647,4.9705,2.3031,2.3517,2.4175,2.5053,2.5214,2.5212,2.5168,2.5943,2.8798,3.5059,3.5894,3.8329,4.4682,4.4463,4.3456,4.2398,4.0977,3.9458,3.796,3.9379,4.1429,4.3988,4.6161,4.813,4.9858,4.8934,4.8762,4.9422,4.7755,4.7733,4.9266,4.8711,4.899,4.9913,4.9886,4.9222,4.8075,4.757,4.6256,4.4491,4.4035,4.27,4.095,4.095,4.1333,4.1901,4.1901,4.2192,4.2402,4.1641,3.9935,3.7896,3.6635,3.3578,0.0,0.0,0.0,0.0,0.0,0.0,0.0,0.0,0.0,0.0,0.0,0.0,0.0,0.0,0.0,0.0,0.0,0.0,0.0,4.2097,4.6217,4.9359,4.9317,4.9112,4.9746,5.1938,5.155,5.1118,5.1239,5.0571,5.0149,5.0149,5.0251,5.0213,4.9894,4.997,4.9918,4.9622,4.959,4.959,4.959,4.959,4.9816,5.0268,0.0,0.0,5.0978,5.0978,5.0978,5.0978,5.0978,5.0978,5.0978,5.0978,5.0978,5.0863,4.9967,4.959,4.959,4.959,4.9877,5.0254,2.4956,2.5094,2.5214,2.5543,2.6153,2.6404,2.5897,2.695,2.9428,3.3891,3.4528,3.6445,4.1412,4.0813,3.9671,3.8789,3.7834,3.7371,3.7491,3.9718,4.2268,4.5038,4.6644,4.7959,4.9114,4.8795,4.884,4.9405,4.8154,4.8058,4.8968,4.8433,4.8514,4.914,4.917,4.8785,4.815,4.7842,4.6985,4.5819,4.5543,4.479,4.3636,4.2283,4.2541,4.3624,4.3309,4.3835,4.4575,4.4115,4.314,4.1801,3.9934,3.7725,3.5292,0.0,0.0,0.0,0.0,0.0,0.0,0.0,0.0,0.0,0.0,0.0,0.0,0.0,0.0,3.7356,0.0,0.0,4.4112,4.4241,4.7215,4.9424,4.9215,4.922,4.9641,5.0865,5.0575,5.0281,5.0281,4.9863,4.959,4.959,4.959,4.9715,4.9992,5.0017,5.0142,5.0419,5.0444,5.0444,5.0444,5.0444,5.0569,5.0845,5.083,5.1021,5.1309,5.1305,5.1306,5.1306,5.1306,5.1306,5.1306,5.1306,5.1306,5.1214,5.0655,5.0453,5.0438,5.0464,5.0631,5.0864,2.6405,2.6363,2.6171,2.6171,2.7093,2.7534,2.674,2.7997,2.9944,3.2417,3.3165,3.4654,3.7792,3.7159,3.6166,3.5331,3.543,3.6056,0.0,3.9848,4.266,4.5673,4.6326,4.7129,4.8209,4.8686,4.9195,4.959,4.9195,4.8969,4.8944,4.846,4.8234,4.8234,4.8234,4.8234,4.8234,4.8134,4.7832,4.74,4.7299,4.6998,4.6376,4.4044,4.3734,4.4457,4.3961,4.4123,4.4644,4.5198,4.4945,4.4135,4.2523,4.1517,4.0125,3.5849,3.5029,0.0,0.0,0.0,0.0,0.0,0.0,0.0,0.0,0.0,3.7763,3.9245,4.0375,4.1267,4.1725,4.3593,4.541,4.6446,4.803,4.9321,4.9841,4.9916,4.9916,4.9916,4.9816,4.9791,4.9916,4.9916,4.9916,4.9916,4.9916,5.0117,5.0569,5.0569,5.0795,5.1272,5.1306,5.1306,5.1306,5.1306,5.1348,5.1448,5.1464,5.1513,5.1613,5.1613,5.1615,5.1615,5.1615,5.1615,5.1615,5.1733,5.1767,5.1792,5.1911,5.1942,5.1871,5.1476,5.1413,5.1554,2.6584,2.75,2.8278,2.8278,2.8397,2.8338,2.7876,2.7983,2.9196,3.2142,3.2353,3.3382,3.6476,3.6435,3.541,3.3567,3.6476,3.8291,3.7939,4.1804,4.4966,4.6848,4.7425,4.8259,4.9389,4.9464,4.954,4.959,4.954,4.9515,4.9515,4.9439,4.9414,4.9414,4.9414,4.9414,4.9364,4.8919,4.8667,4.8535,4.8033,4.7782,4.7657,4.6848,4.6366,4.6061,4.5956,4.4485,4.2915,4.562,4.4494,4.2518,4.5385,4.4089,4.1302,4.0254,3.7835,3.5207,3.3897,3.4899,3.6381,3.6758,3.8014,3.9396,0.0,0.0,4.0978,4.1683,4.2688,4.3441,4.3504,4.533,4.7029,4.7643,4.9145,5.0444,5.1054,5.1096,5.1096,5.1096,5.0645,5.0519,5.1046,5.1096,5.1096,5.1096,5.1096,5.1155,5.1205,5.1197,5.1222,5.1306,5.1306,5.1306,5.1306,5.1306,5.1523,5.2026,5.1992,5.2268,5.271,5.2726,5.2717,5.2717,5.2717,5.2717,5.2776,5.3252,5.3431,5.3466,5.4003,5.421,5.4006,5.2023,5.1894,5.2453,2.7692,2.8218,2.8846,2.9594,2.9314,2.8771,2.8084,2.8333,2.8941,3.0015,3.0485,3.1334,3.2947,3.2566,3.1935,3.1236,3.47,3.7236,3.7965,4.213,4.5468,4.7475,4.7782,4.8435,4.9565,4.959,4.959,4.959,4.959,4.959,4.959,4.959,4.959,4.959,4.959,4.959,4.959,4.9339,4.9296,4.9238,4.8987,4.8887,4.8862,4.8636,4.8435,4.7883,4.5296,4.2964,0.0,4.3767,4.2901,4.151,4.5374,4.4209,4.1388,4.1157,3.9119,3.7287,3.8793,3.922,3.9546,4.0727,4.1806,4.2685,4.3109,4.3736,4.4669,4.6205,4.7104,4.7738,4.8094,4.8932,4.9633,0.0,5.0478,5.0996,5.1247,5.1306,5.1431,5.1724,5.1548,5.1373,5.1331,5.1306,5.1306,5.1306,5.1306,5.1423,5.1749,5.1749,5.19,5.2226,5.2226,5.2226,5.2226,5.2226,5.2352,5.2578,5.2578,5.2854,5.3381,5.3381,5.3564,5.3884,5.3884,5.3884,5.3909,5.4123,5.4223,5.4135,5.3107,5.2746,5.2779,5.3108,5.2695,5.1908,2.8457,2.8757,2.9205,3.0313,3.0001,2.937,2.8723,2.9053,2.9255,2.8913,2.9641,3.0304,3.0625,3.0038,2.959,2.9554,3.2921,3.5907,3.7889,4.1731,4.5121,4.7782,4.7908,4.8435,4.9565,4.959,4.959,4.959,4.959,4.959,4.959,4.959,4.959,4.959,4.959,4.959,4.959,4.959,4.959,4.959,4.959,4.959,4.959,4.959,4.9113,4.8033,4.4848,4.2255,4.0511,4.1509,4.0492,3.936,4.2881,4.2457,4.0675,4.0826,3.9622,3.8843,4.1555,4.2158,4.2381,4.4091,4.5246,4.602,4.617,4.6853,4.7933,4.969,5.0368,5.0753,5.1228,5.1305,5.1339,5.1506,5.1498,5.1548,5.1724,5.185,5.2101,5.2503,5.2678,5.2628,5.226,5.2051,5.195,5.195,5.2135,5.2352,5.2754,5.2779,5.2955,5.3356,5.3381,5.3381,5.3381,5.3381,5.3381,5.3381,5.3381,5.3582,5.3934,5.3939,5.4184,5.4578,5.46,5.4581,5.4581,5.4159,5.3964,5.3766,5.1811,5.1006,5.1187,5.2754,5.2256,5.0675,2.8457,2.9129,2.9758,3.0402,3.0368,3.027,3.024,3.0269,3.0133,2.9787,3.0579,3.106,3.0826,3.0404,2.9832,2.9007,3.1993,3.5102,3.7839,4.0678,4.3969,4.7732,4.7908,4.8435,4.9565,4.959,4.959,4.959,4.959,4.959,4.959,4.959,4.959,4.959,4.959,4.959,4.959,4.959,4.959,4.959,4.959,4.959,4.959,4.959,4.7933,4.5598,4.5472,4.3285,4.0348,3.9346,3.7162,3.5259,3.7538,3.8567,3.907,3.9597,3.9346,3.912,4.0275,4.2133,4.4141,4.5824,4.7857,4.959,5.0117,5.0235,5.0469,5.1096,5.1247,5.128,5.1306,5.1306,5.1448,5.2,5.2076,5.2277,5.277,5.3306,5.3632,5.3658,5.4195,5.4522,0.0,5.3959,5.3632,5.3632,5.417,5.4522,5.4522,5.4522,5.4522,5.4547,5.4547,5.4547,5.4547,5.4547,5.4547,5.4547,5.4547,5.4572,5.4572,5.4548,5.4577,5.4602,5.4592,5.4584,5.4461,5.2962,5.2368,5.221,5.0653,5.0023,5.0037,5.0119,4.9724,4.8879,2.9039,2.9458,2.9937,3.0987,3.1129,3.1117,3.1117,3.0658,3.0279,3.0156,3.1267,0.0,0.0,0.0,0.0,0.0,3.1863,3.4048,3.5682,3.9823,4.324,4.5593,4.7506,4.8245,4.7749,4.774,4.7145,4.5952,4.7145,4.774,4.7773,4.9015,4.959,4.959,4.959,4.959,4.959,4.959,4.959,4.959,4.959,4.959,4.9368,4.7297,4.5804,4.4373,0.0,3.7979,3.6601,3.7069,3.5809,3.4697,3.8466,3.8542,3.7186,3.6986,3.8341,4.035,4.2183,4.4288,4.6471,4.8504,4.9891,5.077,5.0946,5.0996,5.1147,5.1724,5.0946,5.0268,5.0645,5.1021,5.1381,5.1523,5.2779,5.3843,5.3984,5.416,5.4321,5.4321,5.4471,0.0,0.0,0.0,0.0,5.4321,5.4496,5.4597,5.4597,5.4597,5.4597,5.4597,5.4597,5.4597,5.4597,5.4597,5.4597,5.4597,5.4974,5.515,5.5114,5.5494,5.5658,5.556,5.4217,5.3607,5.3485,5.1834,5.1158,5.1012,4.9368,4.8737,4.8584,4.7196,4.6533,4.64,2.9428,2.9967,3.0552,3.1361,3.169,0.0,0.0,0.0,0.0,0.0,0.0,0.0,0.0,0.0,0.0,0.0,0.0,3.2842,3.4301,3.7613,4.0527,4.276,4.4421,4.5117,4.4849,4.4216,4.3506,4.2679,4.4489,4.5445,4.5637,4.793,4.8987,4.8987,4.8987,4.9113,4.9289,4.9289,4.8775,4.788,4.7573,4.677,4.5535,4.3476,4.1991,0.0,3.6743,3.4412,3.3212,3.4053,3.368,3.3428,3.6545,3.7161,3.6784,3.7162,3.922,4.2007,4.4819,4.6627,4.8209,5.0218,5.1147,5.1624,5.1825,5.2,5.2251,5.2603,5.1348,5.0243,5.0393,5.0393,5.0426,5.0426,5.1783,5.3039,5.3642,5.3858,5.421,5.4823,5.5074,5.5175,0.0,0.0,0.0,5.4924,5.5074,5.5175,5.5175,5.5175,5.5175,5.5175,5.5175,5.5175,5.5175,5.5175,5.5275,5.544,5.6018,5.6294,5.6294,5.6646,5.6821,5.666,5.457,5.3643,5.3445,5.0787,4.9725,4.9533,4.7727,4.6975,4.685,4.5478,4.498,4.5109,2.9668,3.0658,3.1511,0.0,0.0,0.0,0.0,0.0,0.0,0.0,0.0,0.0,0.0,0.0,0.0,0.0,0.0,0.0,3.3596,3.4327,3.6133,3.9346,3.9145,3.9621,4.1043,3.9447,3.9012,3.9797,4.1643,4.2741,4.3186,4.6167,4.7581,4.7581,4.7581,4.7883,4.8416,4.8416,4.6958,4.4611,4.3753,4.1632,3.8907,3.8631,3.6862,3.4511,3.4522,3.2807,3.0588,3.0638,3.1135,3.1838,3.2541,3.4951,3.7939,4.0098,4.1932,4.407,4.7788,4.8919,4.9396,5.0971,5.18,5.2377,5.2845,5.3406,5.3698,5.3503,5.2268,5.0971,0.0,0.0,4.8843,4.8843,4.9471,5.0494,5.2126,5.277,5.3698,0.0,0.0,0.0,0.0,0.0,0.0,5.5566,0.0,5.6244,5.6244,5.6269,5.6294,5.6294,5.6294,5.6294,5.6294,5.6294,5.6533,5.7035,5.765,5.7901,5.7901,5.7788,5.7725,5.7612,5.5289,5.428,5.3952,4.9708,4.7975,4.7778,4.5842,4.508,4.508,4.508,4.508,4.5082,0.0,0.0,0.0,0.0,0.0,0.0,0.0,0.0,0.0,0.0,0.0,0.0,0.0,0.0,0.0,0.0,0.0,0.0,3.1366,3.3498,3.5255,0.0,0.0,0.0,0.0,0.0,3.6816,3.5714,3.7971,3.9136,3.9278,4.1805,4.2983,4.2983,4.2983,4.3059,4.3209,4.3209,4.2588,4.161,4.1365,4.0555,3.9218,3.686,3.5404,3.4403,3.253,3.1327,3.0663,3.106,3.347,3.6784,3.9421,4.1103,4.2384,4.3815,4.5372,4.6954,4.8416,5.0293,5.1975,5.2402,5.3231,5.4019,5.4145,5.4561,5.4042,5.0787,5.0081,4.8985,4.5594,4.7379,0.0,4.9389,5.2277,0.0,5.563,5.5856,0.0,5.7148,0.0,5.7474,5.7474,5.7474,0.0,0.0,5.6997,5.6784,5.6784,5.7223,5.7474,5.7474,5.7474,5.7474,5.7474,5.7474,5.7549,5.7675,5.7826,5.7901,5.7863,5.6208,5.5429,5.5227,5.1412,4.9759,4.9588,4.7237,4.6319,4.6308,4.6075,4.5949,4.5949,4.5949,4.5949,4.5954,0.0,0.0,0.0,0.0,0.0,0.0,0.0,0.0,0.0,0.0,0.0,0.0,0.0,0.0,0.0,0.0,0.0,0.0,0.0,3.1692,3.2796,3.3348,0.0,0.0,0.0,0.0,3.3153,3.2794,3.4718,3.5866,3.6365,3.8748,3.9847,3.9847,3.9847,3.9997,4.0249,4.0249,3.9409,0.0,0.0,3.6501,3.4797,3.2959,3.237,3.2315,3.1159,3.2102,3.4123,3.5881,3.814,4.0601,4.2961,4.4242,4.5271,4.7104,4.8485,4.9665,5.1004,5.2452,5.3658,5.3658,5.4285,5.452,5.2826,5.2883,5.203,4.7643,4.6953,4.626,4.3586,4.6258,4.8862,0.0,0.0,0.0,5.6168,5.6319,5.6721,0.0,5.7901,0.0,5.7901,5.7901,5.7901,0.0,5.76,5.7387,5.7387,5.7725,5.7901,5.7901,5.7901,5.7901,5.7901,5.8127,5.8252,5.8215,5.7537,5.7148,5.7071,5.4862,5.3846,5.3663,0.0,4.8748,4.8609,4.6736,4.5949,4.6012,4.6201,4.6308,4.6308,4.6308,4.6308,4.6308,0.0,0.0,0.0,0.0,0.0,0.0,0.0,0.0,0.0,3.0234,2.934,0.0,0.0,0.0,0.0,0.0,0.0,0.0,0.0,0.0,0.0,0.0,0.0,0.0,0.0,0.0,0.0,3.0838,3.202,3.3047,3.3959,3.6107,3.7136,3.7136,3.7136,3.7412,3.7889,3.7889,3.6554,3.434,3.3599,3.1598,2.9105,0.0,2.9272,2.9827,3.0645,3.4048,3.8642,4.1984,4.3416,4.4019,4.5397,4.6502,4.7782,5.0243,5.1373,5.2251,5.4195,5.4823,5.4924,5.4924,5.5351,5.4694,5.0796,5.0324,4.9319,4.4357,4.3691,4.3688,4.2627,4.5368,4.7908,4.8184,0.0,5.3783,5.5566,5.5842,5.6394,5.7926,5.8102,5.8102,5.8102,5.8102,5.8102,5.8102,5.8102,5.8077,5.8001,5.8077,5.8102,5.8102,5.8102,5.8102,5.8102,5.8579,5.8652,5.8345,5.6882,5.6055,5.5694,5.3456,5.2467,5.2343,5.0125,0.0,4.9005,4.7105,4.6308,4.6308,4.6308,4.6308,4.6308,4.6308,4.6308,4.6308,0.0,0.0,0.0,0.0,0.0,0.0,0.0,0.0,0.0,0.0,2.9768,2.9663,0.0,0.0,0.0,0.0,0.0,0.0,0.0,0.0,0.0,0.0,0.0,0.0,0.0,0.0,0.0,0.0,0.0,3.1083,3.1282,3.2135,3.2541,3.2541,3.2541,3.2591,3.2713,3.2713,3.2168,3.134,3.1208,3.0539,2.9667,2.9633,0.0,0.0,3.2127,3.5301,3.9245,4.2534,4.5497,4.8316,5.1197,5.2277,5.2603,5.3592,5.427,5.4762,5.5175,5.5917,5.6559,5.6559,5.7047,5.6314,5.2018,5.1465,4.9606,4.1594,4.2426,4.3442,3.9711,4.3535,4.7826,4.9658,5.2402,5.5189,5.7775,5.8152,5.8403,0.0,5.9207,5.9207,5.9207,5.9207,0.0,0.0,5.9207,5.9031,5.8604,5.8981,5.9207,5.9207,5.9207,5.9207,5.9207,5.9307,5.8455,5.6629,5.6327,5.5228,5.3415,5.1198,5.0146,5.004,4.7837,0.0,4.6821,4.6444,4.6308,4.6308,4.6308,4.6308,4.6308,4.6308,4.6308,4.6308,0.0,0.0,0.0,0.0,0.0,0.0,0.0,3.0649,3.0165,3.0645,3.0762,3.0337,2.9045,2.9453,2.9804,0.0,0.0,0.0,0.0,0.0,0.0,0.0,0.0,0.0,0.0,0.0,0.0,0.0,0.0,0.0,3.0588,0.0,3.0577,3.0577,3.0577,3.0577,3.0577,3.0577,3.0407,3.0181,3.0181,3.003,2.9829,0.0,0.0,0.0,3.3445,3.6433,4.0023,4.1854,4.5698,5.0167,5.3206,5.4361,5.4737,5.5591,5.6043,5.6319,5.662,5.7072,5.7474,5.7474,5.77,5.6154,4.9534,4.8416,4.6554,3.8679,3.9357,4.0928,3.9695,4.3874,4.7851,4.8937,5.2653,5.5892,5.7223,5.8403,5.9207,5.9458,5.9483,5.9608,5.991,5.9935,6.006,6.0337,6.0362,6.001,5.9156,5.9357,5.9483,5.9483,5.9483,5.9483,5.9483,5.8383,5.7248,5.6168,5.3865,5.2309,5.1418,4.9221,4.8345,4.848,4.7184,0.0,4.6953,4.6719,4.6758,4.6973,4.6973,4.6973,4.6997,4.6988,4.6968,4.699,0.0,0.0,0.0,0.0,0.0,0.0,3.1577,3.0982,3.0891,3.1837,3.1853,3.116,2.9609,2.9779,2.993,0.0,0.0,0.0,0.0,0.0,0.0,0.0,0.0,0.0,0.0,0.0,0.0,0.0,0.0,0.0,0.0,0.0,0.0,0.0,2.9804,2.9804,2.9804,2.9804,2.9804,0.0,0.0,2.9854,0.0,0.0,0.0,0.0,0.0,3.6735,3.9621,4.0901,4.4564,4.9163,5.2051,5.3758,5.4888,5.5831,5.6282,5.6746,5.7801,5.8152,5.8252,5.8252,5.8252,5.5943,4.7307,4.584,4.4221,3.6853,3.7152,3.9111,4.0361,4.4214,4.7355,4.7832,5.1875,5.5265,5.6093,5.7901,5.9282,5.9633,5.9784,0.0,6.0462,6.0512,0.0,6.114,6.119,0.0,5.991,5.9859,5.9859,5.9859,5.9859,5.9601,5.9107,5.7268,5.594,5.5021,5.1368,4.9611,4.9589,4.7729,4.7168,4.7558,4.7226,0.0,0.0,4.7207,4.7266,4.7578,4.7578,4.7603,4.759,4.7612,4.7612,4.7606,0.0,0.0,0.0,0.0,0.0,0.0,3.0486,3.1137,3.185,3.2141,3.263,3.2487,3.1286,3.0783,3.0331,0.0,0.0,0.0,0.0,0.0,0.0,0.0,0.0,0.0,0.0,0.0,0.0,0.0,0.0,0.0,0.0,0.0,0.0,0.0,0.0,0.0,2.9804,2.9804,0.0,0.0,0.0,0.0,0.0,0.0,0.0,0.0,0.0,3.5255,3.6511,4.0072,4.2032,4.3517,4.6778,4.9909,5.2528,5.3096,5.4009,5.5401,5.7951,5.8981,5.9357,5.9357,5.9357,5.7057,4.8354,4.7538,4.6144,3.7531,3.8238,4.0419,4.0563,4.2953,4.5543,4.7581,4.9615,5.2176,5.5717,5.7273,5.8604,6.006,0.0,0.0,6.109,6.1115,6.1115,6.119,6.119,0.0,6.104,6.104,6.104,6.104,6.104,6.0008,5.7911,5.7224,5.5086,5.1355,5.0186,4.8999,4.7814,4.7198,4.7168,4.7578,4.7539,0.0,0.0,4.7539,4.7539,4.7578,4.7578,4.7595,4.7617,4.7597,4.7612,4.7606,0.0,0.0,0.0,0.0,0.0,0.0,3.1179,3.0886,3.1252,3.2986,3.3165,3.2939,3.2462,3.1913,3.1085,2.9905,0.0,0.0,0.0,0.0,0.0,0.0,0.0,0.0,0.0,0.0,0.0,0.0,0.0,0.0,0.0,0.0,0.0,0.0,0.0,0.0,0.0,0.0,0.0,0.0,0.0,0.0,0.0,0.0,0.0,0.0,0.0,0.0,3.6383,3.8567,4.0802,4.2688,4.266,4.4945,4.836,5.2251,5.3708,5.4787,5.8252,5.9332,5.9483,5.9483,5.8252,5.5382,4.8958,4.6908,4.4856,3.9432,3.9546,4.0976,4.2287,4.3415,4.4644,4.62,4.8134,5.0193,5.2402,5.426,5.6244,5.8579,5.9056,5.9859,0.0,0.0,6.1818,6.2144,6.2169,0.0,6.2169,6.1542,6.119,6.119,6.119,6.0076,5.772,5.6165,5.388,5.0893,4.9182,4.8235,4.7949,4.7773,4.793,4.8385,4.8066,0.0,0.0,4.8066,4.8105,4.8385,4.8385,4.8392,4.8359,4.8359,4.8397,4.8376,0.0,0.0,0.0,0.0,0.0,3.0459,3.115,3.0845,3.126,3.3395,3.347,3.3291,3.3115,3.2416,3.1436,3.0156,2.988,0.0,0.0,0.0,0.0,0.0,0.0,0.0,0.0,0.0,2.9804,2.9804,2.9804,0.0,0.0,0.0,0.0,0.0,0.0,0.0,0.0,0.0,0.0,0.0,0.0,0.0,0.0,0.0,0.0,0.0,0.0,0.0,0.0,0.0,0.0,4.1331,4.0074,4.1279,4.4213,4.9665,5.1975,5.3532,5.7273,5.888,5.9483,5.9483,5.7424,5.4181,4.9485,4.6851,4.4425,4.0918,4.0783,4.1769,4.3265,4.3689,4.4116,4.507,4.6803,4.8611,5.0193,5.2051,5.421,5.6846,0.0,5.8604,0.0,6.1868,6.2395,6.2756,6.2781,6.2781,6.2781,6.2094,6.1667,6.1667,6.1014,5.9519,5.7215,5.4819,5.2498,5.0271,4.8464,4.7871,4.8398,4.8262,4.8437,4.8894,4.8535,0.0,0.0,4.8535,4.8574,4.8913,4.8913,4.8913,4.8913,4.8913,4.8913,4.8913,0.0,0.0,0.0,0.0,0.0,0.0,2.9824,3.116,3.2416,3.304,3.3567,3.3696,3.3165,3.2085,3.1185,3.0638,3.0105,0.0,0.0,0.0,0.0,0.0,0.0,0.0,0.0,0.0,2.9804,2.9804,2.9804,2.9804,2.9804,2.9804,0.0,0.0,0.0,0.0,0.0,0.0,0.0,0.0,0.0,0.0,3.2265,0.0,0.0,0.0,0.0,0.0,0.0,0.0,0.0,0.0,0.0,3.9722,4.0526,4.4418,4.7883,5.1172,5.4511,5.7424,5.9483,5.9483,5.7424,5.4245,4.989,4.7938,4.5817,4.1489,4.187,4.2986,4.3014,4.3438,4.3991,4.4514,4.5598,4.728,5.0042,5.1398,5.2929,5.5139,5.6369,5.7663,5.9357,6.1517,6.2781,6.2781,6.2781,0.0,6.2781,6.2781,6.2781,6.2781,6.0528,5.8224,5.5966,5.312,5.0764,4.892,4.8033,4.8073,4.8874,4.8398,4.8437,0.0,0.0,0.0,0.0,4.8894,4.8894,4.8913,4.8913,4.8913,4.8913,4.8913,4.8913,4.8913,0.0,0.0,0.0,0.0,0.0,0.0,3.0306,3.0482,3.1009,3.2315,3.2315,3.2265,3.2466,3.1838,3.1311,3.116,3.0306,0.0,0.0,0.0,0.0,0.0,0.0,0.0,0.0,0.0,2.998,3.0357,3.0357,3.0532,3.0904,3.0532,3.0357,3.0331,0.0,0.0,0.0,0.0,0.0,0.0,0.0,3.229,3.2839,0.0,0.0,0.0,0.0,0.0,0.0,0.0,0.0,0.0,0.0,0.0,0.0,4.1605,4.4443,4.7682,5.0619,5.2628,5.3783,5.3381,5.1498,4.9386,4.7976,4.5645,4.3475,4.2446,4.2354,4.2688,4.3388,4.3391,4.379,4.5497,4.5773,4.6577,4.8962,5.0921,5.3055,5.5641,5.893,6.115,0.0,0.0,6.2781,6.2781,6.2781,6.2781,6.2781,6.2781,6.2781,6.2781,6.0528,5.8205,5.5922,5.342,5.1092,4.8894,4.864,4.864,4.8894,4.8757,4.8776,0.0,0.0,0.0,0.0,4.8913,4.8913,4.8913,4.8913,4.8913,4.8913,4.8913,4.8913,4.8913,0.0,0.0,0.0,0.0,0.0,0.0,0.0,3.0181,3.0457,3.1486,3.1311,3.1311,3.1838,3.1772,3.1778,3.1983,3.1759,0.0,0.0,0.0,0.0,0.0,0.0,0.0,0.0,3.0324,3.052,3.0909,3.0909,3.1286,3.2035,3.1461,3.1266,3.1391,3.0848,3.0694,0.0,0.0,0.0,0.0,3.1989,3.2566,3.3115,0.0,0.0,0.0,0.0,0.0,0.0,0.0,0.0,0.0,0.0,0.0,0.0,0.0,4.1831,4.4267,4.723,4.9314,5.0619,5.0444,4.8403,4.6547,4.6747,4.4392,4.221,4.2333,4.2436,4.2637,4.3115,4.309,4.3564,4.5372,4.5397,4.6225,4.9321,5.0921,5.298,5.6143,5.9469,0.0,0.0,6.2405,6.2781,6.2781,6.2781,6.2781,6.2781,6.2781,6.2781,6.2781,6.0528,5.863,5.722,5.4851,5.2947,5.1486,5.0621,5.0231,5.0185,4.9289,4.8913,0.0,0.0,0.0,0.0,4.8913,4.8913,4.8913,4.8913,4.8913,4.8913,4.8913,4.8913,4.8913,0.0,0.0,0.0,0.0,0.0,0.0,0.0,3.0231,3.0538,3.0538,3.0597,3.0833,3.1332,3.1935,3.2512,3.3058,0.0,0.0,0.0,0.0,0.0,0.0,0.0,0.0,3.1315,3.1349,3.1484,3.1681,3.1726,3.2334,3.3448,3.2866,3.2705,3.2955,3.2412,3.2337,0.0,0.0,0.0,0.0,3.2064,3.2591,0.0,0.0,0.0,0.0,0.0,0.0,0.0,0.0,0.0,0.0,0.0,0.0,0.0,0.0,0.0,0.0,0.0,4.7004,4.9113,4.9558,4.7431,4.5321,4.5849,4.3944,0.0,4.1403,4.2158,4.2763,4.2311,4.2663,4.3391,4.4464,4.469,4.6276,5.067,5.1657,5.3256,5.696,5.8805,0.0,6.0437,6.1878,6.2781,6.2781,6.2781,6.2781,6.2781,6.2781,6.2781,6.2781,6.0678,5.9475,5.9307,5.6982,5.5813,5.5769,5.3638,5.2545,5.2342,5.0139,4.9078,0.0,0.0,0.0,0.0,4.8913,4.8913,4.8913,4.8913,4.8913,4.8913,4.8913,4.8913,4.8913,0.0,0.0,0.0,0.0,0.0,0.0,0.0,0.0,0.0,0.0,3.0624,3.1119,3.123,3.2473,3.3495,0.0,0.0,0.0,0.0,0.0,0.0,0.0,0.0,0.0,3.2272,3.2773,3.3501,3.4457,3.4977,3.5832,3.7,3.6443,3.568,3.478,3.4235,3.3313,0.0,0.0,0.0,0.0,3.2641,3.2964,0.0,0.0,0.0,0.0,3.5307,3.6234,0.0,0.0,0.0,0.0,0.0,0.0,0.0,0.0,3.9798,4.0049,4.0852,0.0,4.3184,4.2883,4.2557,4.2331,0.0,4.1654,4.0978,4.1252,4.1528,4.193,4.2688,4.2914,4.3517,4.502,4.5648,4.7179,5.077,5.4913,5.8529,6.1125,6.1778,6.2054,6.2179,6.2556,6.2781,6.2781,6.2781,6.2781,6.2781,6.2781,6.2781,6.2781,6.2265,6.1118,5.9307,5.6982,5.5813,5.5879,5.5312,5.4125,5.2366,5.1847,5.0575,0.0,0.0,0.0,4.8913,4.8913,4.8913,4.8913,4.8913,4.8913,4.8913,4.8913,4.8913,4.8913,0.0,0.0,0.0,0.0,0.0,0.0,0.0,0.0,0.0,0.0,0.0,3.1847,3.1847,3.3558,0.0,0.0,0.0,0.0,0.0,0.0,0.0,0.0,0.0,3.3705,3.3244,3.3899,3.4751,3.5781,3.6429,3.7529,3.8976,3.838,3.7661,3.6822,3.6186,3.4674,0.0,0.0,0.0,3.2244,3.2864,0.0,0.0,0.0,0.0,0.0,3.7138,3.8287,0.0,3.8936,3.9411,4.0081,0.0,0.0,0.0,0.0,3.9697,3.9697,3.9697,4.03,4.0926,4.0876,4.0901,4.1001,4.1225,4.0876,4.0499,4.0549,4.0951,4.1503,4.2108,4.2836,4.374,4.4895,4.6828,4.9439,5.303,5.6545,5.9483,6.1401,6.1627,6.1953,0.0,6.2781,6.2781,6.2781,6.2781,6.2781,6.2781,6.2781,6.2781,6.2781,6.2781,6.2183,6.0927,5.9649,5.9035,5.9058,5.7949,5.6247,5.3948,5.2902,5.11,0.0,0.0,0.0,4.8913,4.8913,4.8913,4.8913,4.8913,4.8913,4.8913,4.8913,4.8913,4.8913,0.0,0.0,0.0,0.0,0.0,0.0,0.0,0.0,0.0,0.0,0.0,0.0,0.0,0.0,0.0,0.0,0.0,0.0,0.0,0.0,0.0,0.0,0.0,3.5159,3.4407,3.5015,3.5848,3.6842,3.761,3.8871,4.0565,4.016,3.9633,3.8967,3.7824,3.5965,0.0,0.0,3.4046,3.2516,3.3014,0.0,0.0,0.0,0.0,0.0,0.0,0.0,0.0,4.0305,4.0749,4.1533,4.0463,0.0,0.0,0.0,0.0,0.0,3.9798,4.0601,4.1327,4.1102,4.0775,4.06,4.0976,4.07,4.0249,3.9798,4.0549,4.1378,4.1628,4.2908,4.4192,4.4966,4.8504,5.2477,5.6194,5.7826,5.9156,6.0537,6.0674,0.0,6.2656,6.2781,6.2781,6.2781,6.2781,6.2781,6.2781,6.2781,6.2781,6.2781,6.2781,6.2781,6.2781,6.2781,6.2781,6.2781,6.0803,5.846,5.5835,5.3815,5.1462,4.8913,0.0,0.0,4.8913,4.8913,4.8913,4.8913,4.8913,4.8913,4.8913,4.8913,4.8913,4.8913,0.0,0.0,0.0,0.0,0.0,0.0,0.0,0.0,0.0,0.0,0.0,0.0,0.0,0.0,0.0,0.0,0.0,0.0,0.0,0.0,0.0,0.0,3.6148,3.5693,3.6114,3.6722,3.7931,3.9742,4.0994,4.2278,4.3628,4.4113,4.3128,4.085,3.8105,3.6191,3.4964,3.4238,3.3809,3.3646,3.3746,0.0,0.0,0.0,0.0,0.0,0.0,0.0,0.0,4.0639,4.1343,4.2309,4.212,0.0,0.0,0.0,0.0,0.0,4.0249,4.2861,4.4543,4.0852,4.0249,4.0399,4.0023,3.9873,3.9798,3.9722,4.0549,4.1729,4.3162,4.4016,4.5146,4.7079,5.1473,5.5641,5.8579,6.0763,6.2129,6.238,0.0,6.2505,6.2756,6.2781,6.2781,6.2781,6.2781,6.2781,6.2781,6.2781,6.2781,6.2781,6.2781,6.2781,6.2781,6.2781,6.2781,6.2781,6.2429,6.0051,5.5879,5.553,5.2992,4.8913,0.0,4.8913,4.8913,4.8913,4.8913,4.8913,4.8913,4.8913,4.8913,4.8913,4.8913,4.8913,0.0,0.0,0.0,0.0,0.0,0.0,0.0,0.0,0.0,0.0,0.0,0.0,0.0,0.0,0.0,0.0,0.0,0.0,0.0,0.0,0.0,3.8464,3.7584,3.7045,3.6985,3.8332,3.9828,4.1463,4.281,4.3898,4.4805,4.3489,4.2017,4.0412,3.77,3.5875,3.4868,3.4721,3.4915,3.5287,0.0,0.0,0.0,0.0,0.0,0.0,0.0,0.0,0.0,0.0,4.2473,4.3318,4.2297,0.0,0.0,0.0,0.0,0.0,4.1508,4.3359,4.5018,4.4104,4.5116,4.6351,4.6376,4.5924,4.5146,4.3966,4.4088,4.4489,4.4669,4.6125,4.8812,5.3432,5.5114,5.6796,5.9558,6.006,6.0487,0.0,0.0,6.1778,6.2706,6.2781,6.2781,6.2781,6.2781,6.2781,6.2781,6.2781,6.2781,6.2781,6.2781,6.2781,6.2781,6.2781,6.2781,6.2781,6.2781,6.1035,5.7692,5.6443,5.4036,5.0712,0.0,4.8913,4.8913,4.8913,4.8913,4.8913,4.8913,4.8913,4.8913,4.8913,4.8913,4.8913,0.0,0.0,0.0,0.0,0.0,0.0,0.0,0.0,0.0,0.0,0.0,0.0,0.0,0.0,0.0,0.0,0.0,0.0,0.0,0.0,3.8871,3.9391,3.905,3.8691,3.8332,3.9858,4.1373,4.284,4.3988,4.4975,4.5702,4.291,4.1145,4.0158,3.7702,3.5906,3.4789,3.5453,3.6092,3.6707,0.0,0.0,0.0,0.0,0.0,0.0,0.0,0.0,0.0,0.0,0.0,0.0,0.0,0.0,0.0,4.2332,4.232,4.2527,4.2641,4.3942,4.5627,4.7189,4.8502,4.9824,5.1515,0.0,4.9238,4.8429,4.8378,4.8127,4.7054,4.8887,5.2352,5.7851,5.7851,5.8052,6.0523,5.9834,5.9508,6.0724,6.0914,6.1376,6.2656,6.2781,6.2781,6.2781,6.2781,6.2781,6.2781,6.2781,6.2781,6.2781,6.2781,6.2781,6.2781,6.2781,6.2781,6.2781,6.2781,6.1556,5.9222,5.6896,5.461,5.2297,4.9911,4.8913,4.8913,4.8913,4.8913,4.8913,4.8913,4.8913,4.8913,4.8913,4.9269,4.9622,0.0,0.0,0.0,0.0,0.0,0.0,0.0,0.0,0.0,0.0,0.0,0.0,0.0,0.0,0.0,0.0,0.0,0.0,0.0,0.0,3.9361,3.9391,3.9948,4.0516,4.1104,4.1254,4.2271,4.4147,4.4885,4.5873,4.713,4.5012,4.3192,4.1546,3.8998,3.6979,0.0,3.614,3.6743,3.7338,3.84,0.0,0.0,0.0,0.0,0.0,0.0,0.0,0.0,0.0,0.0,0.0,0.0,0.0,4.4238,4.4203,4.3392,4.2586,4.3113,4.5584,4.8029,4.8107,4.5931,4.51,5.0183,4.8887,0.0,5.1046,0.0,5.2142,5.1071,5.2251,5.4059,5.6118,5.8453,6.0638,6.2355,0.0,6.248,6.2606,6.2606,6.2656,6.2781,6.2781,6.2781,6.2781,6.2781,6.2781,6.2781,6.2781,6.2781,6.2781,6.2781,6.2781,6.2781,6.2781,6.2781,6.2781,6.2781,6.1556,5.9222,5.6896,5.4544,5.2297,4.9911,4.8913,4.8913,4.8913,4.8913,4.8913,4.8913,4.8913,4.8913,4.8913,5.0272,5.1825,0.0,0.0,0.0,0.0,0.0,0.0,0.0,0.0,0.0,0.0,0.0,0.0,0.0,0.0,0.0,0.0,0.0,0.0,0.0,0.0,3.978,4.0606,4.0894,4.1713,4.318,4.321,4.4197,4.6172,4.683,4.7189,4.7228,4.4588,4.2641,4.1232,3.9068,0.0,0.0,0.0,0.0,4.0019,4.0442,4.1072,0.0,0.0,0.0,0.0,0.0,0.0,0.0,0.0,4.3967,4.4326,4.4416,4.4695,4.4891,4.4457,4.4578,4.4901,4.5111,4.7307,4.9516,4.9407,4.8076,4.8325,5.4097,5.4687,5.4436,5.5917,5.6646,0.0,0.0,5.6018,5.7901,5.8202,6.0286,6.2054,6.2706,6.2781,6.2781,6.2781,6.2781,6.2781,6.2781,6.2781,6.2781,6.2781,6.2781,6.2781,6.2781,6.2781,6.2781,6.2781,6.2781,6.2781,6.2781,6.2781,6.2781,6.2781,6.2781,6.2347,6.1408,5.9053,5.7498,5.6484,5.2724,5.1055,5.0964,4.9518,4.8913,4.9032,5.0484,5.1982,5.3257,5.3221,5.2848,5.2451,0.0,0.0,0.0,0.0,0.0,0.0,0.0,0.0,0.0,0.0,0.0,0.0,0.0,0.0,0.0,0.0,0.0,0.0,3.8362,3.902,4.0008,4.1343,4.1403,4.2421,4.4586,4.4616,4.5373,4.6958,4.7668,4.7758,4.7258,4.4752,4.2961,4.1787,0.0,0.0,0.0,0.0,0.0,0.0,4.2096,4.2344,0.0,0.0,0.0,0.0,0.0,0.0,0.0,0.0,4.3788,4.4027,4.4207,4.4715,4.5214,4.4766,4.5723,4.6783,4.6113,4.759,4.9404,4.9687,4.964,5.0986,5.6648,5.7499,5.7775,6.006,6.0111,5.9182,5.7298,0.0,5.9935,5.9558,6.1366,6.2781,6.2781,6.2781,6.2781,6.2781,6.2781,6.2781,6.2781,6.2781,6.2857,6.3099,6.3057,6.3057,0.0,6.3057,6.3023,6.2807,6.2781,6.2781,6.2781,6.2781,6.2781,6.2781,6.2781,6.2781,6.2741,6.0362,5.9307,5.9096,5.5202,5.3504,5.3327,5.1757,5.0666,5.0185,5.1757,5.2947,5.3769,5.4449,5.3748,5.2514,0.0,0.0,0.0,0.0,0.0,0.0,0.0,0.0,0.0,0.0,0.0,0.0,0.0,0.0,0.0,0.0,0.0,0.0,3.838,3.902,4.0008,4.1343,4.1403,4.2631,4.5214,4.5274,4.5633,4.63,4.6958,4.7309,4.7279,4.5933,4.4723,0.0,0.0,0.0,0.0,0.0,0.0,0.0,4.3127,4.3309,4.329,0.0,0.0,0.0,0.0,0.0,0.0,0.0,4.3848,4.3648,4.5642,4.5822,4.5304,4.5304,4.6711,4.783,4.5704,4.6182,4.7557,4.8718,4.9905,5.2024,5.685,5.5767,5.5792,6.3014,6.2245,6.0337,6.0311,5.9885,0.0,5.9483,6.1366,6.2781,6.2781,6.2781,6.2781,6.2781,6.2781,6.2781,6.2781,6.2781,6.3073,6.3651,6.3701,6.3701,0.0,6.3701,6.3425,6.2807,6.2781,6.2781,6.2781,6.2781,6.2781,6.2781,6.2781,6.2781,6.2741,6.0403,5.9307,5.9222,5.6919,5.5879,5.5856,5.5879,5.4477,5.2431,5.2431,5.0964,4.9262,5.1597,5.2397,5.1985,0.0,0.0,0.0,0.0,0.0,0.0,0.0,0.0,0.0,0.0,0.0,0.0,0.0,0.0,0.0,0.0,0.0,0.0,3.8657,3.9201,3.9881,4.0673,4.1164,4.2162,4.3848,4.4825,4.5873,4.6988,4.7219,4.7309,4.7279,4.5933,0.0,0.0,0.0,0.0,0.0,0.0,0.0,0.0,4.3936,4.3728,4.3349,0.0,0.0,0.0,0.0,0.0,0.0,0.0,0.0,0.0,4.4566,4.5095,4.5394,4.5873,4.677,4.7461,4.6807,4.9329,5.1861,5.0621,5.3355,5.6779,5.8618,5.8378,5.883,6.2546,6.2345,6.114,5.996,6.0889,0.0,5.9759,6.1366,6.2781,6.2781,6.2781,6.2781,6.2781,6.2781,6.2781,6.2781,6.2781,6.3073,6.3651,6.3701,0.0,0.0,6.3877,6.3626,6.345,6.3007,6.2781,6.2781,6.2781,6.2781,6.2781,6.2781,6.2781,6.2781,6.2076,6.1763,6.1639,5.9288,5.8266,5.8011,5.4763,5.3036,5.2431,5.2431,5.2992,5.3947,5.4938,5.4235,5.2949,0.0,0.0,0.0,0.0,0.0,0.0,0.0,0.0,0.0,0.0,4.0836,4.0979,0.0,0.0,0.0,0.0,0.0,0.0,3.9628,3.9848,4.029,4.0855,4.1472,4.2641,4.4426,4.5523,4.6501,4.7309,4.7018,4.704,4.7279,0.0,0.0,0.0,0.0,0.0,0.0,0.0,0.0,0.0,4.4706,4.4466,4.4147,0.0,0.0,0.0,0.0,0.0,0.0,0.0,0.0,0.0,4.4865,4.5373,4.5873,4.683,4.8117,4.925,4.9132,5.1932,5.4801,5.4408,5.6682,5.9307,6.0537,6.0989,6.1492,6.2556,6.2531,6.2019,6.1014,6.1918,0.0,6.104,6.1903,6.2781,6.2781,6.2781,6.2781,6.2781,6.2781,6.2781,6.2781,6.2781,6.3073,6.3651,6.3877,0.0,0.0,6.4094,6.3802,6.3375,6.2998,6.2781,6.2781,6.2781,6.2781,6.2781,6.2781,6.2781,6.2781,6.2781,6.2781,6.2741,6.1284,6.0678,6.0403,5.668,5.4588,5.3792,5.3792,5.408,5.4543,5.4564,5.3917,5.3017,0.0,0.0,0.0,0.0,0.0,0.0,0.0,0.0,0.0,4.1862,4.2433,4.2844,0.0,0.0,0.0,4.2285,4.2188,4.1772,4.0974,4.0806,4.0955,4.1467,4.2198,4.3708,4.6151,4.689,4.7219,4.7219,4.66,4.6629,0.0,0.0,0.0,0.0,0.0,0.0,0.0,0.0,0.0,0.0,4.5304,4.5304,4.5304,4.5304,0.0,0.0,0.0,0.0,0.0,0.0,0.0,0.0,4.6091,4.63,4.654,4.7818,5.0097,5.2145,5.1961,5.4069,5.6866,5.9117,5.9825,6.0462,6.2405,6.3274,6.345,6.2832,6.2756,6.2781,6.2781,6.2832,6.2857,6.2807,6.2832,6.2857,6.2807,6.2781,6.2781,6.2781,6.2781,6.2781,6.2781,6.2781,6.3073,6.3651,6.4128,0.0,6.3852,6.4228,6.4028,6.3032,6.2907,6.2857,6.2857,6.2807,6.2781,6.2781,6.2781,6.2781,6.2781,6.2781,6.2781,6.2781,6.2781,6.2725,6.2381,6.0267,5.8084,5.6013,5.5772,5.4366,5.2476,5.1794,5.2093,5.2371,0.0,0.0,0.0,0.0,0.0,0.0,0.0,0.0,4.1461,4.3375,4.2756,4.2671,4.3968,4.3604,0.0,4.3991,4.3452,4.2499,4.1067,4.0912,4.0795,4.0655,4.2738,4.4407,4.5484,4.6151,4.651,4.651,4.636,4.6629,0.0,0.0,0.0,0.0,0.0,0.0,0.0,0.0,0.0,0.0,0.0,4.5304,4.5304,4.5304,4.5633,0.0,0.0,0.0,0.0,0.0,0.0,0.0,4.6091,4.63,4.645,4.7279,4.9666,5.2025,5.1979,5.5704,5.9817,6.0763,6.2211,6.3466,6.3475,6.3249,6.2847,6.2295,6.2521,6.2781,6.2781,6.3199,6.335,6.2857,6.3199,6.335,6.2857,6.2781,6.2781,6.2781,6.2781,6.2781,6.2781,6.2781,6.3073,6.3651,6.3802,0.0,6.4906,6.4697,6.4597,6.4756,6.3952,6.35,6.35,6.3048,6.2781,0.0,6.2781,6.2781,6.2781,6.2781,6.2781,6.2781,6.2781,6.2035,6.0694,6.0204,5.8872,5.6954,5.4644,5.3686,5.3263,5.1268,5.0829,5.1169,0.0,0.0,0.0,0.0,0.0,0.0,0.0,0.0,4.3779,4.4642,4.4432,4.4524,4.546,4.4567,0.0,0.0,4.3626,4.2702,4.1116,4.1579,4.2023,4.2269,4.3898,4.5244,4.6232,4.6621,4.6779,4.6779,4.6779,4.6958,0.0,0.0,0.0,0.0,0.0,0.0,0.0,0.0,0.0,0.0,0.0,0.0,4.5783,4.5783,4.6001,4.6211,4.5523,0.0,0.0,0.0,0.0,0.0,0.0,0.0,4.6958,4.7967,5.0076,5.2491,5.4307,5.7901,6.1367,6.2572,6.3722,6.4295,6.345,6.3048,6.2781,6.2822,6.3048,6.3249,6.3249,6.3701,6.3977,6.3676,6.3877,6.3952,6.3651,6.3601,6.3601,6.3601,6.3601,6.3601,6.3601,6.3601,6.3726,6.4069,6.4053,6.4346,6.4923,6.4672,6.4647,6.4923,6.4354,6.4053,6.4053,6.3751,6.3601,6.3601,6.3601,6.3475,6.3224,6.2907,6.2781,6.2781,6.2781,6.244,6.1866,6.1866,6.0791,5.9041,5.7508,5.633,5.5146,5.2599,5.1976,5.2289,0.0,0.0,0.0,0.0,0.0,0.0,0.0,0.0,0.0,4.5752,4.6081,4.6482,4.6779,4.5345,4.4113,0.0,0.0,0.0,4.1096,4.2078,4.3189,4.4258,4.4945,4.5933,4.7279,4.7309,4.7309,4.7309,4.7309,0.0,0.0,0.0,0.0,0.0,0.0,0.0,0.0,0.0,0.0,0.0,0.0,0.0,0.0,0.0,0.0,4.645,4.633,4.6719,4.7309,4.7309,0.0,0.0,0.0,0.0,4.7519,4.8618,5.057,5.3037,5.6199,5.9357,6.2172,6.4052,6.4496,6.4178,6.3073,6.2857,6.3124,6.3601,6.3701,6.3726,6.3802,6.4295,6.4622,6.4521,6.4597,6.4622,6.4521,6.4496,6.4496,6.4496,6.4496,6.4496,6.4496,6.4496,6.4496,6.4496,6.4496,6.4547,6.4647,6.4547,6.4547,6.4647,6.4471,6.4371,6.4371,6.4371,6.4371,6.4371,6.4371,6.4053,6.3525,6.3149,6.2882,6.2781,6.2781,6.3199,6.3827,6.3827,6.2837,6.1188,6.0718,5.9028,5.6555,5.3792,5.323,5.3487,0.0,0.0,0.0,0.0,0.0,0.0,0.0,0.0,0.0,0.0,4.6151,4.6045,4.6718,4.4857,4.3524,4.3423,4.3389,4.2675,4.1016,0.0,0.0,4.4227,4.4945,4.5933,4.7279,4.7309,4.7309,4.7309,4.7309,0.0,0.0,0.0,0.0,0.0,0.0,0.0,0.0,0.0,0.0,0.0,0.0,0.0,0.0,0.0,0.0,0.0,4.651,4.6719,4.7309,4.7309,4.7309,0.0,0.0,0.0,4.7339,4.7519,5.0096,5.3003,5.3528,5.7862,6.2648,6.413,6.4496,6.4178,6.3073,6.3224,6.3601,6.3676,6.3701,6.3827,6.432,6.4806,6.5032,6.4597,6.4923,6.5007,6.4572,6.4496,6.4496,6.4496,6.4496,6.4496,6.4496,6.4496,6.4496,6.4496,6.4496,6.4722,6.5157,6.4773,6.4722,6.5157,6.4279,6.3802,6.3802,6.3802,6.3802,6.3802,6.3802,6.35,6.2948,6.3375,6.3299,6.2781,6.2781,6.3425,6.4396,6.4396,6.357,6.2041,5.9496,5.7228,5.5048,5.2182,5.1418,5.1738,0.0,0.0,0.0,0.0,0.0,0.0,0.0,0.0,0.0,0.0,0.0,4.6447,4.6752,4.5176,4.391,4.3457,4.2967,4.2488,4.1924,4.1602,4.2252,4.4207,4.4945,4.5753,4.6719,4.713,4.7309,4.7309,0.0,0.0,0.0,4.7668,4.7668,0.0,0.0,0.0,0.0,0.0,0.0,0.0,0.0,4.6971,0.0,0.0,0.0,0.0,0.0,4.6719,4.7309,4.7309,4.7309,4.7309,4.7309,0.0,0.0,0.0,4.9261,5.2217,5.5782,5.9541,6.2755,6.4165,6.4496,6.4295,6.35,6.35,6.3852,6.4454,6.458,6.4655,6.4881,6.5383,6.566,6.5434,6.5584,6.566,6.5434,6.5383,6.5383,6.5383,6.5383,6.5383,6.5383,6.5383,6.5383,6.5383,6.5107,6.5157,6.571,6.5233,6.5183,6.5735,6.5283,6.4906,6.458,6.458,6.458,6.458,6.458,6.4454,6.4203,6.4153,6.3827,6.3299,6.3299,6.3751,6.4387,6.2753,6.2041,6.1746,5.9132,5.6875,5.4963,5.365,5.243,5.1377,0.0,0.0,0.0,0.0,0.0,0.0,0.0,0.0,0.0,0.0,0.0,4.68,4.68,0.0,0.0,0.0,4.2437,4.2278,4.2448,4.1777,4.2192,4.3967,4.4855,4.5603,4.63,4.6779,4.713,4.7309,0.0,0.0,4.7578,4.8079,4.8117,0.0,4.7638,0.0,0.0,0.0,0.0,0.0,4.7259,4.8958,0.0,0.0,0.0,0.0,4.8283,0.0,4.7945,4.7489,4.7309,4.7309,4.7309,4.7309,0.0,0.0,0.0,5.1232,5.6943,5.9444,6.098,6.321,6.3729,6.3692,6.3676,6.3902,6.4329,6.5132,6.5409,6.5484,6.5484,6.5835,6.6112,6.6112,6.6112,6.6112,6.6112,6.6112,6.6112,6.6112,6.6112,6.6112,6.6112,6.6112,6.6112,6.6112,6.5735,6.5685,6.6086,6.5584,6.5484,6.5886,6.576,6.5484,6.5082,6.5208,6.5283,6.5283,6.5283,6.5208,6.5082,6.4848,6.4379,6.3877,6.3751,6.3686,6.3429,6.1122,5.998,5.9429,5.7692,5.5724,5.3838,5.3846,5.2747,5.1241,0.0,0.0,0.0,0.0,0.0,0.0,0.0,0.0,0.0,0.0,0.0,4.68,4.68,4.5481,4.3707,4.1498,4.1851,4.2067,4.1783,4.1534,4.1983,4.329,4.4616,0.0,4.63,4.633,4.6659,0.0,0.0,0.0,4.8259,4.8267,4.8618,4.9179,4.8528,4.7489,4.6241,0.0,0.0,0.0,0.0,5.0299,0.0,0.0,0.0,0.0,0.0,0.0,0.0,4.7916,4.7309,4.7309,0.0,0.0,0.0,0.0,0.0,0.0,5.4164,5.5126,5.6094,6.0692,6.162,6.1768,6.3324,6.4479,6.5233,6.5283,6.571,6.6061,6.6061,6.6086,6.6112,6.6112,6.6112,6.6112,6.6112,6.6112,6.6112,6.6112,6.6112,6.6112,6.6112,6.6112,6.6112,6.6112,6.6086,6.6086,6.6112,6.5584,6.5308,6.5333,6.4873,6.4572,6.4547,6.5074,6.5283,6.5283,6.5283,6.5007,6.4572,6.5032,6.4999,6.4446,6.3902,6.2732,6.1135,6.0481,5.7826,5.4206,5.4062,5.2579,5.0444,5.0464,5.0623,5.0852,0.0,0.0,0.0,0.0,0.0,0.0,0.0,0.0,0.0,0.0,0.0,0.0,0.0,0.0,0.0,4.2708,0.0,0.0,0.0,4.1832,4.2601,4.3878,4.4825,4.5603,4.63,4.6719,0.0,0.0,0.0,4.7189,4.7668,4.8087,4.8438,4.8648,4.8409,4.7788,4.6929,4.6929,0.0,0.0,0.0,0.0,0.0,0.0,0.0,0.0,0.0,0.0,0.0,0.0,0.0,0.0,0.0,0.0,0.0,0.0,4.8588,5.0027,5.3444,5.4189,5.4824,5.8158,5.956,6.0437,6.1768,6.3475,6.4957,6.566,6.5986,6.6112,6.6112,6.6112,6.6112,6.6112,6.6112,6.6112,6.6112,6.6112,6.6112,6.6112,6.6112,6.6112,6.6112,6.6112,6.6112,6.6112,6.6112,6.6112,6.6112,6.5936,6.581,6.581,6.5634,6.5358,6.5007,6.5183,6.5283,6.5283,6.566,6.571,6.5509,6.5358,6.5183,6.4889,6.2486,6.1218,6.0699,5.8337,5.6088,5.3944,5.2186,5.1146,5.0605,5.0877,5.0925,5.0838,0.0,0.0,0.0,0.0,0.0,0.0,0.0,0.0,0.0,0.0,0.0,0.0,0.0,0.0,0.0,0.0,4.2296,4.1724,4.2021,4.2661,4.3439,4.4267,4.5155,4.5822,4.63,0.0,0.0,0.0,0.0,0.0,0.0,0.0,4.8438,4.8618,4.8409,4.8027,0.0,0.0,0.0,4.707,0.0,0.0,5.6025,0.0,0.0,0.0,0.0,0.0,0.0,0.0,0.0,0.0,0.0,0.0,0.0,0.0,0.0,4.9687,5.1535,5.2044,5.2699,5.5478,5.6575,5.7801,6.0788,6.2596,6.4103,6.576,6.6112,6.6112,6.6112,6.6112,6.6112,6.6112,6.6112,6.6112,6.6112,6.6112,6.6112,6.6112,6.6112,6.6112,6.6112,6.6112,6.6112,6.6112,0.0,0.0,6.6112,6.6112,6.6112,6.6112,6.6112,6.5936,6.5559,6.5559,6.5559,6.5559,6.5936,6.6112,6.6086,6.5735,6.495,6.3718,6.1633,6.0277,5.9389,5.6175,5.4113,5.2719,5.0917,5.0351,5.0625,5.0916,5.0903,5.0846,0.0,0.0,0.0,0.0,0.0,0.0,0.0,0.0,0.0,0.0,0.0,0.0,0.0,0.0,0.0,0.0,4.2322,4.2013,4.325,4.3967,4.4326,4.4356,0.0,0.0,0.0,0.0,0.0,0.0,0.0,0.0,0.0,0.0,4.8618,0.0,4.8588,4.8319,4.8349,0.0,4.8528,4.7941,0.0,5.6979,5.633,0.0,0.0,0.0,5.7085,5.6131,0.0,0.0,0.0,0.0,0.0,0.0,0.0,0.0,0.0,0.0,0.0,0.0,0.0,5.2536,5.2635,5.3733,6.0236,6.1768,6.2621,6.5409,6.5986,6.6011,6.6086,6.6112,6.6112,6.6112,6.6112,6.6112,6.6112,6.6112,6.6112,6.6112,6.6112,6.6112,6.6112,6.6112,6.6112,6.6112,6.6112,6.6112,6.6112,6.6112,6.6112,6.6112,6.6112,6.6112,6.6112,6.6112,6.6112,6.6112,6.6112,6.6112,6.6112,6.6,6.4149,6.1034,6.1248,5.9791,5.7,5.4201,5.1944,5.0215,5.0195,5.0195,5.0223,5.0244,5.0483,5.0783,0.0,0.0,0.0,0.0,0.0,5.1928,5.1725,5.1251,0.0,0.0,0.0,0.0,0.0,0.0,0.0,0.0,4.3468,4.3658,4.3997,4.4646,4.5244,4.5732,4.6091,4.654,0.0,0.0,0.0,0.0,0.0,0.0,0.0,0.0,0.0,0.0,4.8379,4.8319,4.8319,4.8498,0.0,0.0,5.4845,5.7456,0.0,0.0,0.0,0.0,0.0,6.1522,0.0,0.0,5.7372,5.3473,0.0,0.0,0.0,0.0,0.0,0.0,4.7538,0.0,0.0,0.0,0.0,0.0,5.4135,5.6394,5.883,6.2395,6.3149,6.3751,6.5735,6.6112,6.6112,6.6112,6.6112,6.6112,6.6112,6.6112,6.6112,6.6112,6.6112,6.6112,6.6112,6.6112,6.6112,0.0,6.6112,6.6112,6.6112,6.6112,6.6112,6.6112,6.6112,6.6112,6.6112,6.6112,6.6112,6.6112,6.6112,6.6112,6.6,6.382,6.2301,6.1204,5.7469,5.5565,5.5049,5.3914,5.2483,5.1055,5.0742,5.0634,5.069,5.0975,5.098,5.085,0.0,0.0,5.0685,5.1582,5.2589,5.3247,5.3247,5.2505,5.1626,0.0,0.0,0.0,0.0,0.0,0.0,0.0,4.4925,4.5254,4.5523,4.5933,4.6322,4.6689,4.6719,4.6899,4.7309,0.0,0.0,0.0,0.0,0.0,0.0,0.0,0.0,0.0,0.0,4.8027,4.8319,0.0,0.0,0.0,5.5291,0.0,0.0,6.2512,6.4331,0.0,0.0,0.0,6.2325,6.3367,5.981,0.0,0.0,0.0,0.0,0.0,0.0,0.0,0.0,0.0,0.0,0.0,0.0,0.0,5.3557,5.5566,5.7926,6.2722,6.3726,6.4203,6.581,6.6112,6.6112,6.6112,6.6112,6.6112,6.6112,6.6112,6.6112,6.6112,6.6112,6.6112,6.6112,6.6112,6.6112,6.6112,6.6112,6.6112,6.6112,6.6112,6.6112,6.6112,6.6112,6.6112,6.6112,6.6112,6.6112,6.6112,6.6112,6.557,6.4566,6.2777,6.0746,5.8458,5.55,5.3706,5.2823,5.2741,5.2163,5.1358,5.1172,5.1064,5.1092,5.1308,5.1254,5.1091,0.0,0.0,5.0768,5.148,5.3342,5.4753,5.4837,5.391,5.2957,0.0,0.0,0.0,0.0,0.0,0.0,0.0,0.0,4.6659,4.7279,4.7309,4.7309,4.7309,4.7309,4.7309,4.7309,4.7309,0.0,0.0,0.0,0.0,0.0,0.0,0.0,0.0,4.7369,4.7728,4.8349,4.9157,0.0,4.9592,5.6088,5.8431,0.0,0.0,6.3506,0.0,6.4141,6.3985,6.384,6.5867,6.2858,0.0,0.0,0.0,0.0,0.0,4.7386,0.0,0.0,0.0,0.0,0.0,0.0,0.0,0.0,5.6344,5.7688,6.3475,6.4705,6.4831,6.5132,6.5258,6.5283,6.5283,6.5559,6.5835,6.6086,6.6112,6.6112,6.6112,6.6112,6.6112,6.6112,6.6112,6.6112,6.6112,6.6112,6.6112,6.6112,6.6112,6.6112,6.6112,6.6112,6.6112,6.6112,6.6112,6.6112,6.6112,6.5853,6.4566,6.2469,6.1911,5.9068,5.4574,5.4665,5.3243,5.0898,5.1221,5.1377,5.1377,5.1377,5.1377,5.1377,5.1377,5.1377,5.1377,4.7369,4.9429,5.1433,5.2236,5.4103,5.5683,5.6292,5.5425,5.433,0.0,0.0,0.0,0.0,0.0,0.0,0.0,0.0,0.0,4.7309,4.7309,4.7309,4.7309,4.7309,4.7309,4.7309,4.7309,4.7309,0.0,0.0,0.0,0.0,0.0,0.0,0.0,0.0,4.8199,4.8386,5.0122,0.0,5.3828,5.7303,0.0,6.0507,6.414,6.5529,6.5555,6.5656,6.5631,6.5352,0.0,6.2818,6.0757,0.0,0.0,0.0,0.0,0.0,0.0,0.0,0.0,0.0,0.0,0.0,0.0,0.0,4.9515,5.1348,5.4752,5.5842,5.6821,5.9081,5.9859,6.0122,6.0122,6.1978,6.4061,6.586,6.6112,6.6112,6.6112,6.6112,6.6112,6.6112,6.6112,6.6112,6.6112,6.6112,6.6112,6.6112,6.6112,6.6112,6.6112,6.6112,6.6112,6.6112,6.6112,6.6112,6.6069,6.4104,6.2981,6.238,5.8379,5.597,5.4895,5.2948,5.1803,5.126,5.1358,5.1377,5.1377,5.1377,5.1377,5.1377,5.1377,5.1377,5.1377,4.8319,4.9805,5.1638,5.3361,5.4417,5.549,5.6787,5.5297,0.0,0.0,0.0,0.0,0.0,0.0,0.0,0.0,0.0,0.0,4.7339,4.7309,4.7309,4.7309,4.7309,4.7309,4.7309,4.7309,4.7309,0.0,0.0,0.0,0.0,0.0,0.0,0.0,0.0,0.0,0.0,0.0,5.2653,5.5196,5.8068,0.0,6.2704,6.5499,6.6714,6.6965,6.6965,6.6789,6.6366,6.5101,6.3233,0.0,0.0,5.7765,5.5778,0.0,4.9844,4.9789,0.0,0.0,0.0,4.5397,0.0,0.0,0.0,0.0,5.0971,5.425,5.4963,5.5465,5.7148,5.7663,5.7939,5.8252,6.0824,6.2781,6.2822,6.4705,6.6112,6.6112,6.6112,6.6112,6.6112,6.6112,6.6112,6.6112,6.6112,6.6112,6.6112,6.6112,6.6112,6.6112,6.6112,6.6112,6.6112,6.6112,6.6112,6.6069,6.4895,6.3001,6.0542,5.8057,5.5633,5.318,5.1939,5.1377,5.1377,5.1377,5.1377,5.1377,5.1377,5.1377,5.1377,5.1377,5.1377,5.1377,4.9037,5.0127,5.1722,5.3978,5.4506,5.5193,5.6845,5.5047,0.0,0.0,0.0,0.0,0.0,0.0,0.0,0.0,0.0,0.0,0.0,0.0,4.8865,4.8087,4.7698,4.7608,4.7856,4.7489,4.7309,4.7309,0.0,0.0,0.0,0.0,0.0,0.0,0.0,0.0,0.0,0.0,0.0,5.6706,0.0,6.1567,6.4077,6.6306,6.7342,6.7643,6.7769,6.7593,6.7228,6.6498,0.0,6.1621,6.1172,5.9872,0.0,0.0,0.0,0.0,0.0,0.0,0.0,0.0,0.0,4.7657,0.0,0.0,0.0,0.0,0.0,5.4737,5.5153,5.5329,5.5591,5.6068,0.0,0.0,0.0,6.1943,0.0,6.4806,6.5685,6.6061,6.5534,6.5383,6.5534,6.6061,6.5609,6.5559,6.6086,6.6112,6.6112,6.6112,6.6112,6.6112,6.6112,6.6112,6.6112,6.6069,6.5155,6.2647,5.8768,5.7802,5.5183,5.1377,5.1377,5.1377,5.1377,5.1377,5.1377,5.1377,5.1377,5.1377,5.1377,5.1377,5.1377,5.1377,4.8528,5.0166,5.2011,5.3031,5.443,5.5741,5.6627,5.6123,0.0,0.0,0.0,0.0,0.0,0.0,0.0,0.0,0.0,0.0,5.626,0.0,0.0,5.0907,4.9105,4.8716,4.986,4.8185,4.7309,4.7309,0.0,0.0,0.0,0.0,0.0,0.0,5.2422,0.0,0.0,0.0,5.8267,0.0,6.1328,6.1916,0.0,6.6433,6.7442,6.7141,6.7618,6.807,6.8241,0.0,6.6205,6.47,0.0,6.1711,6.2301,0.0,0.0,0.0,0.0,0.0,0.0,0.0,4.8134,0.0,0.0,0.0,0.0,0.0,0.0,0.0,0.0,0.0,0.0,0.0,0.0,0.0,5.4386,5.6947,5.9182,6.0136,6.4178,6.5911,0.0,6.2747,6.3475,6.5936,6.3852,6.355,6.5986,6.6112,6.6112,6.6112,6.6112,6.6112,6.6112,6.6112,6.6112,6.6069,6.1688,5.9362,5.8676,5.4257,5.1939,5.1377,5.1377,5.1377,5.1377,5.1377,5.1377,5.1377,5.1377,5.1377,5.1377,5.1377,5.1377,5.1377,4.9972,5.0758,5.1895,5.3343,5.3625,5.4227,5.6013,5.618,0.0,0.0,0.0,0.0,0.0,0.0,0.0,0.0,0.0,5.9997,0.0,0.0,0.0,5.1355,4.9703,4.9284,5.0166,4.9075,4.8468,4.8468,4.8468,0.0,0.0,0.0,0.0,0.0,5.446,0.0,5.7567,0.0,5.9611,0.0,0.0,0.0,0.0,6.6729,6.7668,6.7493,6.7719,6.7945,6.8058,0.0,6.5733,0.0,0.0,0.0,0.0,0.0,0.0,0.0,0.0,0.0,0.0,0.0,0.0,0.0,4.7883,0.0,4.7375,0.0,0.0,0.0,0.0,0.0,0.0,0.0,0.0,0.0,0.0,0.0,5.8077,0.0,0.0,0.0,0.0,0.0,0.0,0.0,6.355,6.3199,6.5961,6.6112,6.6112,6.6112,6.6112,6.6112,6.6112,6.6112,6.5397,6.3973,6.1911,5.9454,5.6595,5.4521,5.2768,5.1377,5.1377,5.1377,5.1377,5.1377,5.1377,5.1377,5.1377,5.1377,5.1377,5.1377,5.1377,5.1377,5.1056,0.0,5.1653,5.2994,5.2796,5.3212,5.5453,5.6042,0.0,0.0,0.0,0.0,5.727,5.8617,0.0,0.0,0.0,6.3528,0.0,0.0,5.7749,0.0,5.1672,0.0,0.0,5.0601,4.9486,4.9277,4.9486,4.9636,0.0,0.0,0.0,0.0,0.0,5.8237,6.091,0.0,0.0,6.2713,6.3763,6.4953,6.631,6.7532,6.812,6.8246,6.8246,6.8246,6.8165,6.7909,6.5786,0.0,6.5323,0.0,0.0,0.0,0.0,0.0,5.0293,0.0,0.0,0.0,0.0,0.0,0.0,0.0,0.0,0.0,0.0,0.0,0.0,0.0,0.0,0.0,0.0,0.0,0.0,0.0,0.0,0.0,0.0,0.0,0.0,0.0,0.0,0.0,0.0,6.232,6.6137,6.6187,6.6112,6.6112,6.6112,6.6112,6.6112,6.5415,6.4236,6.2469,6.1127,5.8608,5.5068,5.4426,5.3084,5.1377,5.1377,5.1377,5.1377,5.1377,5.1377,5.1377,5.1377,5.1377,5.1377,5.1377,5.1377,5.1377,5.1056,5.1206,5.1229,5.1276,5.233,5.3618,5.5015,5.5799,0.0,0.0,0.0,0.0,0.0,0.0,0.0,0.0,0.0,7.6155,6.9093,0.0,6.5503,0.0,0.0,5.4221,0.0,5.315,4.989,4.9277,4.989,5.0518,0.0,0.0,0.0,0.0,0.0,5.9806,6.155,6.2859,6.4964,6.738,6.6284,6.7727,7.0455,0.0,6.8879,6.9356,6.9356,0.0,0.0,6.8161,6.7328,0.0,0.0,0.0,0.0,0.0,0.0,0.0,0.0,0.0,0.0,4.9899,0.0,0.0,0.0,0.0,4.8592,0.0,0.0,0.0,0.0,0.0,0.0,0.0,0.0,0.0,0.0,0.0,0.0,0.0,0.0,0.0,0.0,0.0,0.0,0.0,0.0,0.0,6.6632,6.6413,6.6112,6.6112,6.6112,6.6112,6.6112,6.3798,6.2558,6.2425,5.7641,5.5235,5.5021,5.2624,5.1474,5.1377,5.1377,5.1377,5.1377,5.1377,5.1377,5.1377,5.1377,5.1377,5.1377,5.1377,5.1377,5.1377,5.1828,5.1858,5.1738,5.1265,5.1588,5.2486,5.4281,5.5807,0.0,0.0,0.0,0.0,0.0,0.0,7.1038,0.0,0.0,7.4121,6.9871,6.8375,0.0,0.0,0.0,5.6795,0.0,0.0,5.2755,5.2546,5.2306,5.2306,5.2546,0.0,0.0,0.0,0.0,6.1485,0.0,0.0,0.0,0.0,0.0,6.8,6.8878,0.0,0.0,7.0255,6.9643,6.9406,0.0,6.8985,6.7501,6.5941,6.6501,6.4617,6.2208,6.2255,6.1617,0.0,0.0,0.0,6.0537,5.4647,0.0,0.0,0.0,0.0,0.0,0.0,0.0,0.0,0.0,0.0,0.0,0.0,0.0,0.0,0.0,0.0,0.0,0.0,0.0,0.0,0.0,0.0,0.0,0.0,0.0,0.0,0.0,6.6589,6.6513,6.6112,6.6112,6.5329,6.3754,6.2936,6.0857,5.7595,5.5894,5.4236,5.2624,5.1794,5.1377,5.1377,5.1377,5.1377,5.1377,5.1377,5.1377,5.1377,5.1377,5.1377,5.1377,5.1377,5.1377,5.1377,5.2606,5.2546,5.2426,5.2007,5.2516,5.3503,0.0,0.0,0.0,0.0,6.5203,0.0,6.9991,0.0,7.304,0.0,7.5796,7.4719,7.0859,7.05,0.0,6.7865,6.3498,0.0,0.0,0.0,0.0,5.7004,5.5359,5.4606,5.4606,5.5029,0.0,0.0,0.0,6.2316,6.5425,6.5963,6.736,0.0,0.0,6.8972,0.0,0.0,6.9742,7.0049,0.0,6.9983,7.0003,6.9803,6.8547,6.7267,6.8522,6.6269,6.3601,6.5258,6.4329,6.2521,6.1542,6.3224,0.0,5.8504,5.873,0.0,5.3231,0.0,0.0,0.0,0.0,0.0,0.0,0.0,0.0,0.0,0.0,0.0,0.0,0.0,0.0,0.0,0.0,0.0,0.0,0.0,0.0,0.0,0.0,0.0,0.0,0.0,6.6589,6.6438,6.5409,6.4061,6.2514,6.0767,5.8287,5.5115,5.4189,5.294,5.1377,5.1377,5.1377,5.1377,5.1377,5.1377,5.1377,5.1377,5.1377,5.1377,5.1377,5.1377,5.1377,5.1377,5.1377,5.1377,5.3438,5.3378,5.3438,5.3408,5.4965,0.0,0.0,0.0,6.1942,0.0,6.667,6.9125,7.1218,7.4809,7.7018,7.6988,7.9327,0.0,7.2565,7.3975,0.0,0.0,7.1188,7.167,7.4993,0.0,0.0,0.0,5.886,5.7184,5.7154,5.7154,5.7483,5.8145,5.9488,0.0,6.5953,6.6165,6.8393,7.1608,6.9901,7.0606,7.2461,7.0125,6.9014,6.8987,7.0557,7.1083,7.1008,7.0526,7.035,7.025,6.9632,6.913,6.8848,6.9306,6.9055,6.812,6.5434,6.515,6.4731,6.1391,0.0,0.0,0.0,0.0,5.5717,0.0,0.0,0.0,0.0,0.0,0.0,0.0,0.0,0.0,0.0,0.0,0.0,0.0,0.0,0.0,0.0,0.0,0.0,0.0,0.0,0.0,0.0,0.0,6.6194,6.681,6.4001,6.238,6.2158,5.7456,5.5068,5.4879,5.2567,5.1397,5.1377,5.1397,5.1397,5.1377,5.1377,5.1377,5.1377,5.1377,5.1377,5.1377,5.1377,5.1377,5.1377,5.1377,5.1377,5.1377,5.4845,5.5867,5.6705,5.6166,5.6526,5.7244,0.0,0.0,0.0,0.0,7.1338,7.4061,7.8519,7.9896,8.0315,7.9836,8.0405,0.0,0.0,0.0,0.0,7.7263,7.3492,7.3163,7.6963,6.8974,0.0,6.4994,0.0,5.8351,5.7846,5.7846,5.7935,5.8145,5.9488,6.2431,6.6376,6.6973,6.8235,6.9941,7.1374,7.057,0.0,0.0,7.1241,6.9969,7.0836,7.1083,7.1058,7.0907,7.0857,7.0857,7.0706,7.0556,7.0405,7.0129,6.9953,6.9602,6.8472,6.8572,6.824,6.4831,6.4329,6.3802,0.0,0.0,0.0,0.0,0.0,0.0,0.0,0.0,0.0,0.0,0.0,0.0,0.0,0.0,0.0,0.0,0.0,0.0,0.0,0.0,0.0,0.0,0.0,0.0,0.0,0.0,0.0,6.4235,6.3111,6.0722,5.7039,5.5753,5.4189,5.2354,5.2031,5.1738,5.1397,5.1777,5.1738,5.1377,5.1377,5.1377,5.1377,5.1377,5.1377,5.1377,5.1377,5.1377,5.1377,5.1377,5.1377,5.1377,5.6615,5.8082,5.9281,5.8919,6.1014,0.0,6.2181,0.0,0.0,7.1547,7.3762,0.0,8.0045,8.202,8.2918,8.2559,8.2499,0.0,0.0,0.0,0.0,7.9686,7.8549,7.8968,8.1212,7.5108,0.0,6.9453,0.0,6.1493,5.9401,5.8803,5.8534,5.8593,5.9937,6.2291,6.5354,6.7773,6.9079,6.9629,7.121,7.0994,0.0,7.1439,7.1743,7.1385,7.1704,7.1811,7.1761,7.1535,7.1435,7.141,7.1158,7.1083,7.1033,7.0752,7.0501,7.025,6.9878,7.0029,6.9848,6.7989,6.7869,6.7493,6.4404,6.3768,6.3375,0.0,0.0,0.0,0.0,0.0,0.0,0.0,0.0,0.0,0.0,0.0,0.0,0.0,0.0,0.0,0.0,0.0,0.0,0.0,0.0,0.0,0.0,0.0,0.0,6.218,6.1451,5.9129,5.5141,5.4131,5.2909,5.1397,5.1875,5.1855,5.1397,5.1875,5.1836,5.1377,5.1377,5.1377,5.1377,5.1377,5.1377,5.1377,5.1377,5.1377,5.1377,5.1377,5.1377,5.1377,5.8833,6.0298,6.1584,6.1523,0.0,0.0,0.0,6.6878,0.0,7.3159,0.0,7.7412,7.9357,8.2649,8.4714,8.4714,0.0,8.3517,8.0644,8.3128,8.3696,8.1422,8.4055,8.5464,8.5248,8.2023,0.0,0.0,0.0,0.0,6.1046,5.9817,5.9219,5.9279,6.0535,6.2232,6.442,6.867,7.0296,7.0146,7.0511,7.1583,7.2737,7.1185,7.1485,7.2693,7.2693,7.2693,7.2618,7.2188,7.2012,7.1937,7.146,7.1309,7.1284,7.1209,7.0857,7.0501,7.035,7.03,7.03,7.0225,7.0556,7.0355,6.7989,6.7511,6.6815,6.4404,6.3475,6.3099,0.0,0.0,0.0,0.0,0.0,0.0,0.0,0.0,0.0,0.0,0.0,0.0,0.0,0.0,0.0,0.0,0.0,0.0,0.0,0.0,0.0,6.0729,5.9841,5.7886,5.4774,0.0,5.1741,5.1479,5.1963,5.1933,5.1523,5.1973,5.1914,5.1494,5.1445,5.1377,5.1377,5.1377,5.1377,5.1377,5.1377,5.1377,5.1377,5.1377,5.1377,5.1377,0.0,0.0,0.0,0.0,0.0,7.0772,7.3017,7.4599,7.6305,7.834,7.9866,8.1512,8.3457,8.4295,8.4714,8.4714,8.4714,0.0,0.0,0.0,0.0,8.4055,8.4564,8.4249,8.2825,7.9497,7.5788,0.0,0.0,0.0,6.1104,6.0296,5.9907,5.9937,6.0745,6.3495,6.7689,7.0181,0.0,7.0788,7.2202,7.2006,7.0928,7.1901,7.2464,7.2693,7.2693,7.2693,7.2668,7.2568,7.259,7.2517,7.2464,7.2439,7.2339,7.1887,7.1686,7.141,7.0551,7.03,7.02,6.9702,7.0003,7.0325,6.9848,7.0074,7.0229,6.9727,6.92,6.8039,6.5333,0.0,0.0,0.0,0.0,0.0,0.0,0.0,0.0,0.0,0.0,0.0,0.0,0.0,0.0,0.0,0.0,0.0,0.0,0.0,0.0,0.0,6.02,0.0,0.0,0.0,5.1963,5.1728,5.2329,5.2383,5.1973,5.2402,5.2374,5.1952,5.1562,5.1377,5.1377,5.1377,5.1377,5.1377,5.1377,5.1377,5.1377,5.1377,5.1377,5.1377,0.0,0.0,0.0,0.0,0.0,0.0,0.0,8.0794,0.0,8.0554,8.1183,8.214,8.3098,8.4714,8.5731,8.5731,8.5731,8.5731,8.5731,8.5731,8.5731,8.5731,8.4574,0.0,8.2713,8.0229,7.6447,7.1394,0.0,0.0,6.1104,6.0057,5.9578,5.9673,6.1821,6.43,6.7067,0.0,0.0,7.0667,7.2309,7.241,7.1636,7.2439,7.2693,7.2693,7.2693,7.2693,7.2693,7.2693,7.2693,7.2693,7.2693,7.2693,7.2643,7.2414,7.2138,7.1786,7.1259,7.0752,7.025,6.9928,7.0079,7.03,7.03,7.0727,7.1083,7.1083,7.0857,6.9546,6.5627,6.0426,0.0,0.0,0.0,0.0,0.0,0.0,0.0,0.0,0.0,0.0,0.0,0.0,0.0,0.0,0.0,0.0,0.0,0.0,0.0,0.0,0.0,0.0,0.0,0.0,0.0,5.1618,5.2364,5.248,5.2109,5.2754,5.2787,5.241,5.1952,5.1766,5.1766,5.1513,5.1377,5.1377,5.1377,5.1377,5.1377,5.1377,5.1377,5.1377,0.0,6.8676,0.0,0.0,7.5407,0.0,8.0704,8.4714,8.618,8.2529,8.2499,8.2866,8.2866,8.5171,8.6728,8.6728,8.6728,8.6728,8.6728,8.6728,8.65,8.5961,8.4182,8.2757,8.1732,8.0498,7.7033,0.0,0.0,0.0,0.0,6.0253,5.9838,6.0521,6.2911,0.0,0.0,0.0,7.0906,7.0901,7.2193,7.2693,7.2693,7.2693,7.2693,7.2693,7.2693,7.2693,7.2693,7.2693,7.2693,7.2693,7.2693,7.2693,7.2693,7.2693,7.2414,7.2062,7.1937,7.1259,7.0627,7.0501,7.0401,7.03,7.03,7.0652,7.0907,7.0907,7.1008,6.9752,6.5476,6.2386,0.0,0.0,0.0,0.0,0.0,0.0,0.0,0.0,0.0,0.0,0.0,0.0,0.0,0.0,0.0,0.0,0.0,0.0,0.0,0.0,0.0,5.7411,5.5094,0.0,5.179,5.1641,5.2365,5.2578,5.2383,5.3077,5.3229,5.2827,5.2314,5.204,5.1903,5.1562,5.1377,5.1377,5.1377,5.1377,5.1377,5.1377,5.1377,5.1377,0.0,0.0,0.0,0.0,0.0,0.0,8.1392,8.4594,8.6668,8.6219,8.6219,8.6249,8.6249,8.6549,8.6728,8.6728,8.6728,8.6728,8.6728,8.6728,8.5761,8.3617,8.3299,8.1222,7.6956,7.7206,7.5391,0.0,0.0,0.0,0.0,6.188,6.2292,0.0,0.0,0.0,0.0,7.0458,7.1196,7.2523,7.2637,7.2693,7.2693,7.2693,7.2693,7.2693,7.2693,7.2693,7.2693,7.2693,7.2693,7.2693,7.2693,7.2693,7.2693,7.2693,7.2643,7.2539,7.2037,7.1836,7.1636,7.1133,7.0677,7.03,7.03,7.035,7.0376,7.0376,7.0778,6.9878,6.5936,6.576,6.4856,0.0,0.0,0.0,0.0,0.0,0.0,0.0,0.0,0.0,0.0,0.0,0.0,0.0,0.0,0.0,0.0,0.0,0.0,5.9854,0.0,5.5109,5.2375,5.2197,5.2188,5.2394,5.2576,5.2891,5.3292,5.3343,5.3398,5.3309,5.2453,5.1835,5.1445,5.1445,5.1377,5.1377,5.1377,5.1377,5.1377,5.1377,5.1377,5.1377,0.0,0.0,0.0,0.0,0.0,0.0,0.0,8.4662,8.5097,8.6539,8.6728,8.6728,8.6728,8.6728,8.6728,8.6728,8.6728,8.6728,8.6728,8.5369,8.4182,8.3215,8.0494,7.8135,7.6215,7.5425,7.3733,0.0,0.0,0.0,0.0,6.2113,6.3409,0.0,0.0,6.8837,7.0731,7.1821,7.2437,7.2693,7.2693,7.2693,7.2693,7.2693,7.2693,7.2693,7.2693,7.2693,7.2693,7.2693,7.2693,7.2693,7.2693,7.2693,7.2693,7.2693,7.2693,7.2643,7.2464,7.2163,7.1861,7.1636,7.1158,7.0702,7.0376,7.03,7.03,7.03,7.0476,7.025,6.8999,6.6965,6.5702,0.0,0.0,0.0,0.0,0.0,0.0,0.0,0.0,0.0,0.0,0.0,0.0,0.0,0.0,0.0,0.0,0.0,0.0,5.9045,0.0,5.5468,5.458,5.2652,5.1902,5.2263,5.2562,5.2949,5.341,5.3664,5.3617,5.3331,5.2719,5.2225,5.1815,5.1513,5.1377,5.1377,5.1377,5.1377,5.1377,5.1377,5.1377,5.1377,8.0906,0.0,8.0345,0.0,8.1264,8.0893,8.6191,8.517,8.457,8.6987,8.7297,8.7147,8.6758,8.6728,8.6728,8.6728,8.6728,8.642,8.5721,8.4141,8.2561,8.1222,7.7957,0.0,7.5172,7.3965,7.2969,7.2147,6.8669,0.0,0.0,6.3648,6.492,0.0,6.9645,7.0529,7.1362,7.2749,7.3092,7.2693,7.2693,7.2693,7.2693,7.2693,7.2693,7.2693,7.2693,7.2693,7.2693,7.2693,7.2693,7.2693,7.2693,7.2693,7.2693,7.2693,7.2693,7.2693,7.2693,7.2439,7.2138,7.2138,7.1736,7.1184,7.0677,7.0426,7.03,7.03,7.03,7.0476,7.0983,6.8441,6.6833,6.8723,0.0,0.0,0.0,0.0,0.0,0.0,0.0,0.0,0.0,0.0,0.0,0.0,0.0,0.0,0.0,0.0,0.0,0.0,0.0,0.0,0.0,5.2532,5.1719,5.2266,5.2558,5.3008,5.3574,5.3887,5.378,5.337,5.3062,5.265,5.2225,5.1903,5.1766,5.1766,5.163,5.163,5.1581,5.1445,5.1377,5.1377,8.3269,8.211,8.202,8.594,8.3548,8.2547,8.7026,8.6154,8.5865,8.8349,8.8663,8.8155,8.6848,8.6728,8.6728,8.6728,8.6728,8.5721,8.341,8.3215,8.1137,0.0,0.0,7.5126,7.2762,7.274,7.3268,7.4347,0.0,0.0,7.1574,6.7223,6.7305,7.1044,6.8805,6.9974,7.3541,7.2966,7.2693,7.2693,7.2693,7.2693,7.2693,7.2693,7.2693,7.2693,7.2693,7.2693,7.2693,7.2693,7.2693,7.2693,7.2693,7.2693,7.2693,7.2693,7.2693,7.2693,7.2693,7.2668,7.2668,7.2668,7.2313,7.1761,7.1209,7.0702,7.03,7.03,7.03,7.0476,7.0983,7.0652,6.9345,6.6614,0.0,0.0,0.0,0.0,0.0,0.0,0.0,5.8001,6.233,0.0,0.0,0.0,0.0,0.0,0.0,0.0,0.0,5.5505,5.3015,0.0,5.1049,5.126,5.1855,5.2695,5.2715,5.3164,5.3972,5.3972,5.378,5.3428,5.3408,5.3147,5.2684,5.2684,5.2684,5.2615,5.2225,5.2088,5.204,5.1562,5.1377,5.1377,8.6988,8.6599,8.6569,8.7826,8.5739,8.4906,8.7921,8.6518,8.5978,8.8379,8.8693,8.8514,8.8095,8.8035,8.8035,0.0,8.6503,8.5213,0.0,8.1053,7.8381,7.6894,7.4877,7.3465,7.2715,7.2693,7.3092,7.3845,0.0,0.0,0.0,6.8177,6.9441,7.2775,7.2091,7.2213,7.2991,7.2768,7.2693,7.2693,7.2693,7.2693,7.2693,7.2693,7.2693,7.2693,7.2693,7.2693,7.2693,7.2693,7.2693,7.2693,7.2693,7.2693,7.2693,7.2693,7.2693,7.2693,7.2693,7.2693,7.2693,7.2693,7.2542,7.2313,7.1761,7.0932,7.02,6.9777,6.9702,6.9978,7.0907,7.0677,7.0149,6.9577,6.9476,0.0,0.0,0.0,0.0,0.0,0.0,5.9168,0.0,5.5466,0.0,0.0,0.0,0.0,0.0,0.0,0.0,0.0,5.316,0.0,5.155,5.1765,5.2148,5.2715,5.3008,5.3457,5.3972,5.3972,5.3902,5.378,5.3498,5.3328,5.3153,5.2823,5.2684,5.2684,5.2545,5.2504,5.2433,5.2051,5.1894,5.1836,8.8693,8.8693,8.8693,8.8693,8.6911,8.6314,8.8696,8.725,8.6705,8.9095,8.9412,8.9054,8.8167,8.8054,0.0,8.7375,8.5075,8.3254,8.2423,7.9235,7.7019,7.6114,7.4302,7.3268,7.3067,7.3067,0.0,7.3594,7.1384,7.0355,7.048,7.048,7.1585,7.3594,7.3368,7.3192,7.3042,7.2768,7.2818,7.3042,7.2768,7.2866,7.3042,7.2768,7.2818,7.3016,7.2768,7.2866,7.3016,7.2791,7.2693,7.2693,7.2693,7.2693,7.2693,7.2693,7.2693,7.2693,7.2693,7.2693,7.2693,7.2693,7.2693,7.259,7.2037,7.0882,6.9928,6.9777,6.9556,6.9682,7.0606,7.033,7.0129,7.0727,7.0029,6.918,6.8553,0.0,0.0,0.0,0.0,0.0,0.0,5.7596,0.0,0.0,0.0,0.0,0.0,0.0,0.0,5.4741,5.3294,0.0,5.1944,5.2065,5.2383,5.2949,5.3398,5.375,5.3972,5.3972,5.3972,5.3972,5.371,5.3639,5.362,5.3306,5.3166,5.3166,5.3025,5.2958,5.2885,5.2479,5.2305,5.2266,8.8316,8.8427,8.858,0.0,8.738,0.0,8.9482,8.8305,8.7928,9.0127,9.0252,8.9281,8.6975,8.6583,8.6009,8.472,0.0,0.0,0.0,7.7856,7.6757,7.457,7.4423,7.4171,7.3669,7.3619,7.3569,7.3544,7.4096,7.4071,7.3544,7.3544,7.3544,7.3519,7.2966,7.3042,7.3494,7.2966,7.3067,7.3544,7.2966,7.3067,7.3544,7.2991,7.3117,7.3519,7.2991,7.3142,7.3519,7.2869,7.2693,7.2693,7.2693,7.2718,7.2743,7.2743,7.2718,7.2693,7.2743,7.2718,7.2693,7.2693,7.2693,7.259,7.2037,7.0635,6.9657,7.02,6.9828,6.9556,7.02,6.9853,6.9677,7.0225,6.9702,6.8703,6.7191,0.0,0.0,0.0,0.0,0.0,0.0,6.0948,6.0938,0.0,0.0,0.0,0.0,0.0,5.1616,5.5762,5.349,5.2148,5.2129,5.2148,5.2578,5.3468,5.3828,5.3972,5.3972,5.3972,5.3972,5.3972,5.3972,5.3972,5.3972,5.3972,5.3972,5.3972,5.3569,5.3428,5.3377,5.2904,5.275,5.2748,0.0,0.0,8.7419,8.7419,8.8984,9.0459,9.1064,8.958,8.8448,8.8596,8.6918,8.5309,8.4265,8.2511,8.1275,8.0979,8.0422,7.9841,7.9302,7.7135,7.5583,7.505,7.4649,7.4347,7.4222,7.382,7.3368,7.2894,7.3519,7.3494,7.2894,7.2894,7.2894,7.2941,7.2743,7.2768,7.2869,7.2743,7.3067,7.3544,7.2966,7.3067,7.3569,7.3443,7.3468,7.3569,7.3443,7.3468,7.3519,7.2869,7.2693,7.2693,7.2693,7.3042,7.3393,7.3393,7.3067,7.2768,7.3268,7.3067,7.2693,7.2693,7.2693,7.259,7.2037,7.1284,7.0606,7.0376,6.9828,6.9556,7.02,7.02,7.0149,7.03,6.8748,6.7417,6.7041,6.5534,0.0,0.0,6.3099,6.3525,6.4605,6.084,5.8713,0.0,0.0,0.0,0.0,5.3417,5.2904,5.5771,5.4043,5.2891,5.2558,5.2891,5.334,5.3867,5.3933,5.3972,5.3972,5.3972,5.3972,5.3972,5.3972,5.3972,5.3972,5.3972,5.3972,5.3972,5.3902,5.3851,5.3831,5.3377,5.3254,5.3173,8.345,8.4596,8.583,8.604,8.748,8.8578,8.8578,8.7726,8.6926,8.6678,8.5395,8.404,8.2594,8.1254,8.0014,7.8876,7.8314,7.8079,7.8079,7.6513,7.5603,7.5603,7.5327,7.505,7.4751,7.4498,7.4071,7.3494,7.382,7.382,7.3494,7.3494,7.3596,7.3822,7.3571,7.3494,7.3494,7.3242,7.3443,7.392,7.3343,7.3619,7.4322,7.4071,7.4121,7.4322,7.4071,7.3971,7.387,7.3318,7.2941,7.2718,7.3042,7.3343,7.3694,7.4197,7.3946,7.3569,7.3895,7.3569,7.3067,7.2743,7.2539,7.2339,7.2288,7.146,7.0752,7.0702,7.0003,6.9481,6.9828,6.9878,6.9978,7.0275,6.8466,6.7109,6.7317,6.5434,6.4329,6.5107,6.5183,6.5735,6.7066,6.2584,5.9676,5.9853,5.5625,0.0,5.4403,5.3583,5.41,5.6347,5.4243,5.3047,5.3008,5.3437,5.3789,5.3972,5.3972,5.3972,5.3972,5.3972,5.3972,5.3972,5.3972,5.3972,5.3972,5.3972,5.3972,5.3972,5.3972,5.3972,5.3972,5.3761,5.369,5.3651,8.319,8.3504,8.3901,8.4375,8.4867,8.5182,8.5265,8.5048,8.4868,8.4868,8.4491,8.3466,8.1187,8.0942,8.0058,7.7889,7.6833,7.633,7.623,7.6154,7.6104,7.6104,7.6104,7.5829,7.5328,7.5328,7.505,7.4423,7.4498,7.4498,7.4423,7.4423,7.4674,7.5052,7.4623,7.4423,7.4372,7.382,7.3971,7.4473,7.3845,7.4247,7.5152,7.4675,7.4776,7.5127,7.465,7.4548,7.4448,7.3895,7.3343,7.2941,7.3443,7.3644,7.387,7.47,7.4725,7.4523,7.4448,7.3946,7.3368,7.2966,7.2439,7.2163,7.2568,7.151,7.0551,7.0983,7.0204,6.9406,6.9406,6.9406,6.9406,6.9546,6.7989,6.6789,6.7015,0.0,6.5325,6.6833,6.7267,6.7812,6.8634,6.4437,6.1489,6.0948,5.66,5.3828,5.3429,5.3789,5.4822,5.6659,5.4245,5.3086,5.3507,5.3848,5.3972,5.3972,5.3972,5.3972,5.3972,5.3972,5.3972,5.3972,5.3972,5.3972,5.3972,5.3972,5.3972,5.3972,5.3972,5.3972,5.3972,5.3972,5.3972,5.3972,7.911,8.0388,8.1866,8.1924,8.4091,8.6002,8.6451,8.5175,8.4177,8.4177,8.228,8.0422,7.9126,7.8974,7.8595,7.7787,7.7536,7.726,7.6833,7.6355,7.6104,7.6104,7.6104,7.6079,7.5978,7.5978,7.5427,7.4423,7.4826,7.4826,7.4423,7.4423,7.4473,7.4548,7.4448,7.4423,7.4372,7.382,7.4171,7.4976,7.3996,7.4247,7.5177,7.5102,7.5127,7.5177,7.5102,7.5052,7.4976,7.4473,7.392,7.3468,7.3569,7.392,7.4222,7.3946,7.4448,7.4951,7.4548,7.3669,7.2966,7.3368,7.3016,7.2568,7.2668,7.1811,7.0983,7.1058,7.0204,6.9406,6.9406,6.9406,6.8653,6.6438,6.5785,6.5082,6.3735,6.4906,6.6137,6.689,6.8667,6.8656,6.5821,6.3168,6.043,5.7452,5.5195,5.3828,5.3429,5.3789,5.4137,5.4516,5.4051,5.3816,5.3926,5.3953,5.3972,5.3972,5.3972,5.3972,5.3972,5.3972,5.3972,5.3972,5.3972,5.3972,5.3972,5.3972,5.3972,5.3972,5.3972,5.3972,5.3972,5.3972,5.3972,5.3972,7.872,7.9532,8.0517,8.1083,8.2352,8.3365,8.3628,8.2954,8.2393,8.2393,8.1382,8.0449,7.9869,7.962,7.9444,7.9495,7.8666,7.8038,7.7787,7.6959,7.6406,7.6129,7.6104,7.6104,7.6104,7.6104,7.5853,7.5301,7.5552,7.5552,7.5301,7.5301,7.5452,7.5728,7.5427,7.5301,7.5251,7.4397,7.4498,7.5127,7.4372,7.4699,7.5678,7.5678,7.5678,7.5678,7.5678,7.5502,7.5152,7.4901,7.4498,7.4096,7.4372,7.46,7.4875,7.49,7.4849,7.4625,7.4121,7.382,7.3619,7.3594,7.3619,7.3569,7.3268,7.2339,7.1535,7.1535,7.0656,6.9878,6.9878,6.9878,6.9275,6.7392,6.6589,6.6237,6.6319,6.6764,6.6934,6.6675,6.7808,6.7169,6.3474,6.1233,5.9183,5.7368,5.5196,5.3945,5.373,5.3926,5.3972,5.3972,5.3972,5.3972,5.3972,5.3972,5.3972,5.3972,5.3972,5.3972,5.3972,5.3972,5.3972,5.3972,5.3972,5.3972,5.3972,5.3972,5.3972,5.3972,5.3972,5.3972,5.3972,5.3972,5.3972,5.3972,7.9394,7.9695,8.0047,8.0823,8.0974,8.1024,8.1149,8.1227,8.1277,8.1403,8.1403,8.1353,8.1174,8.0825,8.07,8.0948,7.9694,7.8867,7.8741,7.7687,7.6808,7.6129,7.6104,7.6104,7.6104,7.6104,7.6104,7.6104,7.6104,7.6104,7.6104,7.6104,7.6406,7.6858,7.6481,7.638,7.6406,7.5251,7.5126,7.5552,7.4875,7.5176,7.6104,7.6104,7.6029,7.5928,7.6054,7.5703,7.5202,7.5377,7.505,7.4674,7.5052,7.5202,7.5252,7.5603,7.5,7.4197,7.4021,7.3996,7.4021,7.3996,7.4096,7.4146,7.3845,7.2916,7.2087,7.2087,7.1209,7.0501,7.0501,7.0501,6.9999,6.8472,6.7844,6.7623,6.7866,6.7528,6.6822,6.5731,6.5914,6.4834,6.1424,5.9663,5.8298,5.7383,5.5452,5.4277,5.418,5.418,5.4141,5.3992,5.3972,5.3972,5.3972,5.3972,5.3972,5.3972,5.3972,5.3972,5.3972,5.3972,5.3972,5.3972,5.3972,5.3972,5.3972,5.3972,5.3972,5.3972,5.3972,5.3972,5.3972,5.3972,5.3972,5.3972,8.0122,8.0574,8.0873,8.0974,8.0974,8.1149,8.1679,8.1754,8.1955,8.2483,8.2558,8.2332,8.1805,8.1704,8.1503,8.1024,8.0449,7.9871,7.9369,7.8264,7.7159,7.6154,7.6104,7.6104,7.6104,7.6104,7.6104,7.6104,7.6104,7.6104,7.6104,7.6104,7.6406,7.6883,7.6833,7.7109,7.7511,7.6456,7.6305,7.6657,7.5603,7.5527,7.6104,7.6104,7.5728,7.5328,7.5928,7.5703,7.5278,7.5829,7.5628,7.5127,7.5177,7.5202,7.5102,7.4674,7.4121,7.387,7.4801,7.3973,7.317,7.47,7.4372,7.377,7.4247,7.3494,7.2618,7.2618,7.1786,7.1033,7.1033,7.1033,7.0154,6.7518,6.8321,6.7846,6.3948,6.4632,6.5,6.3418,6.3281,6.2294,5.9621,5.9258,5.813,5.5664,5.5319,5.5039,5.4648,5.4629,5.4453,5.3992,5.3972,5.3972,5.3972,5.3972,5.3972,5.3972,5.3972,5.3972,5.3972,5.3972,5.3972,5.3972,5.3972,5.3972,5.3972,5.3972,5.3972,5.3972,5.3972,5.3972,5.3972,5.3972,5.3972,5.3972,8.065,8.1152,8.1629,8.198,8.2056,8.2106,8.2307,8.2332,8.2432,8.2633,8.2737,8.2583,8.2357,8.2031,8.188,8.2031,8.1227,8.0499,7.9921,7.9168,7.7938,7.6179,7.6104,7.6104,7.6104,7.6104,7.6104,7.6104,7.6104,7.6104,7.6104,7.6104,7.6581,7.736,7.7034,7.736,7.8139,7.7034,7.6682,7.6808,7.6055,7.5928,7.6104,7.6104,7.5728,7.5227,7.5477,7.5402,7.5227,7.5477,7.5628,7.5753,7.5753,7.5753,7.5703,7.5502,7.505,7.465,7.5077,7.4224,7.3569,7.4851,7.4876,7.4674,7.4826,7.4071,7.3268,7.3268,7.2364,7.1585,7.1585,7.1585,7.0907,6.8848,6.9602,6.9139,6.5485,6.6085,6.5496,6.1583,6.1329,6.0289,5.7091,5.6981,5.6645,5.5365,5.5058,5.4844,5.4687,5.4433,5.4199,5.3992,5.3972,5.3972,5.3972,5.3972,5.3972,5.3972,5.3972,5.3972,5.3972,5.3972,5.3972,5.3972,5.3972,5.3972,5.3972,5.3972,5.3972,5.3972,5.3972,5.3972,5.3972,5.3972,5.3972,5.3972,8.0898,8.1604,8.2206,8.2662,8.2737,8.2737,8.2737,8.2737,8.2737,8.2737,8.2737,8.2737,8.2737,8.2307,8.2231,8.2633,8.1805,8.1127,8.075,7.9871,7.8465,7.6456,7.6205,7.6104,7.6104,7.6104,7.6104,7.6104,7.6104,7.6104,7.6104,7.6104,7.6607,7.7436,7.7235,7.7662,7.8465,7.7712,7.7385,7.7335,7.6657,7.6355,7.633,7.6179,7.5728,7.5202,7.5202,7.5202,7.5202,7.5202,7.5603,7.6104,7.6104,7.6104,7.6104,7.6104,7.5653,7.5227,7.5452,7.4699,7.4021,7.4751,7.4801,7.4725,7.4901,7.4272,7.3594,7.3594,7.2841,7.2163,7.2163,7.2163,7.1739,7.061,7.0363,6.9298,6.6172,6.5665,6.3969,5.9471,5.9188,5.8382,5.5972,5.5976,5.6015,5.5723,5.5312,5.4961,5.4687,5.4258,5.3972,5.3972,5.3972,5.3972,5.3972,5.3972,5.3972,5.3972,5.3972,5.3972,5.3972,5.3972,5.3972,5.3972,5.3972,5.3972,5.3972,5.3972,5.3972,5.3972,5.3972,5.3972,5.3972,5.3972,5.3972,5.3972,8.0999,8.193,8.2737,8.2737,8.2737,8.2737,8.2737,8.2737,8.2737,8.2737,8.2737,8.2737,8.2737,8.2737,8.2737,8.2737,8.2156,8.1805,8.1805,8.0298,7.8641,7.6959,7.6406,7.6129,7.6129,7.6104,7.6104,7.6104,7.6104,7.6104,7.6104,7.6104,7.6406,7.6908,7.7461,7.8013,7.8515,7.854,7.8515,7.8415,7.7335,7.6883,7.6808,7.633,7.5728,7.5202,7.5177,7.5202,7.5202,7.5177,7.5603,7.6104,7.6104,7.6104,7.6104,7.6104,7.5678,7.5328,7.5953,7.5251,7.4423,7.4423,7.4021,7.3745,7.4297,7.3996,7.3594,7.3594,7.3142,7.2693,7.2693,7.2668,7.2668,7.2668,7.0397,6.7745,6.5059,6.2317,5.9634,5.6936,5.6582,5.6582,5.6582,5.6582,5.6582,5.6582,5.6191,5.5566,5.4726,5.4277,5.3992,5.3972,5.3972,5.3972,5.3972,5.3972,5.3972,5.3972,5.3972,5.3972,5.3972,5.3972,5.3972,5.3972,5.3972,5.3972,5.3972,5.3972,5.3972,5.3972,5.3972,5.3972,5.3972,5.3972,5.3972,5.3972,8.1579,8.2181,8.2737,8.2737,8.2737,8.2737,8.2737,8.2737,8.2737,8.2737,8.2737,8.2737,8.2737,8.2737,8.2737,8.2737,8.2508,8.2231,8.183,8.0298,7.9168,7.8666,7.7712,7.721,7.721,7.6833,7.6682,7.6682,7.628,7.6104,7.6104,7.6104,7.6406,7.6908,7.7461,7.8013,7.854,7.8967,7.8892,7.8439,7.8164,7.7561,7.6858,7.6732,7.6055,7.5152,7.4751,7.4851,7.5127,7.4751,7.5276,7.6104,7.6104,7.6104,7.6104,7.6104,7.5978,7.5753,7.5527,7.5251,7.5075,7.5477,7.4849,7.4322,7.4826,7.4272,7.3594,7.3594,7.3142,7.2693,7.2693,7.1166,6.989,6.989,6.7646,6.4936,6.2214,6.1153,5.9634,5.6936,5.6582,5.6582,5.6582,5.6582,5.6582,5.6582,5.6191,5.5566,5.4726,5.4551,5.4336,5.3992,5.3972,5.3972,5.3972,5.3972,5.3972,5.3972,5.3972,5.3972,5.3972,5.3972,5.3972,5.3972,5.3972,5.3972,5.3972,5.3972,5.3972,5.3972,5.3972,5.3972,5.3972,5.3972,5.3972,5.3972,8.1855,8.2457,8.2934,8.2762,8.2737,8.2737,8.2737,8.2737,8.2737,8.2737,8.2737,8.2737,8.2737,8.2737,8.2737,8.2737,8.2737,8.2533,8.2181,8.1026,8.0348,8.0348,7.9495,7.8616,7.7712,7.736,7.7109,7.6883,7.6581,7.633,7.6104,7.6104,7.628,7.6632,7.736,7.7888,7.8264,7.9043,7.9193,7.8842,7.8616,7.8114,7.7486,7.7034,7.6331,7.5452,7.4699,7.4725,7.5102,7.4598,7.5151,7.6104,7.6104,7.5953,7.5778,7.6029,7.5953,7.5703,7.5603,7.5578,7.5603,7.5703,7.49,7.4121,7.4173,7.3745,7.3242,7.3242,7.2966,7.2693,7.2693,7.0493,6.8676,6.8676,6.5538,6.2522,6.0842,5.9666,5.8414,5.6796,5.6582,5.6582,5.6582,5.6582,5.6504,5.6348,5.6074,5.5644,5.4961,5.4941,5.4805,5.4551,5.4375,5.4289,5.4306,5.4094,5.3972,5.3972,5.3972,5.3972,5.3972,5.3972,5.3972,5.3972,5.3972,5.3972,5.3972,5.3972,5.3972,5.3972,5.3972,5.3972,5.3972,5.3972,5.3972,5.3972,8.2131,8.2809,8.3336,8.2834,8.2708,8.2737,8.2737,8.2737,8.2737,8.2737,8.2737,8.2737,8.2737,8.2737,8.2737,8.2737,8.2737,8.2737,8.2737,8.2131,8.1805,8.1805,8.1302,8.0072,7.8038,7.7913,7.7611,7.7109,7.6959,7.6682,7.6179,7.6129,7.6104,7.6154,7.721,7.7712,7.7762,7.8917,7.9394,7.9344,7.8817,7.8566,7.8415,7.7411,7.6707,7.6029,7.4875,7.4801,7.5177,7.4724,7.5226,7.6104,7.6104,7.5678,7.5278,7.5829,7.5603,7.5276,7.5878,7.6029,7.5903,7.5301,7.4397,7.3519,7.2941,7.2718,7.2693,7.2693,7.2693,7.2621,7.2384,7.0156,6.8285,6.8039,6.365,6.0219,6.0219,5.815,5.6582,5.6582,5.6582,5.6582,5.6582,5.6582,5.6426,5.5963,5.5943,5.5748,5.539,5.5371,5.5351,5.5312,5.4941,5.4725,5.4718,5.4294,5.4011,5.3972,5.3972,5.3972,5.3972,5.3972,5.3972,5.3972,5.3972,5.3972,5.3972,5.3972,5.3972,5.3972,5.3972,5.3972,5.3972,5.3972,5.3972,5.3972,8.3713,8.3612,8.3462,8.3336,8.296,8.2737,8.2737,8.2737,8.2737,8.2737,8.2737,8.2737,8.2737,8.2737,8.2737,8.2737,8.2737,8.2737,8.2737,8.2131,8.1805,8.1805,8.1302,8.0748,8.0323,7.9469,7.8967,7.8842,7.7511,7.6808,7.6732,7.6305,7.6104,7.6154,7.721,7.7712,7.7762,7.8917,7.9394,7.9369,7.9243,7.8917,7.8439,7.8264,7.7561,7.6557,7.5452,7.5427,7.5903,7.5777,7.5903,7.6104,7.6104,7.5678,7.5227,7.5377,7.5025,7.4724,7.5276,7.5427,7.5276,7.4724,7.4423,7.4096,7.3544,7.3067,7.2693,7.2693,7.2693,7.2074,6.9938,6.74,6.4885,6.2705,5.9614,5.7448,5.7448,5.6989,5.6582,5.6582,5.6582,5.6582,5.6582,5.6582,5.6543,5.6445,5.6445,5.625,5.5767,5.5748,5.5644,5.5312,5.5215,5.5032,5.4693,5.4602,5.4375,5.3972,5.3972,5.3972,5.3972,5.3972,5.3972,5.3972,5.3972,5.3972,5.3972,5.3972,5.3972,5.3972,5.3972,5.3972,5.3972,5.3972,5.3972,5.3972,8.3914,8.4085,8.4085,8.3587,8.3261,8.2985,8.2762,8.2737,8.2737,8.2737,8.2737,8.2737,8.2737,8.2737,8.2558,8.2282,8.2508,8.2611,8.2282,8.198,8.193,8.2206,8.1704,8.1528,8.1805,8.0976,8.0298,7.9771,7.8641,7.7787,7.726,7.6757,7.6355,7.6154,7.721,7.7712,7.7762,7.8917,7.9394,7.9394,7.9394,7.9193,7.8917,7.8616,7.7837,7.6733,7.5579,7.5075,7.4999,7.5477,7.5653,7.5653,7.5653,7.5276,7.4801,7.4801,7.4448,7.4197,7.4976,7.5202,7.5052,7.4548,7.4423,7.4197,7.3368,7.2941,7.2693,7.2693,7.2693,7.1859,6.9187,6.6485,6.3774,6.105,5.8362,5.6582,5.6582,5.6582,5.6582,5.6582,5.6582,5.6582,5.6582,5.6582,5.6582,5.6582,5.6582,5.6484,5.625,5.625,5.6152,5.5918,5.5723,5.5508,5.5273,5.5084,5.4771,5.4343,5.4089,5.3972,5.3972,5.3972,5.3972,5.3972,5.3972,5.3972,5.3972,5.3972,5.3972,5.3972,5.3972,5.3972,5.3972,5.3972,5.3972,5.3972,8.3989,8.4567,8.4818,8.3914,8.3688,8.3437,8.2884,8.2863,8.2784,8.2683,8.2737,8.2737,8.2737,8.2583,8.2332,8.1855,8.2156,8.2181,8.1704,8.1679,8.193,8.2508,8.198,8.198,8.2658,8.2106,8.1378,8.0474,7.9746,7.8917,7.7963,7.7335,7.6833,7.6431,7.7385,7.7837,7.7913,7.8942,7.9394,7.9394,7.9394,7.9394,7.9344,7.8842,7.8038,7.7009,7.5929,7.4749,7.3895,7.5,7.5202,7.5077,7.5152,7.4751,7.4272,7.4272,7.387,7.3669,7.465,7.4976,7.4926,7.4423,7.4347,7.4121,7.2944,7.2693,7.2573,7.2122,7.2026,7.1045,6.7892,6.5488,6.3113,6.0375,5.8045,5.6582,5.6582,5.6582,5.6582,5.6582,5.6582,5.6582,5.6582,5.6582,5.6582,5.6582,5.6582,5.6582,5.6582,5.6582,5.6582,5.6582,5.623,5.5996,5.5898,5.558,5.5188,5.4778,5.4399,5.4113,5.3972,5.3972,5.3972,5.3972,5.3972,5.3972,5.3972,5.3972,5.4043,5.4113,5.4113,5.4141,5.4206,5.4206,5.4206,5.4187,8.5496,8.534,8.5069,8.4913,8.4491,8.3989,8.3462,8.3386,8.3211,8.2734,8.2737,8.2737,8.2737,8.2231,8.1905,8.1805,8.1478,8.1227,8.1099,8.1074,8.1378,8.1905,8.1428,8.1629,8.2712,8.2106,8.1729,8.1579,8.0122,7.9319,7.9143,7.8088,7.7561,7.7511,7.8139,7.8415,7.8465,7.9118,7.9394,7.9394,7.9394,7.9394,7.9369,7.9294,7.8867,7.8164,7.7059,7.5653,7.4473,7.5578,7.5301,7.4623,7.5052,7.4523,7.372,7.372,7.3293,7.2991,7.3644,7.4171,7.4397,7.3845,7.4071,7.4121,7.2944,7.2693,7.2026,6.9696,6.9235,6.7672,6.2653,6.139,6.0292,5.7608,5.6829,5.6582,5.6582,5.6582,5.6582,5.6582,5.6582,5.6582,5.6582,5.6582,5.6582,5.6582,5.6582,5.6582,5.6582,5.6582,5.6582,5.6582,5.6523,5.6323,5.5886,5.5861,5.5599,5.5234,5.5155,5.473,5.3972,5.3972,5.3972,5.3972,5.3972,5.3972,5.3972,5.3972,5.4235,5.4589,5.4589,5.4828,5.5137,5.5137,5.5137,5.5078,8.4913,8.5345,8.5496,8.5164,8.4913,8.4567,8.401,8.3688,8.3412,8.316,8.2859,8.2737,8.2737,8.2432,8.2156,8.183,8.1905,8.1679,8.1024,8.125,8.1428,8.1378,8.1152,8.1403,8.2181,8.193,8.1955,8.2282,8.1252,8.0424,7.9821,7.9018,7.8465,7.8164,7.8415,7.8716,7.9018,7.9269,7.9394,7.9394,7.9394,7.9394,7.9394,7.9394,7.9018,7.834,7.6933,7.5552,7.4523,7.5327,7.5075,7.4448,7.465,7.4222,7.3519,7.3217,7.2941,7.2818,7.3443,7.377,7.3971,7.4046,7.3996,7.382,7.3318,7.1796,7.0156,6.8943,6.7498,6.5287,6.1339,6.0583,5.9718,5.7043,5.6582,5.6582,5.6582,5.6582,5.6582,5.6582,5.6582,5.6582,5.6582,5.6582,5.6582,5.6582,5.6582,5.6582,5.6582,5.6582,5.6582,5.6582,5.6582,5.6518,5.6283,5.6283,5.6082,5.5665,5.5665,5.5299,5.473,5.473,5.473,5.471,5.4518,5.4376,5.4376,5.4376,5.4518,5.4738,5.4954,5.5126,5.5326,5.5272,5.5312,5.5273]},{"header":{"parameterUnit":"m.s-1","parameterCategory":1,"la1":30.6,"la2":28.766,"lo1":-90.7593,"lo2":-88.6598,"dx":0.0162,"dy":0.0183,"nx":116,"ny":114,"refTime":"2022-11-18T18:00:00:Z","depth":0,"parameterNumber":3,"parameterNumberName":"V-component_of_WINDS"},"data":[0.0,0.0,0.0,0.0,0.0,0.0,0.0,0.0,0.0,0.0,0.0,0.0,0.0,0.0,0.0,0.0,0.0,0.0,0.0,0.0,0.0,0.0,0.0,0.0,0.0,0.0,0.0,0.0,0.0,0.0,0.0,0.0,0.0,0.0,0.0,0.0,0.0,0.0,0.0,0.0,0.0,0.0,0.0,0.0,0.0,0.0,0.0,0.0,0.0,0.0,0.0,0.0,0.0,0.0,0.0,0.0,0.0,0.0,0.0,0.0,0.0,0.0,0.0,0.0,0.0,0.0,0.0,0.0,0.0,0.0,0.0,0.0,0.0,0.0,0.0,0.0,0.0,0.0,0.0,0.0,0.0,0.0,0.0,0.0,0.0,0.0,0.0,0.0,0.0,0.0,0.0,0.0,0.0,0.0,0.0,0.0,0.0,0.0,0.0,0.0,0.0,0.0,0.0,0.0,0.0,0.0,0.0,0.0,0.0,0.0,0.0,0.0,0.0,0.0,0.0,0.0,0.0,0.0,0.0,0.0,0.0,0.0,0.0,0.0,0.0,0.0,0.0,0.0,0.0,0.0,0.0,0.0,0.0,0.0,0.0,0.0,0.0,0.0,0.0,0.0,0.0,0.0,0.0,0.0,0.0,0.0,0.0,0.0,0.0,0.0,0.0,0.0,0.0,0.0,0.0,0.0,0.0,0.0,0.0,0.0,0.0,0.0,0.0,0.0,0.0,0.0,0.0,0.0,0.0,0.0,0.0,0.0,0.0,0.0,0.0,0.0,0.0,0.0,0.0,0.0,0.0,0.0,0.0,0.0,0.0,0.0,0.0,0.0,0.0,0.0,0.0,0.0,0.0,0.0,0.0,0.0,0.0,0.0,0.0,0.0,0.0,0.0,0.0,0.0,0.0,0.0,0.0,0.0,0.0,0.0,0.0,0.0,0.0,0.0,0.0,0.0,0.0,0.0,0.0,0.0,0.0,0.0,0.0,0.0,0.0,0.0,0.0,0.0,0.0,0.0,0.0,0.0,0.0,0.0,0.0,0.0,0.0,0.0,0.0,0.0,0.0,0.0,0.0,0.0,0.0,0.0,0.0,0.0,0.0,0.0,0.0,0.0,0.0,0.0,0.0,0.0,0.0,0.0,0.0,0.0,0.0,0.0,0.0,0.0,0.0,0.0,0.0,0.0,0.0,0.0,0.0,0.0,0.0,0.0,0.0,0.0,0.0,0.0,0.0,0.0,0.0,0.0,0.0,0.0,0.0,0.0,0.0,0.0,0.0,0.0,0.0,0.0,0.0,0.0,0.0,0.0,0.0,0.0,0.0,0.0,0.0,0.0,0.0,0.0,0.0,0.0,0.0,0.0,0.0,0.0,0.0,0.0,0.0,0.0,0.0,0.0,0.0,0.0,0.0,0.0,0.0,0.0,0.0,0.0,0.0,0.0,0.0,0.0,0.0,0.0,0.0,0.0,0.0,0.0,0.0,0.0,0.0,0.0,0.0,0.0,0.0,0.0,0.0,0.0,0.0,0.0,0.0,0.0,0.0,0.0,0.0,0.0,0.0,0.0,0.0,0.0,0.0,0.0,0.0,0.0,0.0,0.0,0.0,0.0,0.0,0.0,0.0,0.0,0.0,0.0,0.0,0.0,0.0,0.0,0.0,0.0,0.0,0.0,0.0,0.0,0.0,0.0,0.0,0.0,0.0,0.0,0.0,0.0,0.0,0.0,0.0,0.0,0.0,0.0,0.0,0.0,0.0,0.0,0.0,0.0,0.0,0.0,0.0,0.0,0.0,0.0,0.0,0.0,0.0,0.0,0.0,0.0,0.0,0.0,0.0,0.0,0.0,0.0,0.0,0.0,0.0,0.0,0.0,0.0,0.0,0.0,0.0,0.0,0.0,0.0,0.0,0.0,0.0,0.0,0.0,0.0,0.0,0.0,0.0,0.0,0.0,0.0,0.0,0.0,0.0,0.0,0.0,0.0,0.0,0.0,0.0,0.0,0.0,0.0,0.0,0.0,0.0,0.0,0.0,0.0,0.0,0.0,0.0,0.0,0.0,0.0,0.0,0.0,0.0,0.0,0.0,0.0,0.0,0.0,0.0,0.0,0.0,0.0,0.0,0.0,0.0,0.0,0.0,0.0,0.0,0.0,0.0,0.0,0.0,0.0,0.0,0.0,0.0,0.0,0.0,0.0,0.0,0.0,0.0,0.0,0.0,0.0,0.0,0.0,0.0,0.0,0.0,0.0,0.0,0.0,0.0,0.0,0.0,0.0,0.0,0.0,0.0,0.0,0.0,0.0,0.0,0.0,0.0,0.0,0.0,0.0,0.0,0.0,0.0,0.0,0.0,0.0,0.0,0.0,0.0,0.0,0.0,0.0,0.0,0.0,0.0,0.0,0.0,0.0,0.0,0.0,0.0,0.0,0.0,0.0,0.0,0.0,0.0,0.0,0.0,0.0,0.0,0.0,0.0,0.0,0.0,0.0,0.0,0.0,0.0,0.0,0.0,0.0,0.0,0.0,0.0,0.0,0.0,0.0,0.0,0.0,0.0,0.0,0.0,0.0,0.0,0.0,0.0,0.0,0.0,0.0,0.0,0.0,0.0,0.0,0.0,0.0,0.0,0.0,0.0,0.0,0.0,0.0,0.0,0.0,0.0,0.0,0.0,0.0,0.0,0.0,0.0,0.0,0.0,0.0,0.0,0.0,0.0,0.0,0.0,0.0,0.0,0.0,0.0,0.0,0.0,0.0,0.0,0.0,0.0,0.0,0.0,0.0,0.0,0.0,0.0,0.0,0.0,0.0,0.0,0.0,0.0,0.0,0.0,0.0,0.0,0.0,0.0,0.0,0.0,0.0,0.0,0.0,0.0,0.0,0.0,0.0,0.0,0.0,0.0,0.0,0.0,0.0,0.0,0.0,0.0,0.0,0.0,0.0,0.0,0.0,0.0,0.0,0.0,0.0,0.0,0.0,0.0,0.0,0.0,0.0,0.0,0.0,0.0,0.0,0.0,0.0,0.0,0.0,0.0,0.0,0.0,0.0,0.0,0.0,0.0,0.0,0.0,0.0,0.0,0.0,0.0,0.0,0.0,0.0,0.0,0.0,0.0,0.0,0.0,0.0,0.0,0.0,0.0,0.0,0.0,0.0,0.0,0.0,0.0,0.0,0.0,0.0,0.0,0.0,0.0,0.0,0.0,0.0,0.0,0.0,0.0,0.0,0.0,0.0,0.0,0.0,0.0,0.0,0.0,0.0,0.0,0.0,0.0,0.0,0.0,0.0,0.0,0.0,0.0,0.0,0.0,0.0,0.0,0.0,0.0,0.0,0.0,0.0,0.0,0.0,0.0,0.0,0.0,0.0,0.0,0.0,0.0,0.0,0.0,0.0,0.0,0.0,0.0,0.0,0.0,0.0,0.0,0.0,0.0,0.0,0.0,0.0,0.0,0.0,0.0,0.0,0.0,0.0,0.0,0.0,0.0,0.0,0.0,0.0,0.0,0.0,0.0,0.0,0.0,0.0,0.0,0.0,0.0,0.0,0.0,0.0,0.0,0.0,0.0,0.0,0.0,0.0,0.0,0.0,0.0,0.0,0.0,0.0,0.0,0.0,0.0,0.0,0.0,0.0,0.0,0.0,0.0,0.0,0.0,0.0,0.0,0.0,0.0,0.0,0.0,0.0,0.0,0.0,0.0,0.0,0.0,0.0,0.0,0.0,0.0,0.0,0.0,0.0,0.0,0.0,0.0,0.0,0.0,0.0,0.0,0.0,0.0,0.0,0.0,0.0,0.0,0.0,0.0,0.0,0.0,0.0,0.0,0.0,0.0,0.0,0.0,0.0,0.0,0.0,0.0,0.0,0.0,0.0,0.0,0.0,0.0,0.0,0.0,0.0,0.0,0.0,0.0,0.0,0.0,0.0,0.0,0.0,0.0,0.0,0.0,0.0,0.0,0.0,0.0,0.0,0.0,0.0,0.0,0.0,0.0,0.0,0.0,0.0,0.0,0.0,0.0,0.0,0.0,0.0,0.0,0.0,0.0,0.0,0.0,0.0,0.0,0.0,0.0,0.0,0.0,0.0,0.0,0.0,0.0,0.0,0.0,0.0,0.0,0.0,0.0,0.0,0.0,0.0,0.0,0.0,0.0,0.0,0.0,0.0,0.0,0.0,0.0,0.0,0.0,0.0,0.0,0.0,0.0,0.0,0.0,0.0,0.0,0.0,0.0,0.0,0.0,0.0,0.0,0.0,0.0,0.0,0.0,0.0,0.0,0.0,0.0,0.0,0.0,0.0,0.0,0.0,0.0,0.0,0.0,0.0,0.0,0.0,0.0,0.0,0.0,0.0,0.0,0.0,0.0,0.0,0.0,0.0,0.0,0.0,0.0,0.0,0.0,0.0,0.0,0.0,0.0,0.0,0.0,0.0,0.0,0.0,0.0,0.0,0.0,0.0,0.0,0.0,0.0,0.0,0.0,0.0,0.0,0.0,0.0,0.0,0.0,0.0,0.0,0.0,0.0,0.0,0.0,0.0,0.0,0.0,0.0,0.0,0.0,0.0,0.0,0.0,0.0,0.0,0.0,0.0,0.0,0.0,0.0,0.0,0.0,0.0,0.0,0.0,0.0,0.0,0.0,0.0,0.0,0.0,0.0,0.0,0.0,0.0,0.0,0.0,0.0,0.0,0.0,0.0,0.0,0.0,0.0,0.0,0.0,0.0,0.0,0.0,0.0,0.0,0.0,0.0,0.0,0.0,0.0,0.0,0.0,0.0,0.0,0.0,0.0,0.0,0.0,0.0,0.0,0.0,0.0,0.0,0.0,0.0,0.0,0.0,0.0,0.0,0.0,0.0,0.0,0.0,0.0,0.0,0.0,0.0,0.0,0.0,0.0,0.0,0.0,0.0,0.0,0.0,0.0,0.0,0.0,0.0,0.0,0.0,0.0,0.0,0.0,0.0,0.0,0.0,0.0,0.0,0.0,0.0,0.0,0.0,0.0,0.0,0.0,0.0,0.0,0.0,0.0,0.0,0.0,0.0,0.0,0.0,0.0,0.0,0.0,0.0,0.0,0.0,0.0,0.0,0.0,0.0,0.0,0.0,0.0,0.0,0.0,0.0,0.0,0.0,0.0,0.0,0.0,0.0,0.0,0.0,0.0,0.0,0.0,0.0,0.0,0.0,0.0,0.0,0.0,0.0,0.0,0.0,0.0,0.0,0.0,0.0,0.0,0.0,0.0,0.0,0.0,0.0,0.0,0.0,0.0,0.0,0.0,0.0,0.0,0.0,0.0,0.0,0.0,0.0,0.0,0.0,0.0,0.0,0.0,0.0,0.0,0.0,0.0,0.0,0.0,0.0,0.0,0.0,0.0,0.0,0.0,0.0,0.0,0.0,0.0,0.0,0.0,0.0,0.0,0.0,0.0,0.0,0.0,0.0,0.0,0.0,0.0,0.0,0.0,0.0,0.0,0.0,0.0,0.0,0.0,0.0,0.0,0.0,0.0,0.0,0.0,0.0,0.0,0.0,0.0,0.0,0.0,0.0,0.0,0.0,0.0,0.0,0.0,0.0,0.0,0.0,0.0,0.0,0.0,0.0,0.0,0.0,0.0,0.0,0.0,0.0,0.0,0.0,0.0,0.0,0.0,0.0,0.0,0.0,0.0,0.0,0.0,0.0,0.0,0.0,0.0,0.0,0.0,0.0,0.0,0.0,0.0,0.0,0.0,0.0,0.0,0.0,0.0,0.0,0.0,0.0,0.0,0.0,0.0,0.0,0.0,0.0,0.0,0.0,0.0,0.0,0.0,0.0,0.0,0.0,0.0,0.0,0.0,0.0,0.0,0.0,0.0,0.0,0.0,0.0,0.0,0.0,0.0,0.0,0.0,0.0,0.0,0.0,0.0,0.0,0.0,0.0,0.0,0.0,0.0,0.0,0.0,0.0,0.0,0.0,0.0,0.0,0.0,0.0,0.0,0.0,0.0,0.0,0.0,0.0,0.0,0.0,0.0,0.0,0.0,0.0,0.0,0.0,0.0,0.0,0.0,0.0,0.0,0.0,0.0,0.0,0.0,0.0,0.0,0.0,0.0,0.0,0.0,0.0,0.0,0.0,2.9379,0.0,0.0,0.0,0.0,0.0,0.0,0.0,0.0,0.0,0.0,0.0,0.0,0.0,0.0,0.0,0.0,0.0,0.0,0.0,0.0,0.0,0.0,0.0,0.0,1.6797,1.651,1.6743,1.5608,0.0,0.0,0.0,0.0,0.0,0.0,0.0,0.0,0.0,1.3594,1.3802,1.4648,1.5571,1.6586,1.6172,1.5555,1.4818,0.0,0.0,0.0,0.0,0.0,0.0,0.0,0.0,0.0,0.0,0.0,0.0,0.0,0.0,0.0,0.0,0.0,0.0,0.0,0.0,0.0,0.0,0.0,0.0,0.0,0.0,0.0,0.0,0.0,0.0,0.0,0.0,0.0,0.0,0.0,0.0,0.0,0.0,0.0,0.0,0.0,0.0,0.0,0.0,0.0,0.0,0.0,0.0,0.0,0.0,0.0,0.0,0.0,0.0,0.0,0.0,0.0,0.0,0.0,0.0,0.0,0.0,0.0,0.0,0.0,0.0,0.0,0.0,0.0,0.0,0.0,3.0681,0.0,0.0,0.0,0.0,0.0,0.0,0.0,0.0,0.0,0.0,0.0,0.0,0.0,0.0,0.0,0.0,0.0,0.0,0.0,0.0,0.0,1.6887,1.7462,1.6995,1.6728,1.696,1.6153,1.57,1.5847,1.4979,0.0,0.0,0.0,0.0,1.3806,1.4222,1.475,1.5331,1.686,1.8381,1.9844,2.0072,1.9251,1.7584,1.7451,0.0,0.0,0.0,0.0,0.0,0.0,0.0,0.0,0.0,0.0,0.0,0.0,0.0,0.0,0.0,0.0,0.0,0.0,0.0,0.0,0.0,0.0,0.0,0.0,0.0,0.0,0.0,0.0,0.0,0.0,0.0,0.0,0.0,0.0,0.0,0.0,0.0,0.0,0.0,0.0,0.0,0.0,0.0,0.0,0.0,0.0,0.0,0.0,0.0,0.0,0.0,0.0,0.0,0.0,0.0,0.0,0.0,0.0,0.0,0.0,0.0,0.0,0.0,3.2396,3.3098,3.3039,3.161,3.1677,3.2918,3.2454,3.2448,3.2745,0.0,0.0,0.0,0.0,0.0,0.0,0.0,0.0,0.0,0.0,0.0,0.0,0.0,0.0,0.0,0.0,0.0,0.0,0.0,0.0,1.7487,1.8028,1.8021,1.8523,1.9977,1.8616,1.7907,1.8395,1.6811,0.0,0.0,0.0,0.0,1.4958,1.5537,1.6343,1.7409,1.9962,2.1504,2.209,2.3158,2.3883,2.4215,2.2179,2.1362,2.1467,0.0,0.0,0.0,0.0,0.0,0.0,0.0,0.0,0.0,0.0,0.0,0.0,0.0,0.0,0.0,0.0,0.0,0.0,0.0,0.0,0.0,0.0,0.0,0.0,0.0,0.0,0.0,0.0,0.0,0.0,0.0,0.0,0.0,0.0,0.0,0.0,0.0,0.0,0.0,0.0,0.0,2.6371,3.0034,0.0,0.0,0.0,0.0,0.0,0.0,0.0,0.0,0.0,0.0,0.0,0.0,0.0,3.5024,3.5073,3.5089,3.5239,3.5511,3.3877,3.3101,3.3144,3.4773,3.5642,3.5841,3.5773,0.0,3.381,3.491,0.0,0.0,0.0,0.0,0.0,0.0,0.0,0.0,0.0,0.0,0.0,0.0,0.0,0.0,0.0,0.0,0.0,0.0,0.0,0.0,0.0,1.9571,2.0437,2.1829,2.1709,2.147,2.1167,1.9975,0.0,0.0,0.0,1.706,1.7115,1.8837,2.0829,2.3019,2.3971,2.5308,2.7023,2.7544,2.8782,3.0551,2.9172,2.7114,2.4572,2.314,0.0,0.0,0.0,0.0,0.0,0.0,0.0,0.0,0.0,0.0,0.0,0.0,0.0,0.0,0.0,0.0,0.0,0.0,0.0,0.0,0.0,0.0,0.0,0.0,0.0,0.0,0.0,0.0,0.0,0.0,0.0,0.0,0.0,0.0,0.0,0.0,0.0,0.0,0.0,2.9663,3.1049,3.3909,3.2629,3.1046,0.0,0.0,0.0,0.0,0.0,0.0,0.0,0.0,0.0,3.3872,3.649,3.8603,4.0105,4.0111,3.9509,3.8266,3.8541,3.8666,3.8592,3.7094,3.7494,3.9631,4.317,4.1125,3.5347,3.5912,3.5878,3.5494,0.0,0.0,0.0,0.0,3.2063,2.997,0.0,0.0,0.0,0.0,0.0,0.0,0.0,0.0,0.0,0.0,0.0,0.0,2.0313,2.1829,2.3158,2.4131,2.4991,2.5016,2.3879,2.2999,2.176,0.0,0.0,1.928,1.9267,2.2352,2.5454,2.853,2.8414,2.9397,3.1395,3.1498,3.2721,3.4866,3.446,3.2006,2.8083,2.6256,2.4296,2.22,0.0,0.0,0.0,0.0,0.0,0.0,0.0,0.0,0.0,0.0,0.0,0.0,0.0,0.0,0.0,0.0,0.0,0.0,0.0,0.0,0.0,0.0,0.0,0.0,0.0,0.0,0.0,0.0,0.0,0.0,0.0,0.0,0.0,0.0,0.0,0.0,0.0,3.3309,3.4875,3.6181,3.4081,3.2653,0.0,0.0,0.0,0.0,0.0,0.0,3.6463,3.7113,3.8648,4.1295,4.0841,4.133,4.297,4.2997,4.2153,4.0557,4.2779,4.3861,4.3779,4.2033,4.269,4.5505,5.0194,4.8046,4.0938,3.7736,3.7246,3.8391,3.7078,3.6565,3.657,3.6572,3.4759,3.2566,0.0,0.0,0.0,0.0,0.0,0.0,0.0,0.0,0.0,0.0,0.0,2.2081,2.2157,2.5051,2.7215,2.7791,2.8356,2.8005,2.6422,2.5093,2.3382,2.1212,1.9942,1.9859,2.1042,2.537,2.9211,3.2417,3.3224,3.3683,3.3825,3.4213,3.4936,3.5914,3.589,3.4725,3.2612,3.0452,2.8542,2.6633,2.2864,0.0,0.0,0.0,0.0,0.0,0.0,0.0,0.0,0.0,0.0,0.0,0.0,0.0,0.0,0.0,0.0,0.0,0.0,0.0,0.0,0.0,0.0,0.0,0.0,0.0,0.0,0.0,0.0,0.0,0.0,0.0,0.0,0.0,0.0,0.0,0.0,0.0,0.0,3.6189,3.5648,0.0,0.0,0.0,0.0,3.841,4.09,4.1479,3.9591,4.1479,4.3637,4.588,4.3944,4.2899,4.3009,4.3002,4.294,4.2871,4.5084,4.6141,4.6328,5.1773,5.4339,5.4527,5.4848,5.4731,5.3343,4.1332,4.0487,4.6218,4.138,3.9487,3.9501,3.9505,3.9384,3.9225,0.0,0.0,0.0,1.7874,1.7566,1.7291,1.7118,1.7551,1.8154,1.8857,2.0916,2.2834,2.428,2.772,3.0326,3.1256,3.2788,3.304,3.1381,2.9148,2.7216,2.5713,2.3831,2.454,2.8207,3.0316,3.2652,3.5264,3.4974,3.5317,3.625,3.6384,3.7149,3.838,3.801,3.7494,3.6632,3.3671,3.1461,2.9673,2.6507,2.4029,0.0,0.0,0.0,0.0,0.0,0.0,0.0,0.0,0.0,0.0,0.0,0.0,0.0,0.0,0.0,0.0,0.0,0.0,0.0,0.0,0.0,0.0,0.0,0.0,0.0,0.0,0.0,0.0,0.0,0.0,0.0,0.0,0.0,0.0,0.0,0.0,0.0,3.8151,3.8109,0.0,3.6352,3.7434,3.9167,4.1474,4.2469,4.3272,4.3926,4.4706,4.5486,4.6279,4.8196,4.9232,4.9232,4.9245,4.9249,4.9274,5.1127,5.2042,5.2113,5.4233,5.5204,5.5208,5.5197,5.5204,5.4848,5.0357,4.9011,4.9634,4.7827,4.7091,4.6661,4.3136,4.1836,4.1828,0.0,0.0,0.0,1.8388,1.7991,1.7662,1.7661,1.8279,1.9208,2.0489,2.2909,2.5293,2.7344,3.1009,3.3668,3.4421,3.5979,3.6004,3.3793,3.1562,2.9503,2.7638,2.6673,2.8505,3.3495,3.4278,3.5815,3.8243,3.7618,3.7811,3.8776,3.8776,3.9208,3.9948,3.9597,3.9346,3.9019,3.6607,3.47,3.3115,3.0376,2.757,2.4901,0.0,0.0,0.0,0.0,0.0,0.0,0.0,0.0,0.0,0.0,0.0,0.0,0.0,0.0,0.0,0.0,0.0,0.0,0.0,0.0,0.0,0.0,0.0,0.0,0.0,0.0,0.0,0.0,0.0,0.0,0.0,0.0,0.0,0.0,0.0,3.8679,3.9536,3.9832,3.9246,3.7381,3.8603,4.0502,4.2827,4.4038,4.5449,4.7298,4.7376,4.793,4.9143,5.1474,5.2936,5.3387,5.4373,5.485,5.4878,5.5982,5.6508,5.6528,5.6528,5.653,5.653,5.653,5.653,5.6527,5.6504,5.5471,5.3788,5.2877,5.2532,5.1991,4.7429,4.5787,4.576,0.0,0.0,1.8914,1.8981,1.8565,1.823,1.8211,1.9133,2.0464,2.2182,2.6197,2.9559,3.1311,3.4949,3.7235,3.7309,3.7812,3.6755,3.355,3.2193,3.0064,2.6818,2.8273,0.0,3.638,3.7083,3.8718,4.1381,4.141,4.141,4.1381,4.1381,4.1053,4.0524,4.0524,4.0276,3.9774,3.9272,3.8415,3.718,3.441,3.1664,2.8944,0.0,0.0,0.0,0.0,0.0,0.0,0.0,0.0,0.0,0.0,0.0,0.0,0.0,0.0,0.0,0.0,0.0,0.0,0.0,0.0,0.0,0.0,0.0,0.0,0.0,0.0,0.0,0.0,0.0,0.0,0.0,0.0,0.0,3.6722,3.875,4.0333,4.0252,4.0793,4.105,4.0671,4.0001,4.0659,4.3319,4.6331,4.8521,4.9591,4.968,5.1221,5.4628,5.3468,5.344,5.4827,5.7684,5.9085,5.9098,5.9098,5.909,5.9084,5.9084,5.9084,5.9084,5.9084,5.9084,5.9084,5.9084,5.9084,5.8849,5.6307,5.5304,5.5014,5.2375,5.1466,5.1455,1.9202,1.9052,1.8982,1.9005,1.8877,1.8774,1.8781,1.9736,2.1457,2.433,2.715,3.0161,3.3423,3.6182,3.8332,3.9691,4.0287,3.9998,3.8573,3.5669,3.2829,3.0164,0.0,0.0,3.8165,4.0512,4.2318,4.3546,4.4084,4.4058,4.3546,4.3049,4.2187,4.1102,4.1102,4.1586,4.2371,4.2214,4.2272,4.2196,3.8817,3.6811,3.5693,0.0,0.0,0.0,0.0,0.0,0.0,0.0,0.0,0.0,0.0,0.0,0.0,0.0,0.0,0.0,0.0,0.0,0.0,0.0,0.0,0.0,0.0,0.0,0.0,0.0,0.0,0.0,0.0,0.0,0.0,0.0,0.0,4.2367,4.0128,4.1127,4.2268,4.2722,4.3072,4.3324,4.3477,4.6055,4.9666,5.4318,5.2628,5.1951,5.3268,5.3322,5.3322,5.327,5.4403,5.5222,5.559,5.7941,5.9126,5.9107,5.9107,5.9096,5.9075,5.9075,5.9075,5.9075,5.9075,5.9075,5.9075,5.9075,5.9075,5.9011,5.8312,5.8023,5.7937,5.7204,5.6921,5.6942,1.8984,1.8988,1.9078,1.9287,1.9344,1.9422,1.9685,2.084,2.2975,2.6515,2.8907,3.1767,3.5656,3.8124,3.994,4.1039,4.113,4.0653,3.9573,3.6873,3.5487,3.5913,0.0,4.0672,4.2782,4.4802,4.627,4.7216,4.7353,4.7217,4.6783,4.6109,4.5207,4.4229,4.4229,4.4572,4.5082,4.5082,4.5488,4.5926,4.3804,4.1434,3.9145,3.8529,3.5963,3.2699,3.2659,3.1101,2.92,3.0092,0.0,0.0,0.0,0.0,0.0,0.0,0.0,0.0,0.0,0.0,0.0,0.0,0.0,0.0,0.0,0.0,0.0,0.0,0.0,0.0,0.0,0.0,0.0,0.0,4.5052,4.6745,4.5761,4.574,4.6196,4.7073,4.7288,4.7779,4.8761,5.1123,5.3923,5.7077,5.5282,5.4374,5.5225,5.5481,5.5538,5.539,5.66,5.7247,5.7247,5.8483,5.9099,5.9099,5.9099,5.9099,5.9099,5.9099,5.9099,0.0,5.9099,5.9099,5.9099,5.9099,5.9099,0.0,0.0,0.0,0.0,0.0,5.9084,5.9092,1.9079,1.9147,1.9347,1.9901,1.9987,2.0227,2.0901,2.229,2.4709,2.8805,3.124,3.4049,3.7983,4.047,4.1862,4.2035,4.1276,4.0172,3.8637,3.7446,3.8514,4.2429,4.338,4.5295,4.8545,4.9313,5.023,5.143,5.0924,5.0645,5.0539,4.9872,4.9207,4.8628,4.86,4.8399,4.8024,4.794,4.8283,4.8871,4.876,4.5729,4.123,4.123,3.8886,3.5588,3.5588,3.4466,3.2941,3.2771,0.0,0.0,0.0,0.0,0.0,0.0,0.0,0.0,0.0,0.0,0.0,0.0,0.0,0.0,0.0,0.0,0.0,0.0,0.0,0.0,0.0,0.0,0.0,0.0,4.847,5.1049,5.2405,5.1678,5.1234,5.1905,5.2128,5.2911,5.4629,5.5083,5.5282,5.5282,5.5879,5.6251,5.6265,0.0,0.0,0.0,0.0,5.9099,5.9099,5.9099,5.9129,5.9219,5.9219,5.9192,5.908,5.908,5.908,5.908,5.908,5.908,5.908,5.908,5.908,5.9107,5.9102,5.9099,5.9099,5.9099,5.9102,5.9105,1.9648,2.0041,2.0534,2.1069,2.1181,2.1605,2.2836,2.3668,2.6044,3.1291,3.3619,3.6333,4.0453,4.224,4.3551,4.4581,4.356,4.236,4.1245,4.2647,4.3993,4.5057,4.6974,4.8818,5.0515,5.1735,5.2751,5.3523,5.3977,5.3893,5.3296,5.2638,5.1681,5.0571,5.0488,5.1027,5.195,5.1405,5.1599,5.2208,5.1672,4.9885,4.7525,4.7525,4.6411,4.4835,4.4835,4.3643,4.1896,4.0609,3.8945,3.7119,3.5727,3.3872,0.0,0.0,0.0,0.0,0.0,0.0,0.0,0.0,0.0,0.0,0.0,0.0,0.0,0.0,0.0,0.0,0.0,0.0,0.0,4.8909,5.1895,5.4639,5.6608,5.6684,5.5552,5.2853,5.3557,5.44,5.4768,5.691,5.8265,5.8265,5.8383,5.8468,5.8483,5.8572,5.8771,5.9072,5.9099,5.9099,5.9099,5.9099,5.9368,5.9907,0.0,0.0,5.9098,5.9098,5.9098,5.9098,5.9098,5.9098,5.9098,5.9098,5.9098,5.9094,5.9088,5.9099,5.9099,5.9099,5.9113,5.9101,2.0941,2.108,2.1181,2.1457,2.1945,2.2676,2.3834,2.4939,2.7322,3.1986,3.3636,3.5698,3.9212,4.0725,4.1622,4.1915,4.2204,4.2614,4.308,4.544,4.7775,4.991,5.1407,5.2798,5.407,5.5092,5.5937,5.6584,5.6631,5.6456,5.6084,5.541,5.4714,5.4099,5.4073,5.442,5.5086,5.4733,5.4649,5.4665,5.4336,5.3438,5.2061,5.0391,4.8938,4.7817,4.7523,4.6395,4.4917,4.4163,4.3093,4.1892,4.0771,3.9538,3.8179,0.0,0.0,0.0,0.0,0.0,0.0,0.0,0.0,0.0,0.0,0.0,0.0,0.0,0.0,4.4225,0.0,0.0,5.0522,5.1856,5.4554,5.6981,5.8393,5.8593,5.7929,5.6121,5.654,5.6958,5.6958,5.8253,5.9099,5.9099,5.9099,5.9249,5.9578,5.9608,5.9757,6.0086,6.0116,6.0116,6.0116,6.0116,6.0266,6.0595,6.0914,6.0805,6.0408,6.0872,6.1076,6.1076,6.1076,6.1076,6.1076,6.1076,6.1076,6.1102,6.111,6.0261,5.9252,6.0609,6.108,6.1089,2.2132,2.2121,2.1985,2.1985,2.2709,2.3698,2.4936,2.6279,2.8541,3.2382,3.3347,3.473,3.7669,3.8944,3.9339,3.8727,4.0938,4.297,0.0,4.7489,5.084,5.4431,5.5209,5.6166,5.7453,5.8022,5.8563,5.9099,5.8563,5.8294,5.8264,5.7752,5.7483,5.7483,5.7483,5.7483,5.7483,5.7363,5.7004,5.6551,5.6432,5.6072,5.5269,5.2432,5.0644,4.9592,4.9092,4.7836,4.6433,4.655,4.6087,4.5405,4.5055,4.4766,4.4029,4.1195,4.1333,0.0,0.0,0.0,0.0,0.0,0.0,0.0,0.0,0.0,4.4954,4.6719,4.8117,4.8693,4.7421,5.0816,5.3938,5.4442,5.6735,5.8713,5.9398,5.9488,5.9488,5.9488,5.9368,5.9338,5.9488,5.9488,5.9488,5.9488,5.9488,5.9727,6.0266,6.0266,6.0535,6.1104,6.1076,6.1076,6.1076,6.1076,6.1194,6.1313,6.1605,6.187,6.199,6.2751,6.3103,6.3103,6.3103,6.3103,6.3103,6.3107,6.3079,6.3109,6.3113,6.1765,6.0133,6.2307,6.3419,6.3806,2.2282,2.3075,2.3728,2.3728,2.3828,2.4798,2.7364,2.7922,2.9581,3.3797,3.4618,3.5955,3.8945,3.9675,3.976,3.9345,4.323,4.5583,4.5214,4.9875,5.3648,5.5893,5.6581,5.7513,5.886,5.8949,5.9039,5.9099,5.9039,5.9009,5.9009,5.8919,5.889,5.889,5.889,5.889,5.883,5.8234,5.7935,5.7842,5.7244,5.6944,5.6795,5.5893,5.5073,5.441,5.4346,5.2316,4.9751,5.0279,4.8238,4.5595,4.664,4.6207,4.5123,4.4123,4.3143,4.2051,4.0397,4.1545,4.3309,4.3758,4.5254,4.695,0.0,0.0,4.8835,4.962,5.0817,5.1714,5.156,5.3903,5.6047,5.6653,5.8504,6.0116,6.0777,6.0894,6.0894,6.0894,6.0356,6.0206,6.0835,6.0894,6.0894,6.0894,6.0894,6.0896,6.0956,6.1014,6.1044,6.1076,6.1076,6.1076,6.1076,6.1076,6.1403,6.2002,6.203,6.2359,6.2957,6.3045,6.3104,6.3104,6.3104,6.3104,6.3105,6.3113,6.3116,6.3086,6.309,6.2913,6.2677,6.2969,6.4586,6.6239,2.3211,2.3678,2.4205,2.4833,2.5342,2.6248,2.7932,2.8457,2.9612,3.2258,3.23,3.2732,3.4379,3.5114,3.5898,3.702,4.1354,4.4377,4.5244,5.0265,5.4246,5.6641,5.6944,5.7723,5.9069,5.9099,5.9099,5.9099,5.9099,5.9099,5.9099,5.9099,5.9099,5.9099,5.9099,5.9099,5.9099,5.88,5.8683,5.868,5.8381,5.8261,5.8231,5.7962,5.7723,5.7064,5.3982,5.2061,0.0,5.1131,5.0175,4.9306,5.1286,4.9969,4.7611,4.7346,4.5751,4.4487,4.6232,4.6741,4.713,4.8536,4.9823,5.087,5.1432,5.2181,5.3234,5.5004,5.6137,5.6829,5.6937,5.8121,5.9216,0.0,6.0291,6.0775,6.1074,6.1076,6.1225,6.1642,6.1433,6.1224,6.1106,6.1076,6.1076,6.1076,6.1076,6.1283,6.1672,6.1672,6.1852,6.2241,6.2241,6.2241,6.2241,6.2241,6.2391,6.266,6.266,6.2989,6.3617,6.3617,6.3413,6.309,6.309,6.309,6.3119,6.3091,6.398,6.538,6.5363,6.5354,6.5177,6.3643,6.3782,6.4675,2.3879,2.413,2.4506,2.5435,2.6456,2.7328,2.795,2.8395,2.9191,3.0668,3.013,2.991,3.086,3.1862,3.3226,3.5066,3.9278,4.284,4.5155,4.9733,5.3773,5.6944,5.7094,5.7723,5.9069,5.9099,5.9099,5.9099,5.9099,5.9099,5.9099,5.9099,5.9099,5.9099,5.9099,5.9099,5.9099,5.9099,5.9099,5.9099,5.9099,5.9099,5.9099,5.9099,5.853,5.7244,5.3389,5.143,5.0532,5.002,4.934,4.9151,5.1673,5.0654,4.8528,4.8708,4.7219,4.6292,4.9523,5.0242,5.0564,5.2546,5.3922,5.4905,5.5085,5.5837,5.7124,5.9219,6.0027,6.0418,6.058,6.0872,6.1252,6.1723,6.1577,6.1433,6.1642,6.1792,6.2091,6.257,6.278,6.272,6.2212,6.2032,6.1912,6.1912,6.2063,6.2391,6.2869,6.2899,6.3109,6.3588,6.3617,6.3617,6.3617,6.3617,6.3617,6.3617,6.3617,6.3857,6.4276,6.4424,6.4218,6.3832,6.407,6.4189,6.4189,6.4188,6.5318,6.6991,6.699,6.7995,6.9175,6.7295,6.5547,6.4209,2.3879,2.4415,2.4942,2.5511,2.6749,2.7677,2.771,2.7736,2.8284,2.982,2.9177,2.9123,3.0659,3.2215,3.3534,3.4454,3.817,4.1833,4.5095,4.8424,5.2342,5.6885,5.7094,5.7723,5.9069,5.9099,5.9099,5.9099,5.9099,5.9099,5.9099,5.9099,5.9099,5.9099,5.9099,5.9099,5.9099,5.9099,5.9099,5.9099,5.9099,5.9099,5.9099,5.9099,5.7124,5.4341,5.4192,5.1642,4.8191,4.689,4.4337,4.216,4.4786,4.5963,4.651,4.7189,4.6839,4.657,4.7997,5.0212,5.2606,5.461,5.7034,5.9099,5.9727,5.9934,6.0146,6.0894,6.1074,6.1046,6.1076,6.1076,6.1313,6.1972,6.2061,6.2301,6.2958,6.3528,6.3917,6.3947,6.4516,6.4904,0.0,6.4306,6.3917,6.3917,6.4486,6.4904,6.4904,6.4904,6.4904,6.4934,6.4934,6.4934,6.4934,6.4934,6.4934,6.4934,6.4934,6.4964,6.4964,6.5442,6.5622,6.5652,6.6521,6.6881,6.688,6.6882,6.6952,6.6976,6.699,7.0454,7.5418,7.5364,7.1761,6.651,2.434,2.4691,2.5093,2.603,2.6587,2.6901,2.6901,2.7364,2.7898,2.843,2.803,0.0,0.0,0.0,0.0,0.0,3.7973,4.0576,4.2571,4.7407,5.1475,5.4396,5.6615,5.8591,6.0298,6.0354,6.082,6.1678,6.082,6.0354,6.0328,5.9526,5.9099,5.9099,5.9099,5.9099,5.9099,5.9099,5.9099,5.9099,5.9099,5.9099,5.903,5.8407,5.6249,5.3176,0.0,4.7854,4.5706,4.4669,4.3682,4.3377,4.6353,4.5933,4.4317,4.4127,4.5744,4.8087,5.0272,5.2839,5.5444,5.7869,5.9458,6.0505,6.0715,6.0775,6.0954,6.1642,6.0715,5.9907,6.0356,6.0805,6.1166,6.1403,6.2899,6.4097,6.4336,6.4545,6.4665,6.4665,6.4845,0.0,0.0,0.0,0.0,6.4665,6.4874,6.4994,6.4994,6.4994,6.4994,6.4994,6.4994,6.4994,6.4994,6.4994,6.4994,6.4994,6.5443,6.5652,6.5682,6.6281,6.6551,6.6582,6.6878,6.7018,6.7015,6.7021,6.9294,7.2768,7.2762,7.3983,7.5714,7.5713,7.4469,7.2659,2.4666,2.5118,2.5636,2.6373,2.665,0.0,0.0,0.0,0.0,0.0,0.0,0.0,0.0,0.0,0.0,0.0,0.0,3.914,4.0924,4.4825,4.8245,5.096,5.2881,5.4792,5.6764,5.6913,5.7604,5.8945,5.8771,5.8826,5.9073,5.8598,5.8381,5.8381,5.8381,5.853,5.874,5.874,5.8711,5.8537,5.8032,5.7628,5.7117,5.5459,5.2849,0.0,4.6192,4.3554,4.1613,4.1081,4.1084,4.1791,4.4038,4.4287,4.3838,4.4337,4.6792,5.0062,5.3414,5.5568,5.7453,5.9847,6.0954,6.1523,6.1762,6.1972,6.2271,6.269,6.1194,5.9877,6.0057,6.0057,6.0029,6.0029,6.1644,6.314,6.3858,6.4186,6.4605,6.5263,6.5562,6.5682,0.0,0.0,0.0,6.5383,6.5562,6.5682,6.5682,6.5682,6.5682,6.5682,6.5682,6.5682,6.5682,6.5682,6.5802,6.6071,6.6759,6.7089,6.7089,6.7508,6.7717,6.775,6.8298,6.8583,6.8638,6.9663,7.2945,7.7286,7.7314,7.7317,7.7301,7.7302,7.7322,7.7156,2.4867,2.5753,2.6499,0.0,0.0,0.0,0.0,0.0,0.0,0.0,0.0,0.0,0.0,0.0,0.0,0.0,0.0,0.0,4.0038,4.0954,4.311,4.689,4.66,4.7271,4.9239,4.9481,5.0271,5.1689,5.3421,5.4645,5.5338,5.6254,5.6705,5.6705,5.6705,5.7064,5.7636,5.7636,5.7474,5.71,5.5688,5.4564,5.3428,5.0515,4.7341,4.4172,4.2112,3.9272,3.6493,3.6553,3.7105,3.7943,3.8781,4.1654,4.5214,4.784,4.9972,5.2462,5.6889,5.8234,5.8803,6.0745,6.1732,6.2421,6.3048,6.3647,6.4066,6.3974,6.2359,6.0745,0.0,0.0,5.8145,5.8145,5.8892,6.0176,6.2121,6.2958,6.4066,0.0,0.0,0.0,0.0,0.0,0.0,6.6221,0.0,6.7029,6.7029,6.7059,6.7089,6.7089,6.7089,6.7089,6.7089,6.7089,6.7449,6.8047,6.8704,6.9004,6.9004,6.9098,6.91,6.9194,7.0767,7.1544,7.1841,7.4746,7.7621,8.0207,8.0206,8.0189,8.0189,8.0189,8.0189,7.9784,0.0,0.0,0.0,0.0,0.0,0.0,0.0,0.0,0.0,0.0,0.0,0.0,0.0,0.0,0.0,0.0,0.0,0.0,3.7422,3.9966,4.2062,0.0,0.0,0.0,0.0,0.0,4.9924,5.1243,5.1256,5.1408,5.1594,5.1395,5.1282,5.1282,5.1282,5.1372,5.1552,5.1552,5.1206,5.0646,5.0291,4.9692,4.8865,4.7392,4.491,4.2108,4.1357,3.912,3.6583,3.7015,3.9888,4.3838,4.6929,4.8985,5.0511,5.2217,5.4072,5.5957,5.7636,5.9937,6.1942,6.245,6.3438,6.4306,6.4456,6.5024,6.5051,6.3421,6.1228,5.9095,5.732,5.7989,0.0,5.886,6.2301,0.0,6.6371,6.664,0.0,6.8106,0.0,6.8495,6.8495,6.8495,0.0,0.0,6.7926,6.7748,6.7748,6.8196,6.8495,6.8495,6.8495,6.8495,6.8495,6.8495,6.8585,6.8734,6.8914,6.9004,6.9035,7.019,7.0707,7.0766,7.191,7.3253,7.4919,7.7844,7.9525,8.0209,8.0208,8.019,8.019,8.019,8.019,8.0097,0.0,0.0,0.0,0.0,0.0,0.0,0.0,0.0,0.0,0.0,0.0,0.0,0.0,0.0,0.0,0.0,0.0,0.0,0.0,3.7811,3.9128,3.9787,0.0,0.0,0.0,0.0,4.4957,4.6564,4.6812,4.722,4.7822,4.7637,4.754,4.754,4.754,4.772,4.7967,4.7967,4.7701,0.0,0.0,4.5785,4.484,4.3002,4.1432,4.0129,3.9304,3.9599,4.0666,4.2761,4.5454,4.8386,5.1199,5.2725,5.3952,5.6137,5.7782,5.9189,6.0717,6.251,6.3947,6.3947,6.4695,6.5263,6.4584,6.4942,6.4828,6.2654,6.0029,5.7638,5.6165,5.7188,5.8231,0.0,0.0,0.0,6.6939,6.7119,6.7597,0.0,6.9004,0.0,6.9004,6.9004,6.9004,0.0,6.8645,6.8466,6.8466,6.8794,6.9004,6.9004,6.9004,6.9004,6.9004,6.9273,6.9423,6.9454,7.0421,7.0887,7.095,7.2475,7.3185,7.3271,0.0,7.5515,7.6578,7.9145,8.019,8.0199,8.0225,8.0209,8.0209,8.0209,8.0209,8.0209,0.0,0.0,0.0,0.0,0.0,0.0,0.0,0.0,0.0,2.8348,3.0151,0.0,0.0,0.0,0.0,0.0,0.0,0.0,0.0,0.0,0.0,0.0,0.0,0.0,0.0,0.0,0.0,4.0099,4.1308,4.2489,4.371,4.4095,4.4257,4.4257,4.4257,4.4586,4.5104,4.5104,4.494,4.4551,4.3248,4.2171,4.104,0.0,3.7805,3.8263,3.7258,4.0576,4.6052,4.9979,5.1684,5.2402,5.4102,5.5418,5.6944,5.9877,6.1224,6.2271,6.4516,6.5263,6.5383,6.5383,6.5891,6.5982,6.4362,6.4484,6.4274,6.1828,5.8978,5.6679,5.5868,5.6401,5.7094,5.7423,0.0,6.4096,6.6221,6.655,6.7208,6.9034,6.9243,6.9243,6.9243,6.9243,6.9243,6.9243,6.9243,6.9213,6.9123,6.9213,6.9243,6.9243,6.9243,6.9243,6.9243,6.9812,7.0209,7.0464,7.2397,7.3384,7.3658,7.5202,7.5896,7.5981,7.7555,0.0,7.7668,7.9471,8.0209,8.0209,8.0209,8.0209,8.0209,8.0209,8.0209,8.0209,0.0,0.0,0.0,0.0,0.0,0.0,0.0,0.0,0.0,0.0,3.2274,3.3161,0.0,0.0,0.0,0.0,0.0,0.0,0.0,0.0,0.0,0.0,0.0,0.0,0.0,0.0,0.0,0.0,0.0,3.7707,3.7948,3.851,3.8781,3.8781,3.8781,3.8841,3.8943,3.8943,3.8635,3.8103,3.7858,3.7295,3.6595,3.6068,0.0,0.0,3.8415,4.2023,4.6719,5.069,5.4221,5.7517,6.1014,6.2301,6.269,6.3798,6.4605,6.5263,6.5682,6.664,6.7479,6.7479,6.7986,6.7936,6.5836,6.5873,6.5235,6.1232,5.8934,5.7064,5.5162,5.566,5.706,5.9246,6.245,6.5772,6.8854,6.9303,6.9602,0.0,7.056,7.056,7.056,7.056,0.0,0.0,7.056,7.035,6.9842,7.029,7.056,7.056,7.056,7.056,7.056,7.0679,7.1386,7.2645,7.3076,7.3959,7.5231,7.6804,7.7495,7.761,7.9124,0.0,7.9684,8.004,8.0209,8.0209,8.0209,8.0209,8.0209,8.0209,8.0209,8.0209,0.0,0.0,0.0,0.0,0.0,0.0,0.0,3.0615,3.2172,3.359,3.4693,3.5169,3.4576,3.51,3.5519,0.0,0.0,0.0,0.0,0.0,0.0,0.0,0.0,0.0,0.0,0.0,0.0,0.0,0.0,0.0,3.6493,0.0,3.64,3.64,3.64,3.64,3.64,3.64,3.6237,3.5968,3.5968,3.5789,3.5549,0.0,0.0,0.0,3.9858,4.3419,4.7698,4.9935,5.4461,5.9787,6.3408,6.4784,6.5233,6.6251,6.6789,6.7119,6.7478,6.8016,6.8495,6.8495,6.8764,6.812,6.47,6.4469,6.3564,5.8577,5.6798,5.5628,5.4014,5.5343,5.709,5.8321,6.275,6.661,6.8196,6.9602,7.056,7.0859,7.0889,7.1038,7.1398,7.1427,7.1577,7.1906,7.1936,7.1517,7.05,7.0739,7.0889,7.0889,7.0889,7.0889,7.0889,7.1697,7.2457,7.3199,7.491,7.6289,7.7409,7.8962,7.9867,8.0287,8.0604,0.0,8.1325,8.0919,8.0987,8.1359,8.1359,8.1359,8.1299,8.1079,8.0639,8.0173,0.0,0.0,0.0,0.0,0.0,0.0,3.0394,3.2258,3.4158,3.5671,3.7008,3.7135,3.5326,3.5489,3.5669,0.0,0.0,0.0,0.0,0.0,0.0,0.0,0.0,0.0,0.0,0.0,0.0,0.0,0.0,0.0,0.0,0.0,0.0,0.0,3.5519,3.5519,3.5519,3.5519,3.5519,0.0,0.0,3.5579,0.0,0.0,0.0,0.0,0.0,4.3828,4.7271,4.8798,5.3169,5.859,6.2032,6.4066,6.5413,6.661,6.7149,6.7627,6.8884,6.9303,6.9423,6.9423,6.9423,6.8242,6.3786,6.3021,6.1781,5.6412,5.4758,5.3956,5.3077,5.4722,5.6436,5.7004,6.1822,6.5862,6.6849,6.9004,7.0649,7.1068,7.1248,0.0,7.2056,7.2116,0.0,7.2864,7.2924,0.0,7.1398,7.1338,7.1338,7.1338,7.1338,7.1503,7.1862,7.2889,7.3815,7.4697,7.6878,7.8533,7.9745,8.0826,8.1697,8.2374,8.1799,0.0,0.0,8.1765,8.1866,8.2408,8.2408,8.2348,8.222,8.1846,8.1031,8.0218,0.0,0.0,0.0,0.0,0.0,0.0,3.2727,3.4092,3.5764,3.7841,3.8757,3.8673,3.7285,3.6686,3.6148,0.0,0.0,0.0,0.0,0.0,0.0,0.0,0.0,0.0,0.0,0.0,0.0,0.0,0.0,0.0,0.0,0.0,0.0,0.0,0.0,0.0,3.5519,3.5519,0.0,0.0,0.0,0.0,0.0,0.0,0.0,0.0,0.0,4.2062,4.3609,4.7862,5.0092,5.1804,5.5748,5.9545,6.26,6.3347,6.4366,6.5951,6.9064,7.029,7.0739,7.0739,7.0739,6.9602,6.5198,6.3516,6.1583,5.7041,5.4483,5.3033,5.2923,5.328,5.4336,5.6705,5.9129,6.2181,6.64,6.8256,6.9842,7.1577,0.0,0.0,7.2804,7.2834,7.2834,7.2924,7.2924,0.0,7.2744,7.2744,7.2744,7.2744,7.2744,7.3446,7.4962,7.4407,7.5907,7.9458,7.8398,7.9375,8.209,8.1544,8.1697,8.2408,8.234,0.0,0.0,8.234,8.234,8.2408,8.2408,8.2127,8.1753,8.1719,8.1031,8.0218,0.0,0.0,0.0,0.0,0.0,0.0,3.4213,3.4949,3.6391,3.9224,3.9481,3.9212,3.8644,3.8033,3.7045,3.5639,0.0,0.0,0.0,0.0,0.0,0.0,0.0,0.0,0.0,0.0,0.0,0.0,0.0,0.0,0.0,0.0,0.0,0.0,0.0,0.0,0.0,0.0,0.0,0.0,0.0,0.0,0.0,0.0,0.0,0.0,0.0,0.0,4.3359,4.6014,4.8626,5.0817,5.084,5.3563,5.7633,6.2271,6.4006,6.5293,6.9423,7.0709,7.0889,7.0889,6.9423,6.7035,6.3516,6.12,5.859,5.4399,5.3201,5.2802,5.2512,5.255,5.3204,5.5059,5.7363,5.9817,6.245,6.4665,6.7029,6.9812,7.038,7.1338,0.0,0.0,7.3672,7.4061,7.4091,0.0,7.4091,7.3343,7.2924,7.2924,7.2924,7.3693,7.5307,7.5989,7.7578,8.0079,8.0455,8.148,8.305,8.2746,8.3016,8.37,8.3253,0.0,0.0,8.3253,8.3321,8.37,8.37,8.3606,8.3445,8.3445,8.3197,8.2848,0.0,0.0,0.0,0.0,0.0,3.4126,3.5132,3.5916,3.7255,3.9798,3.9888,3.9631,3.9421,3.8631,3.7464,3.5938,3.5609,0.0,0.0,0.0,0.0,0.0,0.0,0.0,0.0,0.0,3.5519,3.5519,3.5519,0.0,0.0,0.0,0.0,0.0,0.0,0.0,0.0,0.0,0.0,0.0,0.0,0.0,0.0,0.0,0.0,0.0,0.0,0.0,0.0,0.0,0.0,4.9202,4.7758,4.9194,5.2749,5.9189,6.1942,6.3797,6.8256,7.0171,7.0889,7.0889,6.8435,6.529,6.256,5.9563,5.6352,5.2846,5.2259,5.2276,5.1963,5.2067,5.2576,5.3713,5.5777,5.7932,5.9817,6.2032,6.4605,6.7747,0.0,6.9842,0.0,7.3732,7.436,7.4873,7.4903,7.4903,7.4903,7.4001,7.3492,7.3492,7.3934,7.4993,7.662,7.8018,7.9598,8.1436,8.2071,8.2915,8.3828,8.3592,8.3896,8.458,8.4065,0.0,0.0,8.4065,8.4133,8.4614,8.4614,8.4614,8.4614,8.4614,8.4614,8.4614,0.0,0.0,0.0,0.0,0.0,0.0,3.5503,3.7135,3.8631,3.9331,3.996,4.0157,3.9481,3.8195,3.7165,3.6553,3.5878,0.0,0.0,0.0,0.0,0.0,0.0,0.0,0.0,0.0,3.5519,3.5519,3.5519,3.5519,3.5519,3.5519,0.0,0.0,0.0,0.0,0.0,0.0,0.0,0.0,0.0,0.0,3.8452,0.0,0.0,0.0,0.0,0.0,0.0,0.0,0.0,0.0,0.0,4.7339,4.8297,5.2935,5.7064,6.0984,6.4964,6.8435,7.0889,7.0889,6.8435,6.544,6.3285,5.9396,5.5581,5.3343,5.1995,5.1229,5.1206,5.1768,5.2426,5.3109,5.4341,5.6346,5.9638,6.1253,6.3079,6.5712,6.7178,6.8796,7.0739,7.3313,7.4903,7.4903,7.4903,0.0,7.4903,7.4903,7.4903,7.4903,7.6436,7.806,7.9742,8.0638,8.2234,8.4519,8.3092,8.3159,8.4546,8.3828,8.3896,0.0,0.0,0.0,0.0,8.458,8.458,8.4614,8.4614,8.4614,8.4614,8.4614,8.4614,8.4614,0.0,0.0,0.0,0.0,0.0,0.0,3.6118,3.6327,3.6956,3.8512,3.8512,3.8452,3.8691,3.7943,3.7315,3.7135,3.6118,0.0,0.0,0.0,0.0,0.0,0.0,0.0,0.0,0.0,3.5729,3.6178,3.6178,3.6387,3.6789,3.6387,3.6178,3.6148,0.0,0.0,0.0,0.0,0.0,0.0,0.0,3.8482,3.9092,0.0,0.0,0.0,0.0,0.0,0.0,0.0,0.0,0.0,0.0,0.0,0.0,4.9583,5.2965,5.6825,6.0326,6.272,6.4096,6.3617,6.1373,5.9117,5.8459,5.5065,5.2042,5.1779,5.1095,5.0817,5.1708,5.1654,5.2187,5.4221,5.4551,5.5508,5.8351,6.0685,6.3228,6.6311,7.0231,7.2957,0.0,0.0,7.4903,7.4903,7.4903,7.4903,7.4903,7.4903,7.4903,7.4903,7.6436,7.8123,7.9773,8.1189,8.2766,8.458,8.414,8.414,8.458,8.4343,8.4377,0.0,0.0,0.0,0.0,8.4614,8.4614,8.4614,8.4614,8.4614,8.4614,8.4614,8.4614,8.4614,0.0,0.0,0.0,0.0,0.0,0.0,0.0,3.5968,3.6297,3.7524,3.7315,3.7315,3.7943,3.7077,3.6556,3.6792,3.574,0.0,0.0,0.0,0.0,0.0,0.0,0.0,0.0,3.4922,3.5577,3.6836,3.6836,3.7285,3.8135,3.7494,3.6892,3.6271,3.5604,3.4961,0.0,0.0,0.0,0.0,3.8123,3.8811,3.9421,0.0,0.0,0.0,0.0,0.0,0.0,0.0,0.0,0.0,0.0,0.0,0.0,0.0,4.9853,5.2755,5.6286,5.877,6.0326,6.0116,5.7749,5.5534,5.5773,5.2905,5.0249,5.0451,5.0518,5.0757,5.1325,5.1295,5.1917,5.4072,5.4102,5.5089,5.8713,6.0685,6.3139,6.6909,7.0951,0.0,0.0,7.4454,7.4903,7.4903,7.4903,7.4903,7.4903,7.4903,7.4903,7.4903,7.6436,7.7804,7.8847,8.0466,8.1824,8.2797,8.3421,8.3701,8.3729,8.4305,8.4614,0.0,0.0,0.0,0.0,8.4614,8.4614,8.4614,8.4614,8.4614,8.4614,8.4614,8.4614,8.4614,0.0,0.0,0.0,0.0,0.0,0.0,0.0,3.6028,3.6434,3.6434,3.6384,3.6542,3.7093,3.5741,3.5057,3.5723,0.0,0.0,0.0,0.0,0.0,0.0,0.0,0.0,3.3876,3.3951,3.5043,3.7258,3.727,3.7984,3.9293,3.8609,3.7458,3.5924,3.5256,3.415,0.0,0.0,0.0,0.0,3.8212,3.8841,0.0,0.0,0.0,0.0,0.0,0.0,0.0,0.0,0.0,0.0,0.0,0.0,0.0,0.0,0.0,0.0,0.0,5.6017,5.853,5.9126,5.6526,5.4012,5.464,5.2312,0.0,4.9396,5.0242,5.0907,5.0368,5.0787,5.1654,5.3049,5.3318,5.5149,6.0386,6.1495,6.3468,6.7958,7.0081,0.0,7.2026,7.3825,7.4903,7.4903,7.4903,7.4903,7.4903,7.4903,7.4903,7.4903,7.6368,7.716,7.729,7.8971,7.9802,7.9832,8.1326,8.2083,8.2259,8.3756,8.4473,0.0,0.0,0.0,0.0,8.4614,8.4614,8.4614,8.4614,8.4614,8.4614,8.4614,8.4614,8.4614,0.0,0.0,0.0,0.0,0.0,0.0,0.0,0.0,0.0,0.0,3.5074,3.4637,3.4799,3.4182,3.401,0.0,0.0,0.0,0.0,0.0,0.0,0.0,0.0,0.0,3.2912,3.335,3.4277,3.5799,3.622,3.7024,3.8231,3.7573,3.6626,3.5431,3.4761,3.4459,0.0,0.0,0.0,0.0,3.8901,3.9242,0.0,0.0,0.0,0.0,4.2171,4.3229,0.0,0.0,0.0,0.0,0.0,0.0,0.0,0.0,4.7429,4.7728,4.8686,0.0,5.1522,5.1163,5.0774,5.0504,0.0,4.9696,4.8835,4.9217,4.9546,5.0025,5.0817,5.1086,5.1804,5.3653,5.4401,5.6226,6.0505,6.5443,6.9752,7.2927,7.3705,7.4035,7.4184,7.4634,7.4903,7.4903,7.4903,7.4903,7.4903,7.4903,7.4903,7.4903,7.5282,7.6066,7.729,7.8971,7.9802,7.9803,8.0197,8.1003,8.2198,8.2572,8.3448,0.0,0.0,0.0,8.4614,8.4614,8.4614,8.4614,8.4614,8.4614,8.4614,8.4614,8.4614,8.4614,0.0,0.0,0.0,0.0,0.0,0.0,0.0,0.0,0.0,0.0,0.0,3.3377,3.3377,3.323,0.0,0.0,0.0,0.0,0.0,0.0,0.0,0.0,0.0,3.1499,3.1929,3.2487,3.3742,3.5703,3.627,3.7325,3.8806,3.813,3.6969,3.5365,3.3707,3.3485,0.0,0.0,0.0,3.8469,3.9122,0.0,0.0,0.0,0.0,0.0,4.1201,4.2058,0.0,4.4203,4.5138,4.6057,0.0,0.0,0.0,0.0,4.7309,4.7309,4.7309,4.8027,4.8828,4.8768,4.8798,4.8917,4.9239,4.8768,4.8319,4.8379,4.8858,4.9516,5.0182,5.105,5.2127,5.3503,5.5807,5.8919,6.3199,6.7388,7.0889,7.3256,7.3526,7.3915,0.0,7.4903,7.4903,7.4903,7.4903,7.4903,7.4903,7.4903,7.4903,7.4903,7.4903,7.535,7.6169,7.7125,7.7547,7.7578,7.8313,7.9496,8.1121,8.1853,8.3082,0.0,0.0,0.0,8.4614,8.4614,8.4614,8.4614,8.4614,8.4614,8.4614,8.4614,8.4614,8.4614,0.0,0.0,0.0,0.0,0.0,0.0,0.0,0.0,0.0,0.0,0.0,0.0,0.0,0.0,0.0,0.0,0.0,0.0,0.0,0.0,0.0,0.0,0.0,3.0228,3.1082,3.1632,3.321,3.5851,3.6518,3.7742,3.9474,3.8994,3.7569,3.5357,3.288,3.2561,0.0,0.0,3.6831,3.8751,3.9302,0.0,0.0,0.0,0.0,0.0,0.0,0.0,0.0,4.2798,4.3986,4.5177,4.6241,0.0,0.0,0.0,0.0,0.0,4.7429,4.8386,4.9307,4.9037,4.8648,4.8438,4.8887,4.8558,4.7967,4.7429,4.8379,4.9366,4.9666,5.1193,5.2665,5.3648,5.7869,6.254,6.6969,6.8914,7.05,7.2146,7.2388,0.0,7.4753,7.4903,7.4903,7.4903,7.4903,7.4903,7.4903,7.4903,7.4903,7.4903,7.4903,7.4903,7.4903,7.4903,7.4903,7.4903,7.6268,7.7932,7.9834,8.1209,8.2858,8.4614,0.0,0.0,8.4614,8.4614,8.4614,8.4614,8.4614,8.4614,8.4614,8.4614,8.4614,8.4614,0.0,0.0,0.0,0.0,0.0,0.0,0.0,0.0,0.0,0.0,0.0,0.0,0.0,0.0,0.0,0.0,0.0,0.0,0.0,0.0,0.0,0.0,3.0331,3.0083,3.0674,3.1225,3.2396,3.4244,3.5245,3.6389,3.7634,3.7969,3.6957,3.4812,3.3861,3.4045,3.5194,3.6277,3.8047,4.0098,4.0217,0.0,0.0,0.0,0.0,0.0,0.0,0.0,0.0,4.1174,4.2071,4.3148,4.3332,0.0,0.0,0.0,0.0,0.0,4.7967,5.1079,5.3084,4.8686,4.7967,4.8199,4.7698,4.7519,4.7429,4.7339,4.8379,4.9786,5.1439,5.2456,5.3803,5.6107,6.1343,6.6311,6.9812,7.2415,7.4125,7.4424,0.0,7.4574,7.4873,7.4903,7.4903,7.4903,7.4903,7.4903,7.4903,7.4903,7.4903,7.4903,7.4903,7.4903,7.4903,7.4903,7.4903,7.4903,7.5146,7.6862,7.9803,8.0046,8.1795,8.4614,0.0,8.4614,8.4614,8.4614,8.4614,8.4614,8.4614,8.4614,8.4614,8.4614,8.4614,8.4614,0.0,0.0,0.0,0.0,0.0,0.0,0.0,0.0,0.0,0.0,0.0,0.0,0.0,0.0,0.0,0.0,0.0,0.0,0.0,0.0,0.0,3.2311,3.1537,3.1085,3.1035,3.2164,3.342,3.4753,3.5882,3.6835,3.7637,3.7556,3.6808,3.5557,3.5233,3.5719,3.6864,3.7643,3.8735,3.9973,0.0,0.0,0.0,0.0,0.0,0.0,0.0,0.0,0.0,0.0,4.0703,4.1741,4.2113,0.0,0.0,0.0,0.0,0.0,4.5199,4.7318,4.9506,4.9906,5.265,5.5239,5.5269,5.473,5.3803,5.2396,5.26,5.3079,5.3234,5.497,5.8171,6.3677,6.5682,6.7687,7.0979,7.1577,7.2086,0.0,0.0,7.3705,7.4813,7.4903,7.4903,7.4903,7.4903,7.4903,7.4903,7.4903,7.4903,7.4903,7.4903,7.4903,7.4903,7.4903,7.4903,7.4903,7.4903,7.6133,7.8502,7.9405,8.1062,8.3365,0.0,8.4614,8.4614,8.4614,8.4614,8.4614,8.4614,8.4614,8.4614,8.4614,8.4614,8.4614,0.0,0.0,0.0,0.0,0.0,0.0,0.0,0.0,0.0,0.0,0.0,0.0,0.0,0.0,0.0,0.0,0.0,0.0,0.0,0.0,3.2616,3.309,3.2767,3.2466,3.2164,3.3445,3.4678,3.5907,3.691,3.7739,3.8391,3.7507,3.6966,3.6718,3.6647,3.7223,3.8216,3.8774,3.9301,3.9797,0.0,0.0,0.0,0.0,0.0,0.0,0.0,0.0,0.0,0.0,0.0,0.0,0.0,0.0,0.0,4.169,4.209,4.2713,4.2874,4.4279,4.6786,5.1385,5.5245,5.8595,6.1257,0.0,5.868,5.7779,5.7719,5.742,5.6077,5.8261,6.2391,6.8944,6.8944,6.9183,7.2209,7.1308,7.0919,7.2448,7.2595,7.3226,7.4753,7.4903,7.4903,7.4903,7.4903,7.4903,7.4903,7.4903,7.4903,7.4903,7.4903,7.4903,7.4903,7.4903,7.4903,7.4903,7.4903,7.5762,7.7354,7.9033,8.0677,8.2288,8.3893,8.4614,8.4614,8.4614,8.4614,8.4614,8.4614,8.4614,8.4614,8.4614,8.4271,8.3928,0.0,0.0,0.0,0.0,0.0,0.0,0.0,0.0,0.0,0.0,0.0,0.0,0.0,0.0,0.0,0.0,0.0,0.0,0.0,0.0,3.3065,3.309,3.352,3.3997,3.4452,3.4577,3.5431,3.7085,3.7663,3.8492,3.9546,3.7937,3.7422,3.7862,3.7948,3.8251,0.0,3.931,3.9923,4.0437,3.9376,0.0,0.0,0.0,0.0,0.0,0.0,0.0,0.0,0.0,0.0,0.0,0.0,0.0,4.0938,4.0861,4.1721,4.2819,4.3396,4.6336,4.9898,5.2557,5.0788,5.0641,5.9212,5.8261,0.0,6.0835,0.0,6.221,6.0864,6.2271,6.4425,6.6879,6.9662,7.2265,7.4394,0.0,7.4544,7.4693,7.4693,7.4753,7.4903,7.4903,7.4903,7.4903,7.4903,7.4903,7.4903,7.4903,7.4903,7.4903,7.4903,7.4903,7.4903,7.4903,7.4903,7.4903,7.4903,7.5762,7.7354,7.9033,8.0674,8.2288,8.3893,8.4614,8.4614,8.4614,8.4614,8.4614,8.4614,8.4614,8.4614,8.4614,8.3358,8.1939,0.0,0.0,0.0,0.0,0.0,0.0,0.0,0.0,0.0,0.0,0.0,0.0,0.0,0.0,0.0,0.0,0.0,0.0,0.0,0.0,3.3416,3.4073,3.4276,3.5002,3.6232,3.6257,3.7086,3.8743,3.9295,3.9597,3.9673,3.8674,3.869,3.9514,3.8434,0.0,0.0,0.0,0.0,3.9027,3.8588,3.7512,0.0,0.0,0.0,0.0,0.0,0.0,0.0,0.0,3.6934,3.7235,3.7311,3.8131,3.898,3.8646,3.9396,4.0385,4.0618,4.4405,4.8925,5.1499,5.1895,5.4203,6.3831,6.5173,6.4874,6.664,6.7508,0.0,0.0,6.6759,6.9004,6.9363,7.1846,7.4035,7.4813,7.4903,7.4903,7.4903,7.4903,7.4903,7.4903,7.4903,7.4903,7.4903,7.4903,7.4903,7.4903,7.4903,7.4903,7.4903,7.4903,7.4903,7.4903,7.4903,7.4903,7.4903,7.4903,7.5214,7.5832,7.7483,7.8596,7.928,8.1968,8.311,8.3166,8.417,8.4614,8.45,8.3503,8.2487,8.1716,8.2345,8.2955,8.293,0.0,0.0,0.0,0.0,0.0,0.0,0.0,0.0,0.0,0.0,0.0,0.0,0.0,0.0,0.0,0.0,0.0,0.0,3.219,3.2742,3.3571,3.4653,3.4703,3.5556,3.7412,3.7437,3.8115,3.9446,3.9998,4.0074,3.9698,3.8902,3.9152,4.0177,0.0,0.0,0.0,0.0,0.0,0.0,3.7779,3.6849,0.0,0.0,0.0,0.0,0.0,0.0,0.0,0.0,3.6783,3.6984,3.7135,3.7562,3.7939,3.7563,3.8366,3.9473,3.9777,4.2944,4.719,5.1284,5.3641,5.7377,6.6841,6.8525,6.8854,7.1577,7.1637,7.053,6.8286,0.0,7.1427,7.0979,7.3133,7.4903,7.4903,7.4903,7.4903,7.4903,7.4903,7.4903,7.4903,7.4903,7.4993,7.5198,7.5232,7.5232,0.0,7.5232,7.5108,7.4933,7.4903,7.4903,7.4903,7.4903,7.4903,7.4903,7.4903,7.4903,7.4937,7.6568,7.729,7.7451,8.0225,8.1414,8.1531,8.2628,8.3393,8.3729,8.2628,8.1824,8.1333,8.1585,8.2469,8.3029,0.0,0.0,0.0,0.0,0.0,0.0,0.0,0.0,0.0,0.0,0.0,0.0,0.0,0.0,0.0,0.0,0.0,0.0,3.2169,3.2742,3.3571,3.4653,3.4703,3.5732,3.7939,3.799,3.8291,3.8894,3.9446,3.9697,3.9672,3.8542,3.8578,0.0,0.0,0.0,0.0,0.0,0.0,0.0,3.7079,3.6381,3.6405,0.0,0.0,0.0,0.0,0.0,0.0,0.0,3.6833,3.6707,3.8341,3.8492,3.8015,3.8015,3.9195,4.0715,4.1651,4.269,4.5278,5.2472,5.5304,5.8545,6.708,6.646,6.649,7.5014,7.418,7.1906,7.1876,7.1368,0.0,7.0889,7.3133,7.4903,7.4903,7.4903,7.4903,7.4903,7.4903,7.4903,7.4903,7.4903,7.5168,7.5856,7.5916,7.5916,0.0,7.5916,7.5587,7.4933,7.4903,7.4903,7.4903,7.4903,7.4903,7.4903,7.4903,7.4903,7.4937,7.6535,7.729,7.7354,7.9065,7.9803,7.9771,7.9803,8.0766,8.2202,8.2202,8.3166,8.4366,8.2774,8.1853,8.1699,0.0,0.0,0.0,0.0,0.0,0.0,0.0,0.0,0.0,0.0,0.0,0.0,0.0,0.0,0.0,0.0,0.0,0.0,3.0338,3.0973,3.2187,3.4053,3.4502,3.5378,3.6833,3.7613,3.8492,3.9472,3.9622,3.9697,3.9672,3.8542,0.0,0.0,0.0,0.0,0.0,0.0,0.0,0.0,3.7153,3.6733,3.6455,0.0,0.0,0.0,0.0,0.0,0.0,0.0,0.0,0.0,3.7436,3.7839,3.809,3.8492,3.9245,4.0002,4.0287,4.6303,5.2545,5.2879,5.9452,6.6627,6.9626,6.9572,7.0111,7.454,7.43,7.2864,7.1457,7.2565,0.0,7.1218,7.3133,7.4903,7.4903,7.4903,7.4903,7.4903,7.4903,7.4903,7.4903,7.4903,7.5168,7.5856,7.5916,0.0,0.0,7.6125,7.5826,7.5617,7.5172,7.4903,7.4903,7.4903,7.4903,7.4903,7.4903,7.4903,7.4903,7.5388,7.5594,7.5695,7.7353,7.8028,7.8218,8.0525,8.1766,8.2202,8.2202,8.1795,8.1216,8.1257,8.0882,8.0377,0.0,0.0,0.0,0.0,0.0,0.0,0.0,0.0,0.0,0.0,3.2995,3.2378,0.0,0.0,0.0,0.0,0.0,0.0,2.9256,3.0267,3.1548,3.3158,3.4377,3.578,3.736,3.824,3.9019,3.9697,3.9497,3.9471,3.9672,0.0,0.0,0.0,0.0,0.0,0.0,0.0,0.0,0.0,3.7513,3.7312,3.7085,0.0,0.0,0.0,0.0,0.0,0.0,0.0,0.0,0.0,3.7688,3.8115,3.8492,3.9295,4.0375,4.1878,4.4384,5.059,5.6934,5.9181,6.5061,7.0679,7.2146,7.2684,7.3283,7.4634,7.4604,7.3911,7.2714,7.3791,0.0,7.2744,7.3855,7.4903,7.4903,7.4903,7.4903,7.4903,7.4903,7.4903,7.4903,7.4903,7.5168,7.5856,7.6125,0.0,0.0,7.63,7.6036,7.5527,7.5078,7.4903,7.4903,7.4903,7.4903,7.4903,7.4903,7.4903,7.4903,7.4903,7.4903,7.4937,7.5933,7.6368,7.6535,7.9188,8.0645,8.1271,8.1271,8.1033,8.0769,8.099,8.175,8.2523,0.0,0.0,0.0,0.0,0.0,0.0,0.0,0.0,0.0,3.1941,3.2158,3.1739,0.0,0.0,0.0,2.9096,2.9029,2.8945,2.8791,3.016,3.1391,3.2325,3.4477,3.6635,3.8768,3.9346,3.9622,3.9622,3.9145,3.917,0.0,0.0,0.0,0.0,0.0,0.0,0.0,0.0,0.0,0.0,3.8015,3.8015,3.8015,3.8015,0.0,0.0,0.0,0.0,0.0,0.0,0.0,0.0,3.8718,3.8894,3.9095,4.0124,4.2269,4.5579,5.1285,5.5141,5.9663,6.8533,7.106,7.2056,7.4454,7.5407,7.5617,7.4963,7.4873,7.4903,7.4903,7.4963,7.4993,7.4933,7.4963,7.4993,7.4933,7.4903,7.4903,7.4903,7.4903,7.4903,7.4903,7.4903,7.5168,7.5856,7.6425,0.0,7.6096,7.6544,7.6305,7.5202,7.5053,7.4993,7.4993,7.4933,7.4903,7.4903,7.4903,7.4903,7.4903,7.4903,7.4903,7.4903,7.4903,7.5001,7.5338,7.6792,7.8407,7.9995,8.0021,8.0982,8.2173,8.1496,8.357,8.6517,0.0,0.0,0.0,0.0,0.0,0.0,0.0,0.0,3.0192,3.1011,3.0533,2.9705,2.8689,2.8317,0.0,2.6596,2.6205,2.6783,2.8522,2.9082,3.0567,3.3402,3.5664,3.7262,3.8165,3.8768,3.907,3.907,3.8944,3.917,0.0,0.0,0.0,0.0,0.0,0.0,0.0,0.0,0.0,0.0,0.0,3.8015,3.8015,3.8015,3.8291,0.0,0.0,0.0,0.0,0.0,0.0,0.0,3.8718,3.8894,3.9019,3.9672,4.3844,4.8567,4.9923,5.7746,6.6143,6.8756,7.2519,7.5552,7.5647,7.5377,7.4899,7.424,7.451,7.4903,7.4903,7.5318,7.5497,7.4993,7.5318,7.5497,7.4993,7.4903,7.4903,7.4903,7.4903,7.4903,7.4903,7.4903,7.5168,7.5856,7.6036,0.0,7.7352,7.7018,7.6898,7.7173,7.6215,7.5677,7.5677,7.5138,7.4903,0.0,7.4903,7.4903,7.4903,7.4903,7.4903,7.4903,7.4903,7.5927,7.7598,7.793,7.9379,8.1339,8.1877,8.2276,8.2411,8.0766,8.2239,8.5371,0.0,0.0,0.0,0.0,0.0,0.0,0.0,0.0,3.03,2.9935,2.9688,2.9052,2.779,2.7077,0.0,0.0,2.5219,2.5785,2.7408,2.8743,3.1273,3.5311,3.6835,3.7965,3.8793,3.912,3.9296,3.9296,3.9296,3.9446,0.0,0.0,0.0,0.0,0.0,0.0,0.0,0.0,0.0,0.0,0.0,0.0,3.8417,3.8417,3.8642,3.8818,3.824,0.0,0.0,0.0,0.0,0.0,0.0,0.0,3.9446,4.0249,4.3435,4.7889,5.3077,6.0023,6.6897,7.1586,7.4773,7.6539,7.5617,7.5138,7.4903,7.4869,7.5138,7.5377,7.5377,7.5916,7.6245,7.5886,7.6125,7.6215,7.5856,7.5796,7.5796,7.5796,7.5796,7.5796,7.5796,7.5796,7.5946,7.627,7.6335,7.6599,7.7287,7.6988,7.6958,7.7287,7.6694,7.6335,7.6335,7.5976,7.5796,7.5796,7.5796,7.5647,7.5347,7.5053,7.4903,7.4903,7.4903,7.5746,7.7169,7.7169,7.8513,8.0613,8.0996,8.2152,8.3514,8.2465,8.1195,8.0808,0.0,0.0,0.0,0.0,0.0,0.0,0.0,0.0,0.0,2.8728,2.8865,2.8589,2.7178,2.6147,2.5469,0.0,0.0,0.0,2.6656,2.9395,3.2842,3.7013,3.7713,3.8542,3.9672,3.9697,3.9697,3.9697,3.9697,0.0,0.0,0.0,0.0,0.0,0.0,0.0,0.0,0.0,0.0,0.0,0.0,0.0,0.0,0.0,0.0,3.9019,3.8919,3.9245,3.9697,3.9697,0.0,0.0,0.0,0.0,3.9873,4.075,4.2858,4.6872,5.5832,6.1332,6.6525,7.4748,7.6779,7.6485,7.5168,7.4993,7.5228,7.5796,7.5916,7.5946,7.6036,7.6539,7.6928,7.6808,7.6898,7.6928,7.6808,7.6779,7.6779,7.6779,7.6779,7.6779,7.6779,7.6779,7.6779,7.6779,7.6779,7.6838,7.6958,7.6838,7.6838,7.6958,7.6749,7.6629,7.6629,7.6629,7.6629,7.6629,7.6629,7.6335,7.5707,7.5258,7.5023,7.4903,7.4903,7.5318,7.6066,7.6066,7.7338,7.9293,7.9308,8.1058,8.3747,8.4947,8.1967,7.8464,0.0,0.0,0.0,0.0,0.0,0.0,0.0,0.0,0.0,0.0,2.7016,2.6886,2.6973,2.5898,2.516,2.5102,2.5082,2.6055,2.8321,0.0,0.0,3.7111,3.7713,3.8542,3.9672,3.9697,3.9697,3.9697,3.9697,0.0,0.0,0.0,0.0,0.0,0.0,0.0,0.0,0.0,0.0,0.0,0.0,0.0,0.0,0.0,0.0,0.0,3.907,3.9245,3.9697,3.9697,3.9697,0.0,0.0,0.0,3.9722,3.9873,4.4419,4.9752,5.1186,6.0115,7.0268,7.5503,7.6779,7.6485,7.5168,7.5347,7.5796,7.5886,7.5916,7.6066,7.6569,7.7233,7.7502,7.6898,7.7287,7.7472,7.6868,7.6779,7.6779,7.6779,7.6779,7.6779,7.6779,7.6779,7.6779,7.6779,7.6779,7.7048,7.7652,7.7108,7.7048,7.7652,7.6604,7.6036,7.6036,7.6036,7.6036,7.6036,7.6036,7.5677,7.5018,7.5527,7.5437,7.4903,7.4903,7.5587,7.6659,7.6659,7.7547,7.8875,7.8864,7.913,8.0283,8.6311,8.7947,8.7396,0.0,0.0,0.0,0.0,0.0,0.0,0.0,0.0,0.0,0.0,0.0,2.6816,2.6992,2.605,2.5352,2.5121,2.5722,2.7526,3.0881,3.3352,3.5454,3.7135,3.7713,3.8391,3.9245,3.9546,3.9697,3.9697,0.0,0.0,0.0,3.9998,3.9998,0.0,0.0,0.0,0.0,0.0,0.0,0.0,0.0,4.0696,0.0,0.0,0.0,0.0,0.0,3.9245,3.9697,3.9697,3.9697,3.9697,3.9697,0.0,0.0,0.0,4.2586,4.7379,5.4698,6.3155,7.1009,7.5627,7.6779,7.6539,7.5677,7.5677,7.6096,7.6814,7.6963,7.7053,7.7322,7.7921,7.825,7.7981,7.816,7.825,7.7981,7.7921,7.7921,7.7921,7.7921,7.7921,7.7921,7.7921,7.7921,7.7921,7.7592,7.7652,7.831,7.7741,7.7682,7.834,7.7801,7.7352,7.6963,7.6963,7.6963,7.6963,7.6963,7.6814,7.6514,7.6455,7.6066,7.5437,7.5437,7.5976,7.6819,7.7407,7.8875,8.0834,8.214,8.3435,8.494,8.7979,8.912,8.91,0.0,0.0,0.0,0.0,0.0,0.0,0.0,0.0,0.0,0.0,0.0,2.6986,2.6986,0.0,0.0,0.0,2.6293,2.8551,3.2461,3.3943,3.5403,3.6934,3.7638,3.8266,3.8894,3.9296,3.9546,3.9697,0.0,0.0,3.9923,4.0299,4.0375,0.0,3.9973,0.0,0.0,0.0,0.0,0.0,4.0721,4.4227,0.0,0.0,0.0,0.0,4.1925,0.0,4.0276,3.9848,3.9697,3.9697,3.9697,3.9697,0.0,0.0,0.0,4.4487,5.608,6.2709,6.7725,7.3359,7.528,7.5821,7.5886,7.6155,7.6664,7.7622,7.7951,7.8041,7.8041,7.846,7.8789,7.8789,7.8789,7.8789,7.8789,7.8789,7.8789,7.8789,7.8789,7.8789,7.8789,7.8789,7.8789,7.8789,7.834,7.828,7.8759,7.816,7.8041,7.8519,7.837,7.8041,7.7562,7.7711,7.7801,7.7801,7.7801,7.7711,7.7562,7.7197,7.6724,7.6125,7.5976,7.6489,7.7461,7.8057,7.9868,8.2552,8.4533,8.6633,8.8505,8.8409,8.866,8.9088,0.0,0.0,0.0,0.0,0.0,0.0,0.0,0.0,0.0,0.0,0.0,2.6986,2.6986,2.6225,2.5777,2.6026,2.6566,2.8375,3.1916,3.3746,3.5228,3.6405,3.7437,0.0,3.8894,3.8919,3.9195,0.0,0.0,0.0,4.0449,4.0501,4.075,4.1175,4.0675,3.9848,3.8843,0.0,0.0,0.0,0.0,4.7836,0.0,0.0,0.0,0.0,0.0,0.0,0.0,4.025,3.9697,3.9697,0.0,0.0,0.0,0.0,0.0,0.0,5.0398,5.4528,5.8725,6.7037,7.112,7.3612,7.5467,7.6844,7.7741,7.7801,7.831,7.8729,7.8729,7.8759,7.8789,7.8789,7.8789,7.8789,7.8789,7.8789,7.8789,7.8789,7.8789,7.8789,7.8789,7.8789,7.8789,7.8789,7.8759,7.8759,7.8789,7.816,7.7831,7.7861,7.7227,7.6868,7.6838,7.7466,7.7801,7.7801,7.7801,7.7472,7.6868,7.7502,7.7377,7.6719,7.6155,7.7122,7.9136,7.8555,8.0048,8.2776,8.3848,8.5382,8.6932,8.6423,8.7461,8.9086,0.0,0.0,0.0,0.0,0.0,0.0,0.0,0.0,0.0,0.0,0.0,0.0,0.0,0.0,0.0,2.711,0.0,0.0,0.0,3.4676,3.5707,3.6859,3.7613,3.8266,3.8894,3.9245,0.0,0.0,0.0,3.9597,3.9998,4.035,4.06,4.0775,4.0575,4.0099,3.9421,3.9421,0.0,0.0,0.0,0.0,0.0,0.0,0.0,0.0,0.0,0.0,0.0,0.0,0.0,0.0,0.0,0.0,0.0,0.0,4.0725,4.2774,4.9566,5.3309,5.7021,6.3957,6.8667,7.2026,7.3612,7.5647,7.7412,7.825,7.8639,7.8789,7.8789,7.8789,7.8789,7.8789,7.8789,7.8789,7.8789,7.8789,7.8789,7.8789,7.8789,7.8789,7.8789,7.8789,7.8789,7.8789,7.8789,7.8789,7.8789,7.8579,7.843,7.843,7.822,7.7891,7.7472,7.7682,7.7801,7.7801,7.825,7.831,7.8071,7.7891,7.7682,7.7418,7.7422,7.818,7.9373,7.9289,8.1323,8.4573,8.5578,8.6612,8.7651,8.79,8.7872,8.7832,0.0,0.0,0.0,0.0,0.0,0.0,0.0,0.0,0.0,0.0,0.0,0.0,0.0,0.0,0.0,0.0,3.1692,3.3637,3.5182,3.5757,3.6409,3.7185,3.7889,3.8492,3.8894,0.0,0.0,0.0,0.0,0.0,0.0,0.0,4.06,4.075,4.0575,4.03,0.0,0.0,0.0,3.998,0.0,0.0,5.8142,0.0,0.0,0.0,0.0,0.0,0.0,0.0,0.0,0.0,0.0,0.0,0.0,0.0,0.0,4.239,4.743,5.0866,5.4512,6.0743,6.5154,6.8884,7.2445,7.4599,7.6395,7.837,7.8789,7.8789,7.8789,7.8789,7.8789,7.8789,7.8789,7.8789,7.8789,7.8789,7.8789,7.8789,7.8789,7.8789,7.8789,7.8789,7.8789,7.8789,0.0,0.0,7.8789,7.8789,7.8789,7.8789,7.8789,7.8579,7.813,7.813,7.813,7.813,7.8579,7.8789,7.8759,7.834,7.8181,7.8335,7.8798,7.9448,8.026,8.0787,8.293,8.603,8.6656,8.7211,8.7685,8.7968,8.7614,8.6969,0.0,0.0,0.0,0.0,0.0,0.0,0.0,0.0,0.0,0.0,0.0,0.0,0.0,0.0,0.0,0.0,3.4387,3.5253,3.6331,3.6934,3.7235,3.7261,0.0,0.0,0.0,0.0,0.0,0.0,0.0,0.0,0.0,0.0,4.075,0.0,4.0725,4.0499,4.0524,0.0,4.0675,4.0946,0.0,5.9392,5.8715,0.0,0.0,0.0,5.5488,5.3324,0.0,0.0,0.0,0.0,0.0,0.0,0.0,0.0,0.0,0.0,0.0,0.0,0.0,5.7082,6.035,6.4036,7.1787,7.3612,7.4629,7.7951,7.8639,7.8669,7.8759,7.8789,7.8789,7.8789,7.8789,7.8789,7.8789,7.8789,7.8789,7.8789,7.8789,7.8789,7.8789,7.8789,7.8789,7.8789,7.8789,7.8789,7.8789,7.8789,7.8789,7.8789,7.8789,7.8789,7.8789,7.8789,7.8789,7.8789,7.8789,7.8789,7.8789,7.8831,7.9041,7.9362,8.0182,8.108,8.2069,8.2966,8.4764,8.6974,8.6941,8.6941,8.6879,8.6371,8.6457,8.6644,0.0,0.0,0.0,0.0,0.0,2.998,2.9863,2.959,0.0,0.0,0.0,0.0,0.0,0.0,0.0,0.0,3.6192,3.6634,3.6959,3.7462,3.7965,3.8416,3.8718,3.9095,0.0,0.0,0.0,0.0,0.0,0.0,0.0,0.0,0.0,0.0,4.0549,4.0499,4.0499,4.065,0.0,0.0,5.4369,5.9692,0.0,0.0,0.0,0.0,0.0,6.5902,0.0,0.0,6.0259,5.1638,0.0,0.0,0.0,0.0,0.0,0.0,4.3466,0.0,0.0,0.0,0.0,0.0,6.4515,6.7208,7.0111,7.436,7.5258,7.5976,7.834,7.8789,7.8789,7.8789,7.8789,7.8789,7.8789,7.8789,7.8789,7.8789,7.8789,7.8789,7.8789,7.8789,7.8789,0.0,7.8789,7.8789,7.8789,7.8789,7.8789,7.8789,7.8789,7.8789,7.8789,7.8789,7.8789,7.8789,7.8789,7.8789,7.8831,7.9607,8.0011,8.0215,8.2361,8.3751,8.4465,8.4222,8.5854,8.8429,8.7888,8.759,8.7467,8.8069,8.6981,8.547,0.0,0.0,3.508,3.4385,3.2305,3.0742,3.0742,3.1082,3.1559,0.0,0.0,0.0,0.0,0.0,0.0,0.0,3.7738,3.8014,3.824,3.8542,3.8868,3.922,3.9245,3.9396,3.9697,0.0,0.0,0.0,0.0,0.0,0.0,0.0,0.0,0.0,0.0,4.03,4.0499,0.0,0.0,0.0,5.4751,0.0,0.0,6.8444,7.2953,0.0,0.0,0.0,7.0137,7.2655,6.4986,0.0,0.0,0.0,0.0,0.0,0.0,0.0,0.0,0.0,0.0,0.0,0.0,0.0,6.3827,6.6221,6.9034,7.4749,7.5946,7.6514,7.843,7.8789,7.8789,7.8789,7.8789,7.8789,7.8789,7.8789,7.8789,7.8789,7.8789,7.8789,7.8789,7.8789,7.8789,7.8789,7.8789,7.8789,7.8789,7.8789,7.8789,7.8789,7.8789,7.8789,7.8789,7.8789,7.8789,7.8789,7.8789,7.919,7.991,8.0532,8.1442,8.2621,8.445,8.574,8.6516,8.6383,8.7461,8.9066,8.8632,8.8334,8.8272,8.8869,8.7997,8.6735,0.0,0.0,3.5507,3.5921,3.3535,3.1572,3.166,3.2915,3.3778,0.0,0.0,0.0,0.0,0.0,0.0,0.0,0.0,3.9195,3.9672,3.9697,3.9697,3.9697,3.9697,3.9697,3.9697,3.9697,0.0,0.0,0.0,0.0,0.0,0.0,0.0,0.0,3.9747,4.0049,4.0524,4.1202,0.0,4.292,5.5722,6.0706,0.0,0.0,7.1701,0.0,7.2339,7.2163,7.2396,7.7205,7.097,0.0,0.0,0.0,0.0,0.0,4.4092,0.0,0.0,0.0,0.0,0.0,0.0,0.0,0.0,6.7148,6.8826,7.5647,7.7113,7.7263,7.7622,7.7771,7.7801,7.7801,7.813,7.846,7.8759,7.8789,7.8789,7.8789,7.8789,7.8789,7.8789,7.8789,7.8789,7.8789,7.8789,7.8789,7.8789,7.8789,7.8789,7.8789,7.8789,7.8789,7.8789,7.8789,7.8789,7.8789,7.9005,7.991,8.1411,8.1787,8.329,8.5561,8.6429,8.7312,8.8158,8.8829,8.91,8.91,8.91,8.91,8.91,8.91,8.91,8.91,3.9747,3.7672,3.6056,3.6407,3.4013,3.2148,3.25,3.3881,3.5325,0.0,0.0,0.0,0.0,0.0,0.0,0.0,0.0,0.0,3.9697,3.9697,3.9697,3.9697,3.9697,3.9697,3.9697,3.9697,3.9697,0.0,0.0,0.0,0.0,0.0,0.0,0.0,0.0,4.0399,4.0601,4.2057,0.0,5.0471,5.7931,0.0,6.3207,7.338,7.7235,7.7265,7.7384,7.7355,7.6771,0.0,7.0536,6.645,0.0,0.0,0.0,0.0,0.0,0.0,0.0,0.0,0.0,0.0,0.0,0.0,0.0,5.9009,6.1194,6.5323,6.655,6.7717,7.041,7.1338,7.173,7.173,7.3945,7.643,7.8489,7.8789,7.8789,7.8789,7.8789,7.8789,7.8789,7.8789,7.8789,7.8789,7.8789,7.8789,7.8789,7.8789,7.8789,7.8789,7.8789,7.8789,7.8789,7.8789,7.8789,7.8825,8.023,8.1066,8.148,8.425,8.5776,8.6376,8.7902,8.8717,8.8897,8.9066,8.91,8.91,8.91,8.91,8.91,8.91,8.91,8.91,4.0499,3.8912,3.7517,3.7321,3.6189,3.5181,3.4799,3.6557,0.0,0.0,0.0,0.0,0.0,0.0,0.0,0.0,0.0,0.0,3.9722,3.9697,3.9697,3.9697,3.9697,3.9697,3.9697,3.9697,3.9697,0.0,0.0,0.0,0.0,0.0,0.0,0.0,0.0,0.0,0.0,0.0,4.6481,5.2493,5.8768,0.0,6.8056,7.6183,7.9507,7.9806,7.9806,7.9597,7.883,7.5804,7.1003,0.0,0.0,5.8847,5.5535,0.0,5.2755,5.5356,0.0,0.0,0.0,5.4102,0.0,0.0,0.0,0.0,6.0745,6.4724,6.5503,6.6101,6.8106,6.8796,6.9125,6.9423,7.2568,7.4903,7.4869,7.7113,7.8789,7.8789,7.8789,7.8789,7.8789,7.8789,7.8789,7.8789,7.8789,7.8789,7.8789,7.8789,7.8789,7.8789,7.8789,7.8789,7.8789,7.8789,7.8789,7.8825,7.9693,8.1001,8.2758,8.4473,8.6181,8.7853,8.8728,8.91,8.91,8.91,8.91,8.91,8.91,8.91,8.91,8.91,8.91,8.91,4.1102,4.0141,3.9109,3.8546,3.8477,3.8244,3.7403,3.9401,0.0,0.0,0.0,0.0,0.0,0.0,0.0,0.0,0.0,0.0,0.0,0.0,4.1003,4.035,4.0023,3.9948,4.02,3.9848,3.9697,3.9697,0.0,0.0,0.0,0.0,0.0,0.0,0.0,0.0,0.0,0.0,0.0,5.47,0.0,6.5807,7.2029,7.7806,8.0255,8.0614,8.0764,8.0554,7.9942,7.8463,0.0,6.5005,6.6758,6.2679,0.0,0.0,0.0,0.0,0.0,0.0,0.0,0.0,0.0,5.6795,0.0,0.0,0.0,0.0,0.0,6.5233,6.5802,6.6012,6.6251,6.6819,0.0,0.0,0.0,7.3821,0.0,7.7233,7.828,7.8729,7.81,7.7921,7.81,7.8729,7.819,7.813,7.8759,7.8789,7.8789,7.8789,7.8789,7.8789,7.8789,7.8789,7.8789,7.8825,7.948,8.1275,8.4027,8.4695,8.6516,8.91,8.91,8.91,8.91,8.91,8.91,8.91,8.91,8.91,8.91,8.91,8.91,8.91,4.0675,4.0217,3.9954,4.0098,3.9455,3.903,3.9329,4.1245,0.0,0.0,0.0,0.0,0.0,0.0,0.0,0.0,0.0,0.0,4.726,0.0,0.0,4.2763,4.1204,4.0877,4.1884,4.0477,3.9697,3.9697,0.0,0.0,0.0,0.0,0.0,0.0,4.7617,0.0,0.0,0.0,5.6514,0.0,6.323,6.5962,0.0,7.7955,8.0375,8.0016,8.0584,8.1123,8.0877,0.0,7.369,7.0995,0.0,6.5458,6.8214,0.0,0.0,0.0,0.0,0.0,0.0,0.0,5.7363,0.0,0.0,0.0,0.0,0.0,0.0,0.0,0.0,0.0,0.0,0.0,0.0,0.0,6.4814,6.7867,7.053,7.1667,7.6485,7.8549,0.0,7.4779,7.5647,7.8579,7.6096,7.5736,7.8639,7.8789,7.8789,7.8789,7.8789,7.8789,7.8789,7.8789,7.8789,7.8825,8.1956,8.3608,8.4091,8.7146,8.8728,8.91,8.91,8.91,8.91,8.91,8.91,8.91,8.91,8.91,8.91,8.91,8.91,8.91,4.1932,4.1842,4.1557,4.0978,4.138,4.1751,4.159,4.3695,0.0,0.0,0.0,0.0,0.0,0.0,0.0,0.0,0.0,5.0343,0.0,0.0,0.0,4.314,4.1706,4.1354,4.2187,4.1178,4.0625,4.0625,4.0625,0.0,0.0,0.0,0.0,0.0,4.9904,0.0,5.2004,0.0,5.8325,0.0,0.0,0.0,0.0,7.8215,8.0644,8.0434,8.0704,8.0973,8.0929,0.0,7.4789,0.0,0.0,0.0,0.0,0.0,0.0,0.0,0.0,0.0,0.0,0.0,0.0,0.0,5.7064,0.0,5.6521,0.0,0.0,0.0,0.0,0.0,0.0,0.0,0.0,0.0,0.0,0.0,6.9213,0.0,0.0,0.0,0.0,0.0,0.0,0.0,7.5736,7.5318,7.8609,7.8789,7.8789,7.8789,7.8789,7.8789,7.8789,7.8789,7.9332,8.0335,8.1787,8.3543,8.5506,8.6935,8.8147,8.91,8.91,8.91,8.91,8.91,8.91,8.91,8.91,8.91,8.91,8.91,8.91,8.91,4.2889,0.0,4.2722,4.1871,4.2992,4.3962,4.3863,4.5686,0.0,0.0,0.0,0.0,4.8002,4.9131,0.0,0.0,0.0,5.3306,0.0,0.0,4.8403,0.0,4.331,0.0,0.0,4.2459,4.1478,4.1302,4.1478,4.1603,0.0,0.0,0.0,0.0,0.0,5.4963,5.7424,0.0,0.0,6.623,6.7119,6.9806,7.3806,7.907,8.1183,8.1332,8.1332,8.1332,8.1145,7.9775,7.5262,0.0,7.5561,0.0,0.0,0.0,0.0,0.0,5.9937,0.0,0.0,0.0,0.0,0.0,0.0,0.0,0.0,0.0,0.0,0.0,0.0,0.0,0.0,0.0,0.0,0.0,0.0,0.0,0.0,0.0,0.0,0.0,0.0,0.0,0.0,0.0,0.0,7.427,7.8819,7.8878,7.8789,7.8789,7.8789,7.8789,7.8789,7.9267,8.0125,8.1411,8.2327,8.4091,8.6543,8.6994,8.7911,8.91,8.91,8.91,8.91,8.91,8.91,8.91,8.91,8.91,8.91,8.91,8.91,8.91,4.2889,4.3014,4.2986,4.293,4.3862,4.4941,4.601,4.6717,0.0,0.0,0.0,0.0,0.0,0.0,0.0,0.0,0.0,6.3902,5.7976,0.0,5.4902,0.0,0.0,4.5497,0.0,4.4647,4.1909,4.1302,4.1909,4.2436,0.0,0.0,0.0,0.0,0.0,5.626,5.8282,6.2928,6.8833,7.4997,7.3777,7.5053,7.7906,0.0,8.2178,8.2747,8.2747,0.0,0.0,7.7127,7.4939,0.0,0.0,0.0,0.0,0.0,0.0,0.0,0.0,0.0,0.0,5.9401,0.0,0.0,0.0,0.0,5.7846,0.0,0.0,0.0,0.0,0.0,0.0,0.0,0.0,0.0,0.0,0.0,0.0,0.0,0.0,0.0,0.0,0.0,0.0,0.0,0.0,0.0,7.9321,7.9148,7.8789,7.8789,7.8789,7.8789,7.8789,8.0475,8.1343,8.1446,8.4757,8.639,8.6573,8.8233,8.9044,8.91,8.91,8.91,8.91,8.91,8.91,8.91,8.91,8.91,8.91,8.91,8.91,8.91,4.3489,4.3514,4.3413,4.3065,4.3288,4.4041,4.5547,4.6828,0.0,0.0,0.0,0.0,0.0,0.0,5.9608,0.0,0.0,6.2195,5.8629,5.7374,0.0,0.0,0.0,4.7657,0.0,0.0,4.4267,4.4091,4.389,4.389,4.4091,0.0,0.0,0.0,0.0,5.9311,0.0,0.0,0.0,0.0,0.0,7.3001,7.6329,0.0,0.0,7.9759,8.1993,8.2806,0.0,8.086,7.8685,7.6782,7.7434,7.5241,7.2676,7.3865,7.3432,0.0,0.0,0.0,7.2146,6.5054,0.0,0.0,0.0,0.0,0.0,0.0,0.0,0.0,0.0,0.0,0.0,0.0,0.0,0.0,0.0,0.0,0.0,0.0,0.0,0.0,0.0,0.0,0.0,0.0,0.0,0.0,0.0,7.9357,7.9267,7.8789,7.8789,7.9338,8.0509,8.11,8.2526,8.4788,8.5966,8.7113,8.8233,8.8813,8.91,8.91,8.91,8.91,8.91,8.91,8.91,8.91,8.91,8.91,8.91,8.91,8.91,8.91,4.4141,4.4091,4.3991,4.3639,4.4066,4.4895,0.0,0.0,0.0,0.0,5.4712,0.0,5.873,0.0,6.1356,0.0,6.3601,6.2697,5.9458,5.9156,0.0,5.7009,5.3281,0.0,0.0,0.0,0.0,4.7832,4.6451,4.5769,4.5769,4.6175,0.0,0.0,0.0,5.946,6.7528,6.7713,7.2156,0.0,0.0,7.3,0.0,0.0,7.6864,7.7798,0.0,8.3495,8.3427,8.3187,8.1691,8.0165,8.1661,7.9064,7.5796,7.7771,7.6664,7.451,7.3343,7.5347,0.0,6.9722,6.9991,0.0,6.3438,0.0,0.0,0.0,0.0,0.0,0.0,0.0,0.0,0.0,0.0,0.0,0.0,0.0,0.0,0.0,0.0,0.0,0.0,0.0,0.0,0.0,0.0,0.0,0.0,0.0,7.9357,7.9178,7.9524,8.0265,8.1377,8.2593,8.4314,8.6513,8.7143,8.7998,8.91,8.91,8.91,8.91,8.91,8.91,8.91,8.91,8.91,8.91,8.91,8.91,8.91,8.91,8.91,8.91,4.479,4.474,4.479,4.4765,4.607,0.0,0.0,0.0,5.1975,0.0,5.5881,5.7939,5.9759,6.2772,6.4697,6.4672,6.6564,0.0,6.0889,6.2004,0.0,0.0,5.9734,6.0071,6.2857,0.0,0.0,0.0,4.9389,4.7983,4.7958,4.7958,4.8234,4.8843,4.9916,0.0,6.7777,6.7625,7.4393,8.468,7.8403,7.5056,7.3979,7.5612,7.6312,7.7124,8.2703,8.4714,8.4624,8.3957,8.3748,8.3628,8.3076,8.2477,8.205,8.2687,8.2387,8.1183,7.7981,7.7556,7.7143,7.3163,0.0,0.0,0.0,0.0,6.64,0.0,0.0,0.0,0.0,0.0,0.0,0.0,0.0,0.0,0.0,0.0,0.0,0.0,0.0,0.0,0.0,0.0,0.0,0.0,0.0,0.0,0.0,0.0,7.8974,7.9886,8.0912,8.148,8.1649,8.4882,8.6543,8.6663,8.8358,8.9134,8.91,8.9134,8.9134,8.91,8.91,8.91,8.91,8.91,8.91,8.91,8.91,8.91,8.91,8.91,8.91,8.91,4.5969,4.6878,4.7581,4.7129,4.7431,4.8033,0.0,0.0,0.0,0.0,5.9859,6.2144,6.5886,6.7041,6.7392,6.699,6.7467,0.0,0.0,0.0,0.0,6.4831,6.1667,6.1391,6.458,5.7876,0.0,5.4536,0.0,4.8962,4.8592,4.8592,4.8667,4.8843,4.9916,5.5355,6.3749,6.3973,6.9588,7.8105,7.5459,7.4284,0.0,0.0,7.8775,7.8394,8.303,8.4714,8.4684,8.4504,8.4444,8.4444,8.4265,8.4085,8.3906,8.3576,8.3367,8.2948,8.1601,8.1721,8.1235,7.7263,7.6664,7.6036,0.0,0.0,0.0,0.0,0.0,0.0,0.0,0.0,0.0,0.0,0.0,0.0,0.0,0.0,0.0,0.0,0.0,0.0,0.0,0.0,0.0,0.0,0.0,0.0,0.0,0.0,0.0,8.1573,8.1509,8.2626,8.5163,8.6057,8.7143,8.8438,8.9443,8.9613,8.9134,8.9681,8.9613,8.91,8.91,8.91,8.91,8.91,8.91,8.91,8.91,8.91,8.91,8.91,8.91,8.91,4.7506,4.8736,4.9798,4.9439,5.1197,0.0,5.2176,0.0,0.0,6.0035,6.1893,0.0,6.7166,6.8823,6.9577,6.9275,6.9225,0.0,0.0,0.0,0.0,6.6865,6.5911,6.6262,6.8145,6.3023,0.0,5.8278,0.0,5.1599,4.9899,4.9396,4.917,4.922,5.0293,5.4628,6.1479,6.7184,7.1221,7.4098,7.695,7.7732,0.0,8.0747,8.1988,8.23,8.4701,8.5581,8.5521,8.5252,8.5132,8.5103,8.4803,8.4714,8.4654,8.4226,8.3927,8.3628,8.3277,8.3457,8.3149,8.0936,8.0883,8.0434,7.6754,7.5911,7.5527,0.0,0.0,0.0,0.0,0.0,0.0,0.0,0.0,0.0,0.0,0.0,0.0,0.0,0.0,0.0,0.0,0.0,0.0,0.0,0.0,0.0,0.0,0.0,0.0,8.0944,8.0174,8.1853,8.645,8.538,8.6234,8.9134,8.985,8.9816,8.9134,8.985,8.9782,8.91,8.91,8.91,8.91,8.91,8.91,8.91,8.91,8.91,8.91,8.91,8.91,8.91,4.9421,5.0652,5.1733,5.1624,0.0,0.0,0.0,5.618,0.0,6.1456,0.0,6.4957,6.6589,6.9351,7.1083,7.1083,0.0,7.0079,6.7668,6.9752,7.0229,6.8321,7.0531,7.1951,7.2328,6.9668,0.0,0.0,0.0,0.0,5.128,5.0193,4.969,4.9741,5.0795,5.4636,6.0932,7.2048,7.4972,7.2797,8.0314,8.2438,8.1317,8.3347,8.5192,8.6728,8.6728,8.6728,8.6638,8.603,8.5821,8.5731,8.5162,8.4983,8.4953,8.4863,8.4444,8.3927,8.3748,8.3688,8.3688,8.3598,8.4085,8.3846,8.0936,8.0368,7.9627,7.6754,7.5647,7.5198,0.0,0.0,0.0,0.0,0.0,0.0,0.0,0.0,0.0,0.0,0.0,0.0,0.0,0.0,0.0,0.0,0.0,0.0,0.0,0.0,0.0,8.0135,7.9142,8.0967,8.6082,0.0,8.5162,8.8273,8.9664,8.9951,8.9241,9.0019,8.9918,8.9078,8.9106,8.91,8.91,8.91,8.91,8.91,8.91,8.91,8.91,8.91,8.91,8.91,0.0,0.0,0.0,0.0,0.0,5.9319,6.1201,6.2596,6.4028,6.5735,6.7015,6.8396,7.0029,7.0732,7.1083,7.1083,7.1083,0.0,0.0,0.0,0.0,7.0531,7.0958,7.2354,7.474,7.2131,6.9068,0.0,0.0,0.0,5.1272,5.0594,5.0268,5.0293,5.0971,5.5684,6.3329,6.6891,0.0,7.6914,8.0012,8.2017,8.3413,8.5404,8.6359,8.6728,8.6728,8.6728,8.6698,8.6578,8.6509,8.6519,8.6359,8.6329,8.621,8.5671,8.5432,8.5103,8.3987,8.3688,8.3568,8.3068,8.3427,8.3718,8.3149,8.3419,8.3696,8.3098,8.2469,8.0996,7.7861,0.0,0.0,0.0,0.0,0.0,0.0,0.0,0.0,0.0,0.0,0.0,0.0,0.0,0.0,0.0,0.0,0.0,0.0,0.0,0.0,0.0,8.469,0.0,0.0,0.0,8.7126,8.3796,8.8726,9.0729,9.0019,9.0763,9.0373,8.9083,8.9083,8.91,8.91,8.91,8.91,8.91,8.91,8.91,8.91,8.91,8.91,8.91,0.0,0.0,0.0,0.0,0.0,0.0,0.0,6.7794,0.0,6.7593,6.812,6.8924,6.9727,7.1083,7.1937,7.1937,7.1937,7.1937,7.1937,7.1937,7.1937,7.1937,7.3115,0.0,7.5793,7.6052,7.2943,6.6286,0.0,0.0,5.1272,5.0393,4.9992,5.0182,5.4335,5.8534,6.3022,0.0,0.0,7.8398,8.2271,8.4407,8.5372,8.6329,8.6728,8.6728,8.6728,8.6728,8.6728,8.6728,8.6728,8.6728,8.6728,8.6728,8.6668,8.6299,8.597,8.5551,8.4923,8.4226,8.3628,8.3337,8.3517,8.3688,8.3688,8.4196,8.4714,8.4714,8.4444,8.279,7.8125,7.1933,0.0,0.0,0.0,0.0,0.0,0.0,0.0,0.0,0.0,0.0,0.0,0.0,0.0,0.0,0.0,0.0,0.0,0.0,0.0,0.0,0.0,0.0,0.0,0.0,0.0,8.6013,8.9566,9.0899,9.0256,9.1372,9.0856,8.9086,8.9083,8.91,8.91,8.9111,8.91,8.91,8.91,8.91,8.91,8.91,8.91,8.91,0.0,5.7562,0.0,0.0,6.3274,0.0,6.7719,7.1083,7.2313,6.925,6.9225,6.9456,6.9456,7.1388,7.2693,7.2693,7.2693,7.2693,7.2693,7.2693,7.2904,7.3418,7.5218,7.6667,7.7646,8.0147,7.737,0.0,0.0,0.0,0.0,5.1008,5.0713,5.2378,5.8601,0.0,0.0,0.0,7.9443,8.0492,8.4901,8.6728,8.6728,8.6728,8.6728,8.6728,8.6728,8.6728,8.6728,8.6728,8.6728,8.6728,8.6728,8.6728,8.6728,8.6728,8.6299,8.5881,8.5731,8.4923,8.4077,8.3927,8.3807,8.3688,8.3688,8.4106,8.4504,8.4504,8.4624,8.3128,7.7945,7.4266,0.0,0.0,0.0,0.0,0.0,0.0,0.0,0.0,0.0,0.0,0.0,0.0,0.0,0.0,0.0,0.0,0.0,0.0,0.0,0.0,0.0,8.0394,8.5041,0.0,8.5452,8.7998,9.0243,9.1068,9.0729,9.1817,9.1503,9.0019,8.9369,8.9122,8.9111,8.9083,8.91,8.91,8.91,8.91,8.91,8.91,8.91,8.91,0.0,0.0,0.0,0.0,0.0,0.0,6.8296,7.0983,7.2643,7.2266,7.2266,7.2292,7.2292,7.2542,7.2693,7.2693,7.2693,7.2693,7.2693,7.2693,7.3652,7.5786,7.6079,7.8179,8.2435,8.343,8.1915,0.0,0.0,0.0,0.0,5.3851,5.4449,0.0,0.0,0.0,0.0,7.8166,8.1273,8.5952,8.6469,8.6728,8.6728,8.6728,8.6728,8.6728,8.6728,8.6728,8.6728,8.6728,8.6728,8.6728,8.6728,8.6728,8.6728,8.6728,8.6668,8.6449,8.5851,8.5611,8.5372,8.4773,8.4136,8.3688,8.3688,8.3748,8.3777,8.3777,8.4256,8.3277,7.8579,7.837,7.7293,0.0,0.0,0.0,0.0,0.0,0.0,0.0,0.0,0.0,0.0,0.0,0.0,0.0,0.0,0.0,0.0,0.0,0.0,7.8445,0.0,7.9625,7.7284,8.5387,8.772,8.4257,8.9034,9.1609,9.2189,9.216,9.2489,9.3036,9.0282,8.9106,8.9106,8.9106,8.91,8.91,8.91,8.91,8.91,8.91,8.91,8.91,0.0,0.0,0.0,0.0,0.0,0.0,0.0,7.3191,7.43,7.2857,7.2693,7.2693,7.2693,7.2693,7.2693,7.2693,7.2693,7.2693,7.2693,7.4047,7.5218,7.6169,7.8929,8.1265,8.3174,8.5252,8.3984,0.0,0.0,0.0,0.0,5.9785,6.1367,0.0,0.0,7.5205,7.8814,8.2438,8.5001,8.6728,8.6728,8.6728,8.6728,8.6728,8.6728,8.6728,8.6728,8.6728,8.6728,8.6728,8.6728,8.6728,8.6728,8.6728,8.6728,8.6728,8.6728,8.6668,8.6359,8.6,8.5641,8.5372,8.4803,8.4166,8.3777,8.3688,8.3688,8.3688,8.3897,8.3628,8.223,7.9806,7.8214,0.0,0.0,0.0,0.0,0.0,0.0,0.0,0.0,0.0,0.0,0.0,0.0,0.0,0.0,0.0,0.0,0.0,0.0,7.3322,0.0,8.3112,7.9136,8.6025,8.8886,8.7629,9.0129,9.1711,9.2392,9.2831,9.3219,9.3428,9.0399,8.9104,8.9072,8.9111,8.91,8.91,8.91,8.91,8.91,8.91,8.91,8.91,6.7964,0.0,6.7417,0.0,7.1738,7.2916,7.2966,7.5104,7.5897,7.3477,7.317,7.3044,7.2718,7.2693,7.2693,7.2693,7.2693,7.2998,7.3699,7.5263,7.6821,7.8179,8.1435,0.0,8.4223,8.6316,8.5625,8.1997,7.6937,0.0,0.0,6.6851,6.8337,0.0,7.7689,8.0246,8.1283,8.5556,8.7107,8.6728,8.6728,8.6728,8.6728,8.6728,8.6728,8.6728,8.6728,8.6728,8.6728,8.6728,8.6728,8.6728,8.6728,8.6728,8.6728,8.6728,8.6728,8.6728,8.6728,8.6329,8.597,8.597,8.5492,8.4833,8.4136,8.3837,8.3688,8.3688,8.3688,8.3897,8.4594,8.1474,7.956,8.1901,0.0,0.0,0.0,0.0,0.0,0.0,0.0,0.0,0.0,0.0,0.0,0.0,0.0,0.0,0.0,0.0,0.0,0.0,0.0,0.0,0.0,8.6464,8.9579,9.0527,9.1034,9.1812,9.2793,9.3334,9.3621,9.3496,9.1329,8.9942,8.9104,8.9111,8.91,8.91,8.9089,8.9089,8.9117,8.9106,8.91,8.91,6.9948,6.8899,6.8823,7.2113,7.3755,7.4407,7.3673,7.6055,7.7144,7.471,7.4397,7.3971,7.2793,7.2693,7.2693,7.2693,7.2693,7.3699,7.6014,7.6169,7.8267,0.0,0.0,8.4264,8.6619,8.6689,8.7317,8.8604,0.0,0.0,8.0104,7.4823,7.475,7.9162,8.0294,8.3299,8.7546,8.6958,8.6728,8.6728,8.6728,8.6728,8.6728,8.6728,8.6728,8.6728,8.6728,8.6728,8.6728,8.6728,8.6728,8.6728,8.6728,8.6728,8.6728,8.6728,8.6728,8.6728,8.6728,8.6698,8.6698,8.6698,8.618,8.5521,8.4863,8.4166,8.3688,8.3688,8.3688,8.3897,8.4594,8.4106,8.2551,7.9387,0.0,0.0,0.0,0.0,0.0,0.0,0.0,6.9123,7.4364,0.0,0.0,0.0,0.0,0.0,0.0,0.0,0.0,7.9731,8.1734,0.0,8.1597,8.659,8.9816,9.1271,9.1305,9.2083,9.3601,9.3601,9.3621,9.3598,9.3564,9.1822,8.9106,8.9106,8.9106,8.9101,8.9104,8.9094,8.9122,8.9083,8.91,8.91,7.2991,7.2665,7.264,7.3694,7.5522,7.6282,7.443,7.6293,7.7076,7.4735,7.4423,7.4272,7.392,7.387,7.387,0.0,7.5362,7.6642,0.0,8.0086,8.2326,8.3823,8.5006,8.5921,8.6659,8.6728,8.7107,8.8005,0.0,0.0,0.0,7.9649,8.1036,8.5021,8.5346,8.606,8.6988,8.6818,8.6728,8.6728,8.6728,8.6728,8.6728,8.6728,8.6728,8.6728,8.6728,8.6728,8.6728,8.6728,8.6728,8.6728,8.6728,8.6728,8.6728,8.6728,8.6728,8.6728,8.6728,8.6728,8.6728,8.6728,8.6549,8.618,8.5521,8.4534,8.3568,8.3158,8.3068,8.3397,8.4504,8.4136,8.3508,8.2918,8.2798,0.0,0.0,0.0,0.0,0.0,0.0,7.0592,0.0,6.9032,0.0,0.0,0.0,0.0,0.0,0.0,0.0,0.0,8.3544,0.0,8.2297,8.7335,9.0324,9.1305,9.1812,9.259,9.3601,9.3601,9.3596,9.3621,9.3602,9.307,9.2179,9.2188,9.2178,9.2178,9.2168,9.1516,9.0475,8.9477,8.9432,8.9782,7.4423,7.4423,7.4423,7.4423,7.6555,7.7462,7.5086,7.6939,7.7728,7.5341,7.5025,7.5389,7.6305,7.6376,0.0,7.5787,7.7957,7.9785,8.0644,8.3132,8.4978,8.5842,8.6901,8.7317,8.7077,8.7077,0.0,8.7706,8.5073,8.3846,8.3995,8.3995,8.5312,8.7706,8.7437,8.7227,8.7048,8.6818,8.6878,8.7048,8.6818,8.6838,8.7048,8.6818,8.6878,8.7018,8.6818,8.6838,8.7018,8.6748,8.6728,8.6728,8.6728,8.6728,8.6728,8.6728,8.6728,8.6728,8.6728,8.6728,8.6728,8.6728,8.6728,8.6509,8.5851,8.4474,8.3337,8.3158,8.2986,8.3136,8.4145,8.3816,8.3576,8.4196,8.3457,8.2537,8.1789,0.0,0.0,0.0,0.0,0.0,0.0,7.2978,0.0,0.0,0.0,0.0,0.0,0.0,0.0,7.7547,8.6227,0.0,8.5496,8.8609,9.0729,9.1711,9.2489,9.3098,9.3601,9.3601,9.3601,9.3601,9.3616,9.3612,9.3578,9.3622,9.3612,9.3612,9.3602,9.3011,9.2063,9.1125,9.0594,9.03,7.493,7.4859,7.474,0.0,7.6968,0.0,7.5669,7.7869,7.8997,7.6721,7.6573,7.7525,7.9698,8.0124,7.9767,7.8744,0.0,0.0,0.0,8.5431,8.6472,8.8672,8.8693,8.8394,8.7796,8.7736,8.7676,8.7646,8.8304,8.8274,8.7646,8.7646,8.7646,8.7616,8.6958,8.7048,8.7586,8.6958,8.7077,8.7646,8.6958,8.7077,8.7646,8.6988,8.7137,8.7616,8.6988,8.7167,8.7616,8.6938,8.6728,8.6728,8.6728,8.6758,8.6788,8.6788,8.6758,8.6728,8.6788,8.6758,8.6728,8.6728,8.6728,8.6509,8.5851,8.4273,8.3106,8.3568,8.3217,8.2986,8.3568,8.3247,8.3038,8.3598,8.3068,8.1968,8.0075,0.0,0.0,0.0,0.0,0.0,0.0,7.7399,8.032,0.0,0.0,0.0,0.0,0.0,7.8168,8.7213,8.9353,9.0324,9.029,9.0324,9.1068,9.2493,9.3233,9.3601,9.3601,9.3601,9.3601,9.3601,9.3601,9.3601,9.3601,9.3601,9.3601,9.3601,9.3607,9.3598,9.3627,9.3626,9.241,9.0789,0.0,0.0,7.8454,7.8454,7.7865,7.7174,7.6581,7.908,8.0693,7.9598,8.1141,8.2382,8.2447,8.4148,8.518,8.4869,8.5397,8.5994,8.6543,8.7858,8.8889,8.9441,8.8963,8.8604,8.8454,8.7975,8.7437,8.6968,8.7616,8.7586,8.6968,8.6968,8.6968,8.6928,8.6788,8.6818,8.6938,8.6788,8.7077,8.7646,8.6958,8.7077,8.7676,8.7526,8.7556,8.7676,8.7526,8.7556,8.7616,8.6938,8.6728,8.6728,8.6728,8.7048,8.7467,8.7467,8.7077,8.6818,8.7317,8.7077,8.6728,8.6728,8.6728,8.6509,8.5851,8.4953,8.4145,8.3777,8.3217,8.2986,8.3568,8.3568,8.3508,8.3688,8.1931,8.0345,7.9896,7.81,0.0,0.0,7.5198,7.5707,7.6993,8.01,8.0997,0.0,0.0,0.0,0.0,8.1378,8.3244,8.7438,9.0388,9.1609,9.1034,9.1609,9.2387,9.33,9.3533,9.3601,9.3601,9.3601,9.3601,9.3601,9.3601,9.3601,9.3601,9.3601,9.3601,9.3601,9.3596,9.3626,9.3592,9.3627,9.3292,9.2798,8.2996,8.25,8.1896,8.2185,8.1398,8.0724,8.0724,8.2164,8.3123,8.2705,8.3917,8.5055,8.581,8.7134,8.8379,8.9448,8.9006,8.8641,8.8641,8.9585,9.01,9.01,8.9771,8.9441,8.9183,8.8783,8.8274,8.7586,8.7975,8.7975,8.7586,8.7586,8.7806,8.8075,8.7776,8.7586,8.7586,8.7287,8.7526,8.8095,8.7407,8.7736,8.8574,8.8274,8.8334,8.8574,8.8274,8.8155,8.8035,8.7377,8.6928,8.6758,8.7048,8.7407,8.7826,8.8424,8.8125,8.7676,8.8065,8.7676,8.7077,8.6788,8.6449,8.621,8.615,8.5162,8.4226,8.4166,8.3427,8.2896,8.3217,8.3277,8.3397,8.3658,8.1504,7.9889,8.0225,7.7981,7.6664,7.7592,7.7682,7.834,7.9926,8.3335,8.4439,8.2004,8.586,0.0,8.5809,8.7333,8.8391,8.8554,9.0724,9.188,9.1812,9.2556,9.3165,9.3601,9.3601,9.3601,9.3601,9.3601,9.3601,9.3601,9.3601,9.3601,9.3601,9.3601,9.3601,9.3601,9.3601,9.3601,9.3601,9.3587,9.3583,9.3515,8.5396,8.5253,8.5192,8.5767,8.561,8.5462,8.5545,8.5981,8.6268,8.6268,8.6637,8.7571,8.9477,8.9699,9.0489,9.2414,9.1566,9.0866,9.0746,9.0657,9.0597,9.0597,9.0597,9.0369,8.9872,8.9872,8.9441,8.8693,8.8783,8.8783,8.8693,8.8693,8.8993,8.9542,8.8933,8.8693,8.8634,8.7975,8.8155,8.8753,8.8005,8.8484,8.9662,8.9093,8.9213,8.9632,8.9063,8.8843,8.8723,8.8065,8.7407,8.6928,8.7526,8.7766,8.8035,8.9123,8.9153,8.8813,8.8723,8.8125,8.7437,8.6958,8.6329,8.6,8.6578,8.5222,8.3987,8.4594,8.3666,8.2806,8.2806,8.2806,8.2806,8.279,8.0936,7.9597,7.9866,0.0,7.7766,7.956,8.0165,8.1084,8.289,8.6193,8.8225,8.8267,9.1576,9.3233,9.2426,9.3165,9.2607,9.0344,9.1177,9.1947,9.2561,9.3267,9.3601,9.3601,9.3601,9.3601,9.3601,9.3601,9.3601,9.3601,9.3601,9.3601,9.3601,9.3601,9.3601,9.3601,9.3601,9.3601,9.3601,9.3601,9.3601,9.3601,9.0905,8.9672,8.8272,8.8431,8.7079,8.6189,8.6734,8.9072,9.0763,9.0763,9.2695,9.3747,9.2952,9.2876,9.284,9.2601,9.2404,9.2075,9.1464,9.0896,9.0597,9.0597,9.0597,9.0567,9.0447,9.0447,8.989,8.8693,8.9273,8.9273,8.8693,8.8693,8.8753,8.8843,8.8723,8.8693,8.8634,8.7975,8.8394,8.9452,8.8185,8.8484,8.9692,8.9602,8.9632,8.9692,8.9602,8.9542,8.9452,8.8753,8.8095,8.7556,8.7676,8.8095,8.8454,8.8125,8.8723,8.9423,8.8843,8.7796,8.6958,8.7437,8.7018,8.6578,8.6698,8.5581,8.4594,8.4684,8.3666,8.2806,8.2806,8.2806,8.1908,7.9178,7.84,7.7562,7.6041,7.7352,7.8819,7.9716,8.1744,8.3379,8.4152,8.6645,8.8339,8.868,9.1747,9.3233,9.2426,9.3165,9.3415,9.3013,9.3149,9.333,9.3402,9.3567,9.3601,9.3601,9.3601,9.3601,9.3601,9.3601,9.3601,9.3601,9.3601,9.3601,9.3601,9.3601,9.3601,9.3601,9.3601,9.3601,9.3601,9.3601,9.3601,9.3601,9.3297,9.2812,9.2217,9.2968,9.2369,9.1879,9.2168,9.3454,9.4365,9.4365,9.5392,9.5875,9.529,9.4888,9.4678,9.4738,9.375,9.3002,9.2703,9.1716,9.0956,9.0627,9.0597,9.0597,9.0597,9.0597,9.0298,8.9741,9.004,9.004,8.9741,8.9741,8.992,9.0249,8.989,8.9741,8.9681,8.8663,8.8783,8.9632,8.8634,8.9023,9.019,9.019,9.019,9.019,9.019,8.998,8.9662,8.9363,8.8783,8.8304,8.8634,8.9003,8.9232,8.9262,8.9202,8.9033,8.8334,8.7975,8.7736,8.7706,8.7736,8.7676,8.7317,8.621,8.5252,8.5252,8.4205,8.3277,8.3277,8.3277,8.2559,8.0315,7.9357,7.8938,7.9124,7.9567,8.0748,8.3076,8.4771,8.5973,8.6469,8.8783,9.0162,8.9941,9.2202,9.3436,9.3064,9.3402,9.3601,9.3601,9.3601,9.3601,9.3601,9.3601,9.3601,9.3601,9.3601,9.3601,9.3601,9.3601,9.3601,9.3601,9.3601,9.3601,9.3601,9.3601,9.3601,9.3601,9.3601,9.3601,9.3601,9.3601,9.3601,9.3601,9.4618,9.4977,9.5396,9.6428,9.6607,9.6667,9.6817,9.6803,9.6862,9.7012,9.7012,9.6952,9.6847,9.6324,9.6174,9.6578,9.5081,9.399,9.384,9.2583,9.1434,9.0627,9.0597,9.0597,9.0597,9.0597,9.0597,9.0597,9.0597,9.0597,9.0597,9.0597,9.0956,9.1596,9.1046,9.0926,9.0956,8.9681,8.9531,9.004,8.9232,8.9591,9.0597,9.0597,9.0507,9.0388,9.0537,9.0219,8.9722,8.983,8.9441,8.8993,8.9542,8.9722,8.9782,9.01,8.9382,8.8424,8.8215,8.8185,8.8215,8.8185,8.8304,8.8364,8.8005,8.6898,8.591,8.591,8.4863,8.3927,8.3927,8.3927,8.3329,8.1601,8.0853,8.1038,8.2511,8.2283,8.3259,8.6931,8.7869,8.8524,8.9268,9.1109,9.2173,9.2056,9.3323,9.4011,9.3842,9.3842,9.3774,9.3634,9.3601,9.3601,9.3601,9.3601,9.3601,9.3601,9.3601,9.3601,9.3601,9.3601,9.3601,9.3601,9.3601,9.3601,9.3601,9.3601,9.3601,9.3601,9.3601,9.3601,9.3601,9.3601,9.3601,9.3601,9.5486,9.6025,9.6488,9.6607,9.6607,9.6817,9.7341,9.7431,9.767,9.8299,9.8389,9.8119,9.7491,9.7371,9.7132,9.6667,9.5875,9.5187,9.4588,9.3272,9.1955,9.0657,9.0597,9.0597,9.0597,9.0597,9.0597,9.0597,9.0597,9.0597,9.0597,9.0597,9.0956,9.1626,9.1566,9.1895,9.2374,9.1016,9.0836,9.1357,9.01,9.001,9.0597,9.0597,9.0249,8.9872,9.0388,9.0219,8.9812,9.0369,9.013,8.9632,8.9692,8.9722,8.9602,8.8993,8.8334,8.8035,8.9243,8.8255,8.7297,8.9123,8.8634,8.7915,8.8484,8.7586,8.6638,8.6638,8.5551,8.4654,8.4654,8.4654,8.3606,8.0464,8.1422,8.2578,8.259,8.4134,8.6454,8.9735,9.0166,9.085,9.258,9.2905,9.3708,9.5329,9.5574,9.533,9.4654,9.462,9.4315,9.3634,9.3601,9.3601,9.3601,9.3601,9.3601,9.3601,9.3601,9.3601,9.3601,9.3601,9.3601,9.3601,9.3601,9.3601,9.3601,9.3601,9.3601,9.3601,9.3601,9.3601,9.3601,9.3601,9.3601,9.3601,9.6114,9.6713,9.7281,9.77,9.779,9.785,9.8089,9.8119,9.8239,9.8478,9.8493,9.8419,9.8149,9.776,9.7581,9.776,9.6803,9.5935,9.5247,9.4349,9.2883,9.0687,9.0597,9.0597,9.0597,9.0597,9.0597,9.0597,9.0597,9.0597,9.0597,9.0597,9.1165,9.2194,9.1805,9.2194,9.3122,9.1805,9.1386,9.1536,9.0638,9.0388,9.0597,9.0597,9.0249,8.9752,8.995,8.986,8.9752,8.995,9.013,9.0279,9.0279,9.0279,9.0219,8.998,8.9441,8.9063,8.9572,8.8554,8.7676,8.9303,8.9333,8.8993,8.9273,8.8274,8.7317,8.7317,8.624,8.5312,8.5312,8.5312,8.4504,8.205,8.2948,8.4246,8.4957,8.6416,8.8715,9.2275,9.3099,9.373,9.4664,9.5185,9.5567,9.5774,9.5364,9.4992,9.4721,9.4282,9.3876,9.3634,9.3601,9.3601,9.3601,9.3601,9.3601,9.3601,9.3601,9.3601,9.3601,9.3601,9.3601,9.3601,9.3601,9.3601,9.3601,9.3601,9.3601,9.3601,9.3601,9.3601,9.3601,9.3601,9.3601,9.3601,9.6518,9.7252,9.797,9.8403,9.8493,9.8493,9.8493,9.8493,9.8493,9.8493,9.8493,9.8493,9.8493,9.8089,9.8,9.8478,9.7491,9.6683,9.6234,9.5187,9.3511,9.1016,9.0717,9.0597,9.0597,9.0597,9.0597,9.0597,9.0597,9.0597,9.0597,9.0597,9.1195,9.2284,9.2045,9.2554,9.3511,9.2613,9.2224,9.2165,9.1255,9.0896,9.0866,9.0687,9.0249,8.9722,8.9722,8.9722,8.9722,8.9722,9.01,9.0597,9.0597,9.0597,9.0597,9.0597,9.016,8.9752,8.992,8.9023,8.8215,8.9183,8.9243,8.9153,8.9363,8.8514,8.7706,8.7706,8.6808,8.6,8.6,8.6,8.5591,8.4243,8.5262,8.6731,8.8213,8.9658,9.1782,9.4943,9.5763,9.6211,9.646,9.6954,9.7022,9.6514,9.5804,9.5195,9.4721,9.3977,9.3601,9.3601,9.3601,9.3601,9.3601,9.3601,9.3601,9.3601,9.3601,9.3601,9.3601,9.3601,9.3601,9.3601,9.3601,9.3601,9.3601,9.3601,9.3601,9.3601,9.3601,9.3601,9.3601,9.3601,9.3601,9.3601,9.6637,9.7641,9.8493,9.8493,9.8493,9.8493,9.8493,9.8493,9.8493,9.8493,9.8493,9.8493,9.8493,9.8493,9.8493,9.8493,9.791,9.7491,9.7491,9.5695,9.3721,9.1716,9.0956,9.0627,9.0627,9.0597,9.0597,9.0597,9.0597,9.0597,9.0597,9.0597,9.0956,9.1656,9.2314,9.2972,9.3571,9.3601,9.3571,9.3451,9.2165,9.1626,9.1536,9.0866,9.0249,8.9722,8.9692,8.9722,8.9722,8.9692,9.01,9.0597,9.0597,9.0597,9.0597,9.0597,9.019,8.9872,9.0417,8.9681,8.8693,8.8693,8.8215,8.7885,8.8544,8.8185,8.7706,8.7706,8.7167,8.6728,8.6728,8.6698,8.6698,8.6698,8.8303,9.0207,9.2163,9.4039,9.59,9.7752,9.8003,9.8003,9.8003,9.8003,9.8003,9.8003,9.7326,9.6244,9.4789,9.4011,9.3634,9.3601,9.3601,9.3601,9.3601,9.3601,9.3601,9.3601,9.3601,9.3601,9.3601,9.3601,9.3601,9.3601,9.3601,9.3601,9.3601,9.3601,9.3601,9.3601,9.3601,9.3601,9.3601,9.3601,9.3601,9.3601,9.7222,9.794,9.8493,9.8493,9.8493,9.8493,9.8493,9.8493,9.8493,9.8493,9.8493,9.8493,9.8493,9.8493,9.8493,9.8493,9.8329,9.8,9.7521,9.5695,9.4349,9.375,9.2613,9.2015,9.2015,9.1566,9.1285,9.1285,9.0806,9.0597,9.0597,9.0597,9.0956,9.1656,9.2314,9.2972,9.3601,9.411,9.402,9.3584,9.3152,9.2434,9.1596,9.1345,9.0638,8.9662,8.9183,8.9303,8.9632,8.9183,8.9711,9.0597,9.0597,9.0597,9.0597,9.0597,9.0447,9.0279,9.001,8.9681,8.9471,8.995,8.9202,8.8574,8.9273,8.8514,8.7706,8.7706,8.7167,8.6728,8.6728,8.7785,8.8655,8.8655,9.0281,9.2202,9.4106,9.4846,9.59,9.7752,9.8003,9.8003,9.8003,9.8003,9.8003,9.8003,9.7326,9.6244,9.4789,9.4485,9.4112,9.3634,9.3601,9.3601,9.3601,9.3601,9.3601,9.3601,9.3601,9.3601,9.3601,9.3601,9.3601,9.3601,9.3601,9.3601,9.3601,9.3601,9.3601,9.3601,9.3601,9.3601,9.3601,9.3601,9.3601,9.3601,9.7551,9.8269,9.8837,9.8523,9.8493,9.8493,9.8493,9.8493,9.8493,9.8493,9.8493,9.8493,9.8493,9.8493,9.8493,9.8493,9.8493,9.8359,9.794,9.6563,9.5755,9.5755,9.4738,9.3691,9.2613,9.2194,9.1895,9.1626,9.1165,9.0866,9.0597,9.0597,9.0806,9.1225,9.2194,9.2823,9.3272,9.4199,9.4379,9.396,9.3691,9.3092,9.2344,9.1805,9.0968,8.992,8.9023,8.9153,8.9602,8.8903,8.9561,9.0597,9.0597,9.0417,9.0309,9.0507,9.0417,9.0219,9.01,9.007,9.01,9.0219,8.9262,8.8334,8.8494,8.7885,8.7287,8.7287,8.6958,8.6728,8.6728,8.8226,8.95,8.95,9.1775,9.3902,9.5045,9.5834,9.6739,9.7879,9.8003,9.8003,9.8003,9.8003,9.7867,9.7597,9.7123,9.6379,9.5195,9.5161,9.4924,9.4485,9.418,9.3914,9.3588,9.3575,9.3601,9.3601,9.3601,9.3601,9.3601,9.3601,9.3601,9.3601,9.3601,9.3601,9.3601,9.3601,9.3601,9.3601,9.3601,9.3601,9.3601,9.3601,9.3601,9.3601,9.788,9.8688,9.9316,9.8718,9.8568,9.8493,9.8493,9.8493,9.8493,9.8493,9.8493,9.8493,9.8493,9.8493,9.8493,9.8493,9.8493,9.8493,9.8493,9.788,9.7491,9.7491,9.6892,9.5426,9.3002,9.2853,9.2494,9.1895,9.1716,9.1285,9.0687,9.0627,9.0597,9.0657,9.2015,9.2613,9.2673,9.405,9.4618,9.4558,9.393,9.3631,9.3451,9.2254,9.1315,9.0507,8.9232,8.9243,8.9692,8.9052,8.9651,9.0597,9.0597,9.019,8.9812,9.0369,9.01,8.9711,9.0328,9.0507,9.0358,8.9741,8.8663,8.7616,8.6928,8.6758,8.6728,8.6728,8.6728,8.6738,8.6936,8.8494,8.9799,8.9985,9.3046,9.5441,9.5441,9.6898,9.8003,9.8003,9.8003,9.8003,9.8003,9.8003,9.7732,9.7052,9.7018,9.668,9.5939,9.5905,9.5872,9.5804,9.5161,9.4429,9.371,9.3685,9.3668,9.3601,9.3601,9.3601,9.3601,9.3601,9.3601,9.3601,9.3601,9.3601,9.3601,9.3601,9.3601,9.3601,9.3601,9.3601,9.3601,9.3601,9.3601,9.3601,9.9765,9.9645,9.9466,9.9316,9.8867,9.8493,9.8493,9.8493,9.8493,9.8493,9.8493,9.8493,9.8493,9.8493,9.8493,9.8493,9.8493,9.8493,9.8493,9.788,9.7491,9.7491,9.6892,9.6338,9.5725,9.4708,9.411,9.396,9.2374,9.1536,9.1345,9.0836,9.0597,9.0657,9.2015,9.2613,9.2673,9.405,9.4618,9.4588,9.4439,9.405,9.3584,9.3272,9.2434,9.1237,8.992,8.989,9.0358,9.0208,9.0358,9.0597,9.0597,9.019,8.9752,8.983,8.9412,8.9052,8.9711,8.989,8.9711,8.9052,8.8693,8.8304,8.7646,8.7077,8.6728,8.6728,8.6728,8.7142,8.8617,9.0465,9.2237,9.3733,9.5867,9.7407,9.7407,9.7721,9.8003,9.8003,9.8003,9.8003,9.8003,9.8003,9.7935,9.7766,9.7766,9.7428,9.6714,9.668,9.6379,9.5804,9.5635,9.5199,9.4493,9.4455,9.418,9.3601,9.3601,9.3601,9.3601,9.3601,9.3601,9.3601,9.3601,9.3601,9.3601,9.3601,9.3601,9.3601,9.3601,9.3601,9.3601,9.3601,9.3601,9.3601,10.0004,10.032,10.032,9.9615,9.9226,9.8897,9.8523,9.8493,9.8493,9.8493,9.8493,9.8493,9.8493,9.8493,9.8389,9.8059,9.8329,9.8344,9.8059,9.77,9.7641,9.797,9.7371,9.7162,9.7491,9.6503,9.5695,9.5067,9.3721,9.2703,9.2075,9.1375,9.0896,9.0657,9.2015,9.2613,9.2673,9.405,9.4618,9.4618,9.4618,9.4379,9.405,9.3691,9.2763,9.1446,9.0171,8.9471,8.9281,8.995,9.016,9.016,9.016,8.9711,8.9243,8.9243,8.8723,8.8424,8.9452,8.9722,8.9542,8.8843,8.8693,8.8424,8.7437,8.6928,8.6728,8.6728,8.6728,8.7269,8.9155,9.1091,9.3009,9.4912,9.6771,9.8003,9.8003,9.8003,9.8003,9.8003,9.8003,9.8003,9.8003,9.8003,9.8003,9.8003,9.8003,9.7834,9.7428,9.7428,9.7258,9.6853,9.6514,9.6142,9.5736,9.5169,9.4628,9.4244,9.3804,9.3601,9.3601,9.3601,9.3601,9.3601,9.3601,9.3601,9.3601,9.3601,9.3601,9.3601,9.3601,9.3601,9.3601,9.3601,9.3601,9.3601,10.0094,10.0782,10.1082,10.0004,9.9735,9.9436,9.8778,9.8643,9.8658,9.8538,9.8493,9.8493,9.8493,9.8419,9.8119,9.7551,9.791,9.794,9.7371,9.7341,9.7641,9.8329,9.77,9.77,9.8508,9.785,9.6982,9.5905,9.5037,9.405,9.2913,9.2165,9.1464,9.0986,9.2224,9.2763,9.2853,9.408,9.4618,9.4618,9.4618,9.4618,9.4558,9.396,9.3002,9.1776,9.0489,8.9082,8.8065,8.9382,8.9722,8.9572,8.9662,8.9183,8.8514,8.8514,8.8035,8.7796,8.9063,8.9452,8.9393,8.8693,8.8604,8.8334,8.7028,8.6728,8.6777,8.7103,8.7181,8.7832,9.0096,9.181,9.3459,9.5343,9.6961,9.8003,9.8003,9.8003,9.8003,9.8003,9.8003,9.8003,9.8003,9.8003,9.8003,9.8003,9.8003,9.8003,9.8003,9.8003,9.8003,9.8003,9.7394,9.6988,9.6819,9.5784,9.5109,9.4759,9.3985,9.3609,9.3601,9.3601,9.3601,9.3601,9.3601,9.3601,9.3601,9.3601,9.3605,9.3609,9.3609,9.3774,9.4007,9.4007,9.4007,9.3973,10.189,10.1817,10.1381,10.1308,10.0693,10.0094,9.9466,9.9376,9.9167,9.8598,9.8493,9.8493,9.8493,9.8,9.7611,9.7491,9.7102,9.6803,9.6757,9.6727,9.6982,9.7611,9.7042,9.7281,9.8463,9.785,9.7401,9.7222,9.5486,9.4528,9.4319,9.3062,9.2434,9.2374,9.3122,9.3451,9.3511,9.4289,9.4618,9.4618,9.4618,9.4618,9.4588,9.4499,9.399,9.3152,9.1835,9.016,8.8753,9.007,8.9741,8.8933,8.9542,8.8813,8.7856,8.7856,8.7347,8.6988,8.7766,8.8394,8.8663,8.8005,8.8274,8.8334,8.7028,8.6728,8.7181,8.8807,8.9117,9.0213,9.3767,9.4646,9.5442,9.7312,9.7814,9.8003,9.8003,9.8003,9.8003,9.8003,9.8003,9.8003,9.8003,9.8003,9.8003,9.8003,9.8003,9.8003,9.8003,9.8003,9.8003,9.8003,9.7901,9.7431,9.6555,9.6389,9.5457,9.3769,9.3635,9.3612,9.3601,9.3601,9.3601,9.3601,9.3601,9.3601,9.3601,9.3601,9.3584,9.3604,9.3604,9.4369,9.5499,9.5499,9.5499,9.5398,10.1308,10.171,10.189,10.1607,10.1308,10.0782,10.023,9.9735,9.9406,9.9107,9.8748,9.8493,9.8493,9.8239,9.791,9.7521,9.7611,9.7341,9.6667,9.6937,9.7042,9.6982,9.6713,9.7012,9.794,9.7641,9.767,9.8059,9.6833,9.5845,9.5127,9.4169,9.3511,9.3152,9.3451,9.381,9.4169,9.4469,9.4618,9.4618,9.4618,9.4618,9.4618,9.4618,9.4169,9.3361,9.1686,9.004,8.8813,8.9771,8.9471,8.8723,8.9063,8.8454,8.7616,8.7257,8.6928,8.6878,8.7526,8.7915,8.8155,8.8245,8.8185,8.7975,8.7377,8.7776,8.8494,8.9343,9.0391,9.1953,9.4679,9.5211,9.5802,9.769,9.8003,9.8003,9.8003,9.8003,9.8003,9.8003,9.8003,9.8003,9.8003,9.8003,9.8003,9.8003,9.8003,9.8003,9.8003,9.8003,9.8003,9.8003,9.8003,9.7769,9.7363,9.7363,9.6893,9.6051,9.6051,9.518,9.3612,9.3612,9.3612,9.3579,9.36,9.3592,9.3592,9.3592,9.36,9.3743,9.5424,9.6451,9.6922,9.6097,9.5804,9.5736]}]]